<?xml version="1.0" encoding="UTF-8" standalone="no" ?>
<gpx xmlns="http://www.topografix.com/GPX/1/1" xmlns:xsi="http://www.w3.org/2001/XMLSchema-instance" xsi:schemaLocation="http://www.topografix.com/GPX/1/1 http://www.topografix.com/GPX/1/1/gpx.xsd" version="1.1" creator="VisuGPX - https://www.visugpx.com">
  <metadata>
    <name>Raz-de-Bec (Dévoluy) Jeudicrando 10 septembre 2020</name>
    <desc><![CDATA[

Départ du parking au bas du téléphérique du plateau de Bure (1500m) sous le soleil, nous prenons la large piste au sud (GRP tour du Dévoluy) puis vers l'est à la cabane de l'avalanche) le sentier chemine en forêt puis débouche sur un paysage ouvert au milieu des pâturages entourés des montagnes découpées du Dévoluy. Le chemin nous conduit Sud Est au col du Rabou 1888m. nous bifurquons Nord est pour attaquer la pente toujours en pâturage puis la montée devient plus raide vers 2000m et le cheminement se fait à vue (quelques cairns) vers une petite brèche dans la crête de Porel que nous atteignons sans grande difficulté. La vue est bien sur magnifique de tous côtés et la marche très agréable dans cet environnement grandiose.
Le retour s'effectue sans problème par le sentier de montée.]]></desc>
  </metadata>
  <trk>
    <name><![CDATA[2020-09-10 16:21:35]]></name>
    <trkseg>
      <trkpt lat="44.66158" lon="5.93839">
        <ele>1503.16</ele>
        <time>2020-09-10T07:19:16Z</time>
      </trkpt>
      <trkpt lat="44.66158" lon="5.93839">
        <ele>1503.16</ele>
        <time>2020-09-10T07:19:17Z</time>
      </trkpt>
      <trkpt lat="44.66157" lon="5.93842">
        <ele>1502.68</ele>
        <time>2020-09-10T07:19:47Z</time>
      </trkpt>
      <trkpt lat="44.66157" lon="5.9384">
        <ele>1502.68</ele>
        <time>2020-09-10T07:20:11Z</time>
      </trkpt>
      <trkpt lat="44.66156" lon="5.9384">
        <ele>1502.2</ele>
        <time>2020-09-10T07:20:13Z</time>
      </trkpt>
      <trkpt lat="44.66161" lon="5.93828">
        <ele>1503.16</ele>
        <time>2020-09-10T07:20:22Z</time>
      </trkpt>
      <trkpt lat="44.66161" lon="5.93823">
        <ele>1503.16</ele>
        <time>2020-09-10T07:20:26Z</time>
      </trkpt>
      <trkpt lat="44.6615" lon="5.93806">
        <ele>1505.08</ele>
        <time>2020-09-10T07:20:43Z</time>
      </trkpt>
      <trkpt lat="44.66147" lon="5.93801">
        <ele>1505.56</ele>
        <time>2020-09-10T07:20:57Z</time>
      </trkpt>
      <trkpt lat="44.66146" lon="5.93801">
        <ele>1505.56</ele>
        <time>2020-09-10T07:21:16Z</time>
      </trkpt>
      <trkpt lat="44.66146" lon="5.93802">
        <ele>1505.56</ele>
        <time>2020-09-10T07:21:33Z</time>
      </trkpt>
      <trkpt lat="44.66145" lon="5.93802">
        <ele>1505.56</ele>
        <time>2020-09-10T07:21:54Z</time>
      </trkpt>
      <trkpt lat="44.66148" lon="5.93801">
        <ele>1505.56</ele>
        <time>2020-09-10T07:22:13Z</time>
      </trkpt>
      <trkpt lat="44.66145" lon="5.93803">
        <ele>1505.56</ele>
        <time>2020-09-10T07:22:31Z</time>
      </trkpt>
      <trkpt lat="44.66138" lon="5.93802">
        <ele>1505.56</ele>
        <time>2020-09-10T07:22:49Z</time>
      </trkpt>
      <trkpt lat="44.66135" lon="5.93799">
        <ele>1504.6</ele>
        <time>2020-09-10T07:23:05Z</time>
      </trkpt>
      <trkpt lat="44.66132" lon="5.93799">
        <ele>1504.6</ele>
        <time>2020-09-10T07:23:21Z</time>
      </trkpt>
      <trkpt lat="44.66128" lon="5.938">
        <ele>1504.6</ele>
        <time>2020-09-10T07:23:41Z</time>
      </trkpt>
      <trkpt lat="44.66132" lon="5.93792">
        <ele>1504.6</ele>
        <time>2020-09-10T07:24:05Z</time>
      </trkpt>
      <trkpt lat="44.66123" lon="5.93805">
        <ele>1504.6</ele>
        <time>2020-09-10T07:24:26Z</time>
      </trkpt>
      <trkpt lat="44.6612" lon="5.93806">
        <ele>1504.6</ele>
        <time>2020-09-10T07:24:33Z</time>
      </trkpt>
      <trkpt lat="44.66111" lon="5.93799">
        <ele>1504.6</ele>
        <time>2020-09-10T07:24:48Z</time>
      </trkpt>
      <trkpt lat="44.66107" lon="5.93787">
        <ele>1506.04</ele>
        <time>2020-09-10T07:25:01Z</time>
      </trkpt>
      <trkpt lat="44.66101" lon="5.93771">
        <ele>1507</ele>
        <time>2020-09-10T07:25:15Z</time>
      </trkpt>
      <trkpt lat="44.66099" lon="5.93765">
        <ele>1507.97</ele>
        <time>2020-09-10T07:25:20Z</time>
      </trkpt>
      <trkpt lat="44.66092" lon="5.93748">
        <ele>1509.89</ele>
        <time>2020-09-10T07:25:34Z</time>
      </trkpt>
      <trkpt lat="44.66083" lon="5.93726">
        <ele>1512.29</ele>
        <time>2020-09-10T07:25:52Z</time>
      </trkpt>
      <trkpt lat="44.66078" lon="5.93704">
        <ele>1515.18</ele>
        <time>2020-09-10T07:26:08Z</time>
      </trkpt>
      <trkpt lat="44.66071" lon="5.93684">
        <ele>1518.06</ele>
        <time>2020-09-10T07:26:24Z</time>
      </trkpt>
      <trkpt lat="44.66068" lon="5.93658">
        <ele>1520.46</ele>
        <time>2020-09-10T07:26:39Z</time>
      </trkpt>
      <trkpt lat="44.66066" lon="5.93638">
        <ele>1523.35</ele>
        <time>2020-09-10T07:26:55Z</time>
      </trkpt>
      <trkpt lat="44.66063" lon="5.93622">
        <ele>1526.23</ele>
        <time>2020-09-10T07:27:11Z</time>
      </trkpt>
      <trkpt lat="44.66058" lon="5.93608">
        <ele>1529.11</ele>
        <time>2020-09-10T07:27:26Z</time>
      </trkpt>
      <trkpt lat="44.66053" lon="5.93597">
        <ele>1532.48</ele>
        <time>2020-09-10T07:27:41Z</time>
      </trkpt>
      <trkpt lat="44.66046" lon="5.93585">
        <ele>1535.36</ele>
        <time>2020-09-10T07:27:57Z</time>
      </trkpt>
      <trkpt lat="44.66035" lon="5.93571">
        <ele>1538.73</ele>
        <time>2020-09-10T07:28:14Z</time>
      </trkpt>
      <trkpt lat="44.66026" lon="5.93563">
        <ele>1541.61</ele>
        <time>2020-09-10T07:28:30Z</time>
      </trkpt>
      <trkpt lat="44.66016" lon="5.93555">
        <ele>1544.5</ele>
        <time>2020-09-10T07:28:43Z</time>
      </trkpt>
      <trkpt lat="44.66003" lon="5.93542">
        <ele>1546.9</ele>
        <time>2020-09-10T07:28:59Z</time>
      </trkpt>
      <trkpt lat="44.66001" lon="5.93538">
        <ele>1547.86</ele>
        <time>2020-09-10T07:29:03Z</time>
      </trkpt>
      <trkpt lat="44.65984" lon="5.93524">
        <ele>1548.82</ele>
        <time>2020-09-10T07:29:21Z</time>
      </trkpt>
      <trkpt lat="44.65972" lon="5.93518">
        <ele>1548.82</ele>
        <time>2020-09-10T07:29:33Z</time>
      </trkpt>
      <trkpt lat="44.65969" lon="5.93511">
        <ele>1548.82</ele>
        <time>2020-09-10T07:29:38Z</time>
      </trkpt>
      <trkpt lat="44.65951" lon="5.93502">
        <ele>1548.82</ele>
        <time>2020-09-10T07:29:55Z</time>
      </trkpt>
      <trkpt lat="44.65934" lon="5.93501">
        <ele>1548.34</ele>
        <time>2020-09-10T07:30:12Z</time>
      </trkpt>
      <trkpt lat="44.65912" lon="5.93495">
        <ele>1548.34</ele>
        <time>2020-09-10T07:30:29Z</time>
      </trkpt>
      <trkpt lat="44.65908" lon="5.93494">
        <ele>1547.38</ele>
        <time>2020-09-10T07:30:32Z</time>
      </trkpt>
      <trkpt lat="44.65901" lon="5.93493">
        <ele>1548.34</ele>
        <time>2020-09-10T07:30:37Z</time>
      </trkpt>
      <trkpt lat="44.65883" lon="5.93493">
        <ele>1545.94</ele>
        <time>2020-09-10T07:30:53Z</time>
      </trkpt>
      <trkpt lat="44.65868" lon="5.93494">
        <ele>1545.94</ele>
        <time>2020-09-10T07:31:06Z</time>
      </trkpt>
      <trkpt lat="44.65849" lon="5.93495">
        <ele>1547.38</ele>
        <time>2020-09-10T07:31:22Z</time>
      </trkpt>
      <trkpt lat="44.65831" lon="5.93498">
        <ele>1548.82</ele>
        <time>2020-09-10T07:31:39Z</time>
      </trkpt>
      <trkpt lat="44.65824" lon="5.93499">
        <ele>1548.82</ele>
        <time>2020-09-10T07:31:52Z</time>
      </trkpt>
      <trkpt lat="44.65824" lon="5.93497">
        <ele>1548.82</ele>
        <time>2020-09-10T07:32:12Z</time>
      </trkpt>
      <trkpt lat="44.65823" lon="5.93496">
        <ele>1548.82</ele>
        <time>2020-09-10T07:32:38Z</time>
      </trkpt>
      <trkpt lat="44.65823" lon="5.93497">
        <ele>1548.82</ele>
        <time>2020-09-10T07:33:01Z</time>
      </trkpt>
      <trkpt lat="44.65808" lon="5.93503">
        <ele>1547.86</ele>
        <time>2020-09-10T07:33:15Z</time>
      </trkpt>
      <trkpt lat="44.65807" lon="5.93503">
        <ele>1547.86</ele>
        <time>2020-09-10T07:33:16Z</time>
      </trkpt>
      <trkpt lat="44.65782" lon="5.93504">
        <ele>1547.86</ele>
        <time>2020-09-10T07:33:35Z</time>
      </trkpt>
      <trkpt lat="44.65759" lon="5.93506">
        <ele>1547.86</ele>
        <time>2020-09-10T07:33:52Z</time>
      </trkpt>
      <trkpt lat="44.65747" lon="5.93498">
        <ele>1547.38</ele>
        <time>2020-09-10T07:34:08Z</time>
      </trkpt>
      <trkpt lat="44.65747" lon="5.935">
        <ele>1547.38</ele>
        <time>2020-09-10T07:34:25Z</time>
      </trkpt>
      <trkpt lat="44.65746" lon="5.93499">
        <ele>1546.42</ele>
        <time>2020-09-10T07:34:32Z</time>
      </trkpt>
      <trkpt lat="44.65744" lon="5.93506">
        <ele>1547.38</ele>
        <time>2020-09-10T07:34:42Z</time>
      </trkpt>
      <trkpt lat="44.65742" lon="5.93513">
        <ele>1546.42</ele>
        <time>2020-09-10T07:34:47Z</time>
      </trkpt>
      <trkpt lat="44.65734" lon="5.93537">
        <ele>1544.01</ele>
        <time>2020-09-10T07:35:04Z</time>
      </trkpt>
      <trkpt lat="44.65724" lon="5.93551">
        <ele>1541.61</ele>
        <time>2020-09-10T07:35:19Z</time>
      </trkpt>
      <trkpt lat="44.65715" lon="5.9356">
        <ele>1539.69</ele>
        <time>2020-09-10T07:35:32Z</time>
      </trkpt>
      <trkpt lat="44.65704" lon="5.9357">
        <ele>1536.8</ele>
        <time>2020-09-10T07:35:45Z</time>
      </trkpt>
      <trkpt lat="44.65692" lon="5.93584">
        <ele>1534.88</ele>
        <time>2020-09-10T07:35:57Z</time>
      </trkpt>
      <trkpt lat="44.65676" lon="5.93604">
        <ele>1534.4</ele>
        <time>2020-09-10T07:36:11Z</time>
      </trkpt>
      <trkpt lat="44.65668" lon="5.93625">
        <ele>1534.4</ele>
        <time>2020-09-10T07:36:27Z</time>
      </trkpt>
      <trkpt lat="44.65667" lon="5.93631">
        <ele>1535.84</ele>
        <time>2020-09-10T07:36:34Z</time>
      </trkpt>
      <trkpt lat="44.65662" lon="5.93653">
        <ele>1537.77</ele>
        <time>2020-09-10T07:36:49Z</time>
      </trkpt>
      <trkpt lat="44.6565" lon="5.93674">
        <ele>1538.73</ele>
        <time>2020-09-10T07:37:05Z</time>
      </trkpt>
      <trkpt lat="44.65648" lon="5.93693">
        <ele>1540.17</ele>
        <time>2020-09-10T07:37:20Z</time>
      </trkpt>
      <trkpt lat="44.65647" lon="5.93698">
        <ele>1540.17</ele>
        <time>2020-09-10T07:37:24Z</time>
      </trkpt>
      <trkpt lat="44.65647" lon="5.93718">
        <ele>1542.09</ele>
        <time>2020-09-10T07:37:40Z</time>
      </trkpt>
      <trkpt lat="44.65643" lon="5.93731">
        <ele>1544.01</ele>
        <time>2020-09-10T07:37:50Z</time>
      </trkpt>
      <trkpt lat="44.65616" lon="5.93764">
        <ele>1544.5</ele>
        <time>2020-09-10T07:38:04Z</time>
      </trkpt>
      <trkpt lat="44.65603" lon="5.93772">
        <ele>1544.5</ele>
        <time>2020-09-10T07:38:17Z</time>
      </trkpt>
      <trkpt lat="44.65598" lon="5.9377">
        <ele>1543.05</ele>
        <time>2020-09-10T07:38:21Z</time>
      </trkpt>
      <trkpt lat="44.65585" lon="5.93769">
        <ele>1542.09</ele>
        <time>2020-09-10T07:38:32Z</time>
      </trkpt>
      <trkpt lat="44.65567" lon="5.93783">
        <ele>1541.61</ele>
        <time>2020-09-10T07:38:48Z</time>
      </trkpt>
      <trkpt lat="44.65558" lon="5.93792">
        <ele>1542.57</ele>
        <time>2020-09-10T07:38:57Z</time>
      </trkpt>
      <trkpt lat="44.65556" lon="5.93798">
        <ele>1543.53</ele>
        <time>2020-09-10T07:39:01Z</time>
      </trkpt>
      <trkpt lat="44.65551" lon="5.9382">
        <ele>1545.94</ele>
        <time>2020-09-10T07:39:17Z</time>
      </trkpt>
      <trkpt lat="44.65544" lon="5.93839">
        <ele>1545.94</ele>
        <time>2020-09-10T07:39:30Z</time>
      </trkpt>
      <trkpt lat="44.65541" lon="5.9386">
        <ele>1546.9</ele>
        <time>2020-09-10T07:39:43Z</time>
      </trkpt>
      <trkpt lat="44.65544" lon="5.93882">
        <ele>1548.34</ele>
        <time>2020-09-10T07:39:57Z</time>
      </trkpt>
      <trkpt lat="44.65553" lon="5.93909">
        <ele>1549.78</ele>
        <time>2020-09-10T07:40:13Z</time>
      </trkpt>
      <trkpt lat="44.65554" lon="5.93931">
        <ele>1550.74</ele>
        <time>2020-09-10T07:40:25Z</time>
      </trkpt>
      <trkpt lat="44.65546" lon="5.93946">
        <ele>1552.19</ele>
        <time>2020-09-10T07:40:39Z</time>
      </trkpt>
      <trkpt lat="44.65535" lon="5.93955">
        <ele>1553.63</ele>
        <time>2020-09-10T07:40:54Z</time>
      </trkpt>
      <trkpt lat="44.65533" lon="5.93964">
        <ele>1555.07</ele>
        <time>2020-09-10T07:41:05Z</time>
      </trkpt>
      <trkpt lat="44.65532" lon="5.93965">
        <ele>1555.55</ele>
        <time>2020-09-10T07:41:06Z</time>
      </trkpt>
      <trkpt lat="44.65531" lon="5.93971">
        <ele>1556.03</ele>
        <time>2020-09-10T07:41:13Z</time>
      </trkpt>
      <trkpt lat="44.65531" lon="5.93973">
        <ele>1556.51</ele>
        <time>2020-09-10T07:41:15Z</time>
      </trkpt>
      <trkpt lat="44.65526" lon="5.93986">
        <ele>1556.99</ele>
        <time>2020-09-10T07:41:24Z</time>
      </trkpt>
      <trkpt lat="44.65519" lon="5.94015">
        <ele>1557.95</ele>
        <time>2020-09-10T07:41:40Z</time>
      </trkpt>
      <trkpt lat="44.65513" lon="5.94034">
        <ele>1559.88</ele>
        <time>2020-09-10T07:41:56Z</time>
      </trkpt>
      <trkpt lat="44.65511" lon="5.94037">
        <ele>1559.88</ele>
        <time>2020-09-10T07:41:59Z</time>
      </trkpt>
      <trkpt lat="44.65503" lon="5.94054">
        <ele>1561.32</ele>
        <time>2020-09-10T07:42:12Z</time>
      </trkpt>
      <trkpt lat="44.65492" lon="5.9407">
        <ele>1562.76</ele>
        <time>2020-09-10T07:42:27Z</time>
      </trkpt>
      <trkpt lat="44.65489" lon="5.94075">
        <ele>1563.24</ele>
        <time>2020-09-10T07:42:31Z</time>
      </trkpt>
      <trkpt lat="44.65484" lon="5.9409">
        <ele>1564.2</ele>
        <time>2020-09-10T07:42:43Z</time>
      </trkpt>
      <trkpt lat="44.65477" lon="5.94109">
        <ele>1565.64</ele>
        <time>2020-09-10T07:42:59Z</time>
      </trkpt>
      <trkpt lat="44.65472" lon="5.9412">
        <ele>1566.12</ele>
        <time>2020-09-10T07:43:07Z</time>
      </trkpt>
      <trkpt lat="44.65461" lon="5.94131">
        <ele>1567.09</ele>
        <time>2020-09-10T07:43:25Z</time>
      </trkpt>
      <trkpt lat="44.65462" lon="5.94135">
        <ele>1567.09</ele>
        <time>2020-09-10T07:43:50Z</time>
      </trkpt>
      <trkpt lat="44.65453" lon="5.94135">
        <ele>1567.09</ele>
        <time>2020-09-10T07:44:09Z</time>
      </trkpt>
      <trkpt lat="44.65437" lon="5.94138">
        <ele>1567.57</ele>
        <time>2020-09-10T07:44:24Z</time>
      </trkpt>
      <trkpt lat="44.65422" lon="5.94145">
        <ele>1569.01</ele>
        <time>2020-09-10T07:44:40Z</time>
      </trkpt>
      <trkpt lat="44.65419" lon="5.94144">
        <ele>1569.97</ele>
        <time>2020-09-10T07:44:56Z</time>
      </trkpt>
      <trkpt lat="44.65414" lon="5.9415">
        <ele>1570.93</ele>
        <time>2020-09-10T07:45:10Z</time>
      </trkpt>
      <trkpt lat="44.65401" lon="5.94153">
        <ele>1570.93</ele>
        <time>2020-09-10T07:45:36Z</time>
      </trkpt>
      <trkpt lat="44.65396" lon="5.94157">
        <ele>1570.93</ele>
        <time>2020-09-10T07:46:01Z</time>
      </trkpt>
      <trkpt lat="44.65395" lon="5.94163">
        <ele>1571.89</ele>
        <time>2020-09-10T07:46:25Z</time>
      </trkpt>
      <trkpt lat="44.65394" lon="5.94167">
        <ele>1572.37</ele>
        <time>2020-09-10T07:46:28Z</time>
      </trkpt>
      <trkpt lat="44.65393" lon="5.94192">
        <ele>1573.82</ele>
        <time>2020-09-10T07:46:45Z</time>
      </trkpt>
      <trkpt lat="44.65393" lon="5.94201">
        <ele>1574.78</ele>
        <time>2020-09-10T07:46:51Z</time>
      </trkpt>
      <trkpt lat="44.6539" lon="5.94223">
        <ele>1575.74</ele>
        <time>2020-09-10T07:47:06Z</time>
      </trkpt>
      <trkpt lat="44.6539" lon="5.94227">
        <ele>1576.22</ele>
        <time>2020-09-10T07:47:09Z</time>
      </trkpt>
      <trkpt lat="44.65392" lon="5.94247">
        <ele>1578.62</ele>
        <time>2020-09-10T07:47:26Z</time>
      </trkpt>
      <trkpt lat="44.65384" lon="5.94268">
        <ele>1580.06</ele>
        <time>2020-09-10T07:47:40Z</time>
      </trkpt>
      <trkpt lat="44.65376" lon="5.94286">
        <ele>1581.51</ele>
        <time>2020-09-10T07:47:55Z</time>
      </trkpt>
      <trkpt lat="44.65375" lon="5.94297">
        <ele>1582.47</ele>
        <time>2020-09-10T07:48:04Z</time>
      </trkpt>
      <trkpt lat="44.65373" lon="5.9432">
        <ele>1583.91</ele>
        <time>2020-09-10T07:48:20Z</time>
      </trkpt>
      <trkpt lat="44.65366" lon="5.94339">
        <ele>1584.87</ele>
        <time>2020-09-10T07:48:34Z</time>
      </trkpt>
      <trkpt lat="44.65358" lon="5.94365">
        <ele>1586.79</ele>
        <time>2020-09-10T07:48:50Z</time>
      </trkpt>
      <trkpt lat="44.65351" lon="5.94388">
        <ele>1588.72</ele>
        <time>2020-09-10T07:49:06Z</time>
      </trkpt>
      <trkpt lat="44.65349" lon="5.94398">
        <ele>1589.68</ele>
        <time>2020-09-10T07:49:18Z</time>
      </trkpt>
      <trkpt lat="44.65349" lon="5.94403">
        <ele>1590.16</ele>
        <time>2020-09-10T07:49:22Z</time>
      </trkpt>
      <trkpt lat="44.65346" lon="5.94415">
        <ele>1591.6</ele>
        <time>2020-09-10T07:49:34Z</time>
      </trkpt>
      <trkpt lat="44.65341" lon="5.94426">
        <ele>1593.04</ele>
        <time>2020-09-10T07:49:49Z</time>
      </trkpt>
      <trkpt lat="44.65337" lon="5.94442">
        <ele>1594</ele>
        <time>2020-09-10T07:50:02Z</time>
      </trkpt>
      <trkpt lat="44.65336" lon="5.94447">
        <ele>1594</ele>
        <time>2020-09-10T07:50:05Z</time>
      </trkpt>
      <trkpt lat="44.65333" lon="5.94462">
        <ele>1594.96</ele>
        <time>2020-09-10T07:50:16Z</time>
      </trkpt>
      <trkpt lat="44.65332" lon="5.94471">
        <ele>1595.45</ele>
        <time>2020-09-10T07:50:22Z</time>
      </trkpt>
      <trkpt lat="44.65331" lon="5.94488">
        <ele>1596.89</ele>
        <time>2020-09-10T07:50:33Z</time>
      </trkpt>
      <trkpt lat="44.65328" lon="5.945">
        <ele>1597.37</ele>
        <time>2020-09-10T07:50:39Z</time>
      </trkpt>
      <trkpt lat="44.65328" lon="5.94527">
        <ele>1598.81</ele>
        <time>2020-09-10T07:50:57Z</time>
      </trkpt>
      <trkpt lat="44.65327" lon="5.94545">
        <ele>1600.73</ele>
        <time>2020-09-10T07:51:12Z</time>
      </trkpt>
      <trkpt lat="44.65322" lon="5.94564">
        <ele>1602.17</ele>
        <time>2020-09-10T07:51:27Z</time>
      </trkpt>
      <trkpt lat="44.65319" lon="5.94587">
        <ele>1603.14</ele>
        <time>2020-09-10T07:51:42Z</time>
      </trkpt>
      <trkpt lat="44.65312" lon="5.94608">
        <ele>1604.1</ele>
        <time>2020-09-10T07:51:54Z</time>
      </trkpt>
      <trkpt lat="44.65309" lon="5.94635">
        <ele>1605.06</ele>
        <time>2020-09-10T07:52:09Z</time>
      </trkpt>
      <trkpt lat="44.6531" lon="5.94647">
        <ele>1606.02</ele>
        <time>2020-09-10T07:52:24Z</time>
      </trkpt>
      <trkpt lat="44.65309" lon="5.9465">
        <ele>1606.5</ele>
        <time>2020-09-10T07:52:42Z</time>
      </trkpt>
      <trkpt lat="44.65308" lon="5.94657">
        <ele>1606.98</ele>
        <time>2020-09-10T07:52:56Z</time>
      </trkpt>
      <trkpt lat="44.65307" lon="5.94662">
        <ele>1606.98</ele>
        <time>2020-09-10T07:53:10Z</time>
      </trkpt>
      <trkpt lat="44.65307" lon="5.94669">
        <ele>1606.98</ele>
        <time>2020-09-10T07:53:34Z</time>
      </trkpt>
      <trkpt lat="44.65308" lon="5.94671">
        <ele>1606.98</ele>
        <time>2020-09-10T07:54:01Z</time>
      </trkpt>
      <trkpt lat="44.65306" lon="5.94666">
        <ele>1606.98</ele>
        <time>2020-09-10T07:54:21Z</time>
      </trkpt>
      <trkpt lat="44.65307" lon="5.94665">
        <ele>1606.98</ele>
        <time>2020-09-10T07:54:40Z</time>
      </trkpt>
      <trkpt lat="44.65306" lon="5.94669">
        <ele>1607.46</ele>
        <time>2020-09-10T07:54:56Z</time>
      </trkpt>
      <trkpt lat="44.65306" lon="5.94675">
        <ele>1607.46</ele>
        <time>2020-09-10T07:55:08Z</time>
      </trkpt>
      <trkpt lat="44.65304" lon="5.94678">
        <ele>1608.42</ele>
        <time>2020-09-10T07:55:28Z</time>
      </trkpt>
      <trkpt lat="44.65304" lon="5.94688">
        <ele>1608.9</ele>
        <time>2020-09-10T07:55:41Z</time>
      </trkpt>
      <trkpt lat="44.65302" lon="5.94705">
        <ele>1610.35</ele>
        <time>2020-09-10T07:55:57Z</time>
      </trkpt>
      <trkpt lat="44.65301" lon="5.94724">
        <ele>1611.31</ele>
        <time>2020-09-10T07:56:12Z</time>
      </trkpt>
      <trkpt lat="44.65298" lon="5.94745">
        <ele>1612.75</ele>
        <time>2020-09-10T07:56:27Z</time>
      </trkpt>
      <trkpt lat="44.65294" lon="5.9476">
        <ele>1614.19</ele>
        <time>2020-09-10T07:56:41Z</time>
      </trkpt>
      <trkpt lat="44.65292" lon="5.94779">
        <ele>1615.63</ele>
        <time>2020-09-10T07:56:55Z</time>
      </trkpt>
      <trkpt lat="44.65293" lon="5.94798">
        <ele>1617.07</ele>
        <time>2020-09-10T07:57:09Z</time>
      </trkpt>
      <trkpt lat="44.65293" lon="5.94819">
        <ele>1618.04</ele>
        <time>2020-09-10T07:57:23Z</time>
      </trkpt>
      <trkpt lat="44.65295" lon="5.94837">
        <ele>1620.44</ele>
        <time>2020-09-10T07:57:38Z</time>
      </trkpt>
      <trkpt lat="44.6529" lon="5.94861">
        <ele>1621.88</ele>
        <time>2020-09-10T07:57:53Z</time>
      </trkpt>
      <trkpt lat="44.65284" lon="5.94887">
        <ele>1623.32</ele>
        <time>2020-09-10T07:58:10Z</time>
      </trkpt>
      <trkpt lat="44.65281" lon="5.94901">
        <ele>1624.28</ele>
        <time>2020-09-10T07:58:21Z</time>
      </trkpt>
      <trkpt lat="44.65283" lon="5.94923">
        <ele>1626.21</ele>
        <time>2020-09-10T07:58:37Z</time>
      </trkpt>
      <trkpt lat="44.65282" lon="5.94939">
        <ele>1627.65</ele>
        <time>2020-09-10T07:58:52Z</time>
      </trkpt>
      <trkpt lat="44.6528" lon="5.9496">
        <ele>1629.09</ele>
        <time>2020-09-10T07:59:07Z</time>
      </trkpt>
      <trkpt lat="44.65279" lon="5.94984">
        <ele>1631.01</ele>
        <time>2020-09-10T07:59:21Z</time>
      </trkpt>
      <trkpt lat="44.65278" lon="5.95">
        <ele>1631.98</ele>
        <time>2020-09-10T07:59:36Z</time>
      </trkpt>
      <trkpt lat="44.65279" lon="5.95017">
        <ele>1633.9</ele>
        <time>2020-09-10T07:59:50Z</time>
      </trkpt>
      <trkpt lat="44.6528" lon="5.95033">
        <ele>1634.38</ele>
        <time>2020-09-10T08:00:00Z</time>
      </trkpt>
      <trkpt lat="44.65282" lon="5.95045">
        <ele>1635.82</ele>
        <time>2020-09-10T08:00:07Z</time>
      </trkpt>
      <trkpt lat="44.65282" lon="5.95053">
        <ele>1636.3</ele>
        <time>2020-09-10T08:00:12Z</time>
      </trkpt>
      <trkpt lat="44.65282" lon="5.95067">
        <ele>1636.78</ele>
        <time>2020-09-10T08:00:19Z</time>
      </trkpt>
      <trkpt lat="44.65281" lon="5.95079">
        <ele>1637.74</ele>
        <time>2020-09-10T08:00:27Z</time>
      </trkpt>
      <trkpt lat="44.65281" lon="5.95104">
        <ele>1640.15</ele>
        <time>2020-09-10T08:00:44Z</time>
      </trkpt>
      <trkpt lat="44.65282" lon="5.95107">
        <ele>1640.15</ele>
        <time>2020-09-10T08:00:46Z</time>
      </trkpt>
      <trkpt lat="44.65284" lon="5.95132">
        <ele>1642.07</ele>
        <time>2020-09-10T08:01:03Z</time>
      </trkpt>
      <trkpt lat="44.65287" lon="5.95156">
        <ele>1643.51</ele>
        <time>2020-09-10T08:01:18Z</time>
      </trkpt>
      <trkpt lat="44.65287" lon="5.95162">
        <ele>1643.51</ele>
        <time>2020-09-10T08:01:22Z</time>
      </trkpt>
      <trkpt lat="44.65289" lon="5.95179">
        <ele>1644.95</ele>
        <time>2020-09-10T08:01:34Z</time>
      </trkpt>
      <trkpt lat="44.65293" lon="5.95203">
        <ele>1647.36</ele>
        <time>2020-09-10T08:01:50Z</time>
      </trkpt>
      <trkpt lat="44.65298" lon="5.95223">
        <ele>1648.8</ele>
        <time>2020-09-10T08:02:04Z</time>
      </trkpt>
      <trkpt lat="44.65302" lon="5.95244">
        <ele>1650.24</ele>
        <time>2020-09-10T08:02:19Z</time>
      </trkpt>
      <trkpt lat="44.65309" lon="5.95267">
        <ele>1652.64</ele>
        <time>2020-09-10T08:02:35Z</time>
      </trkpt>
      <trkpt lat="44.6531" lon="5.95269">
        <ele>1652.64</ele>
        <time>2020-09-10T08:02:37Z</time>
      </trkpt>
      <trkpt lat="44.65317" lon="5.95286">
        <ele>1654.09</ele>
        <time>2020-09-10T08:02:50Z</time>
      </trkpt>
      <trkpt lat="44.65323" lon="5.95307">
        <ele>1654.57</ele>
        <time>2020-09-10T08:03:05Z</time>
      </trkpt>
      <trkpt lat="44.65328" lon="5.95319">
        <ele>1655.05</ele>
        <time>2020-09-10T08:03:14Z</time>
      </trkpt>
      <trkpt lat="44.6533" lon="5.95327">
        <ele>1655.05</ele>
        <time>2020-09-10T08:03:19Z</time>
      </trkpt>
      <trkpt lat="44.65336" lon="5.95342">
        <ele>1653.6</ele>
        <time>2020-09-10T08:03:29Z</time>
      </trkpt>
      <trkpt lat="44.65338" lon="5.95349">
        <ele>1653.6</ele>
        <time>2020-09-10T08:03:34Z</time>
      </trkpt>
      <trkpt lat="44.65345" lon="5.95373">
        <ele>1652.16</ele>
        <time>2020-09-10T08:03:50Z</time>
      </trkpt>
      <trkpt lat="44.65352" lon="5.95387">
        <ele>1651.68</ele>
        <time>2020-09-10T08:04:00Z</time>
      </trkpt>
      <trkpt lat="44.65356" lon="5.95396">
        <ele>1650.24</ele>
        <time>2020-09-10T08:04:08Z</time>
      </trkpt>
      <trkpt lat="44.65363" lon="5.95405">
        <ele>1649.76</ele>
        <time>2020-09-10T08:04:18Z</time>
      </trkpt>
      <trkpt lat="44.6537" lon="5.95415">
        <ele>1649.28</ele>
        <time>2020-09-10T08:04:30Z</time>
      </trkpt>
      <trkpt lat="44.65379" lon="5.95429">
        <ele>1648.8</ele>
        <time>2020-09-10T08:04:38Z</time>
      </trkpt>
      <trkpt lat="44.65379" lon="5.95435">
        <ele>1648.8</ele>
        <time>2020-09-10T08:04:42Z</time>
      </trkpt>
      <trkpt lat="44.65381" lon="5.95447">
        <ele>1650.72</ele>
        <time>2020-09-10T08:04:49Z</time>
      </trkpt>
      <trkpt lat="44.65382" lon="5.95453">
        <ele>1650.24</ele>
        <time>2020-09-10T08:04:53Z</time>
      </trkpt>
      <trkpt lat="44.65383" lon="5.95464">
        <ele>1650.72</ele>
        <time>2020-09-10T08:04:59Z</time>
      </trkpt>
      <trkpt lat="44.65394" lon="5.95489">
        <ele>1651.68</ele>
        <time>2020-09-10T08:05:16Z</time>
      </trkpt>
      <trkpt lat="44.65397" lon="5.95503">
        <ele>1651.68</ele>
        <time>2020-09-10T08:05:26Z</time>
      </trkpt>
      <trkpt lat="44.65397" lon="5.95509">
        <ele>1651.68</ele>
        <time>2020-09-10T08:05:30Z</time>
      </trkpt>
      <trkpt lat="44.65396" lon="5.95545">
        <ele>1652.16</ele>
        <time>2020-09-10T08:05:47Z</time>
      </trkpt>
      <trkpt lat="44.65403" lon="5.95569">
        <ele>1652.64</ele>
        <time>2020-09-10T08:06:02Z</time>
      </trkpt>
      <trkpt lat="44.6541" lon="5.95598">
        <ele>1653.12</ele>
        <time>2020-09-10T08:06:19Z</time>
      </trkpt>
      <trkpt lat="44.65412" lon="5.95625">
        <ele>1653.6</ele>
        <time>2020-09-10T08:06:34Z</time>
      </trkpt>
      <trkpt lat="44.6541" lon="5.95647">
        <ele>1653.6</ele>
        <time>2020-09-10T08:06:47Z</time>
      </trkpt>
      <trkpt lat="44.65409" lon="5.95651">
        <ele>1653.6</ele>
        <time>2020-09-10T08:06:49Z</time>
      </trkpt>
      <trkpt lat="44.65408" lon="5.95657">
        <ele>1653.6</ele>
        <time>2020-09-10T08:06:53Z</time>
      </trkpt>
      <trkpt lat="44.65392" lon="5.95681">
        <ele>1654.57</ele>
        <time>2020-09-10T08:07:11Z</time>
      </trkpt>
      <trkpt lat="44.65377" lon="5.95699">
        <ele>1656.01</ele>
        <time>2020-09-10T08:07:29Z</time>
      </trkpt>
      <trkpt lat="44.65368" lon="5.95719">
        <ele>1656.97</ele>
        <time>2020-09-10T08:07:44Z</time>
      </trkpt>
      <trkpt lat="44.65372" lon="5.95749">
        <ele>1658.41</ele>
        <time>2020-09-10T08:08:03Z</time>
      </trkpt>
      <trkpt lat="44.65382" lon="5.95772">
        <ele>1658.41</ele>
        <time>2020-09-10T08:08:19Z</time>
      </trkpt>
      <trkpt lat="44.65394" lon="5.95797">
        <ele>1658.41</ele>
        <time>2020-09-10T08:08:36Z</time>
      </trkpt>
      <trkpt lat="44.65403" lon="5.95819">
        <ele>1656.97</ele>
        <time>2020-09-10T08:08:50Z</time>
      </trkpt>
      <trkpt lat="44.65394" lon="5.95847">
        <ele>1656.97</ele>
        <time>2020-09-10T08:09:06Z</time>
      </trkpt>
      <trkpt lat="44.65394" lon="5.95848">
        <ele>1656.97</ele>
        <time>2020-09-10T08:09:07Z</time>
      </trkpt>
      <trkpt lat="44.65411" lon="5.95872">
        <ele>1656.01</ele>
        <time>2020-09-10T08:09:26Z</time>
      </trkpt>
      <trkpt lat="44.65422" lon="5.9589">
        <ele>1655.53</ele>
        <time>2020-09-10T08:09:42Z</time>
      </trkpt>
      <trkpt lat="44.65424" lon="5.95894">
        <ele>1655.05</ele>
        <time>2020-09-10T08:09:54Z</time>
      </trkpt>
      <trkpt lat="44.65426" lon="5.95908">
        <ele>1654.57</ele>
        <time>2020-09-10T08:10:08Z</time>
      </trkpt>
      <trkpt lat="44.6542" lon="5.95924">
        <ele>1654.57</ele>
        <time>2020-09-10T08:10:22Z</time>
      </trkpt>
      <trkpt lat="44.65421" lon="5.95928">
        <ele>1654.57</ele>
        <time>2020-09-10T08:10:45Z</time>
      </trkpt>
      <trkpt lat="44.6542" lon="5.95928">
        <ele>1654.57</ele>
        <time>2020-09-10T08:11:08Z</time>
      </trkpt>
      <trkpt lat="44.65419" lon="5.95926">
        <ele>1654.57</ele>
        <time>2020-09-10T08:11:24Z</time>
      </trkpt>
      <trkpt lat="44.6542" lon="5.95929">
        <ele>1654.57</ele>
        <time>2020-09-10T08:11:42Z</time>
      </trkpt>
      <trkpt lat="44.65419" lon="5.95933">
        <ele>1654.57</ele>
        <time>2020-09-10T08:11:47Z</time>
      </trkpt>
      <trkpt lat="44.65414" lon="5.95957">
        <ele>1654.09</ele>
        <time>2020-09-10T08:12:04Z</time>
      </trkpt>
      <trkpt lat="44.65413" lon="5.95961">
        <ele>1654.09</ele>
        <time>2020-09-10T08:12:16Z</time>
      </trkpt>
      <trkpt lat="44.65412" lon="5.9597">
        <ele>1654.09</ele>
        <time>2020-09-10T08:12:22Z</time>
      </trkpt>
      <trkpt lat="44.6541" lon="5.95977">
        <ele>1654.09</ele>
        <time>2020-09-10T08:12:27Z</time>
      </trkpt>
      <trkpt lat="44.65405" lon="5.96005">
        <ele>1653.6</ele>
        <time>2020-09-10T08:12:45Z</time>
      </trkpt>
      <trkpt lat="44.65397" lon="5.96033">
        <ele>1653.6</ele>
        <time>2020-09-10T08:13:01Z</time>
      </trkpt>
      <trkpt lat="44.65394" lon="5.96063">
        <ele>1655.05</ele>
        <time>2020-09-10T08:13:19Z</time>
      </trkpt>
      <trkpt lat="44.65381" lon="5.96083">
        <ele>1655.05</ele>
        <time>2020-09-10T08:13:34Z</time>
      </trkpt>
      <trkpt lat="44.65385" lon="5.9611">
        <ele>1655.53</ele>
        <time>2020-09-10T08:13:52Z</time>
      </trkpt>
      <trkpt lat="44.65387" lon="5.96123">
        <ele>1655.53</ele>
        <time>2020-09-10T08:14:00Z</time>
      </trkpt>
      <trkpt lat="44.65378" lon="5.96149">
        <ele>1655.53</ele>
        <time>2020-09-10T08:14:16Z</time>
      </trkpt>
      <trkpt lat="44.65373" lon="5.96163">
        <ele>1655.53</ele>
        <time>2020-09-10T08:14:25Z</time>
      </trkpt>
      <trkpt lat="44.65364" lon="5.96186">
        <ele>1656.97</ele>
        <time>2020-09-10T08:14:42Z</time>
      </trkpt>
      <trkpt lat="44.65372" lon="5.96211">
        <ele>1658.41</ele>
        <time>2020-09-10T08:15:00Z</time>
      </trkpt>
      <trkpt lat="44.65367" lon="5.9624">
        <ele>1659.37</ele>
        <time>2020-09-10T08:15:17Z</time>
      </trkpt>
      <trkpt lat="44.65362" lon="5.96268">
        <ele>1659.85</ele>
        <time>2020-09-10T08:15:34Z</time>
      </trkpt>
      <trkpt lat="44.65363" lon="5.96276">
        <ele>1660.81</ele>
        <time>2020-09-10T08:15:40Z</time>
      </trkpt>
      <trkpt lat="44.65367" lon="5.96279">
        <ele>1661.78</ele>
        <time>2020-09-10T08:15:45Z</time>
      </trkpt>
      <trkpt lat="44.65373" lon="5.96282">
        <ele>1662.26</ele>
        <time>2020-09-10T08:15:50Z</time>
      </trkpt>
      <trkpt lat="44.65391" lon="5.96292">
        <ele>1662.74</ele>
        <time>2020-09-10T08:16:06Z</time>
      </trkpt>
      <trkpt lat="44.65408" lon="5.96299">
        <ele>1663.7</ele>
        <time>2020-09-10T08:16:22Z</time>
      </trkpt>
      <trkpt lat="44.65421" lon="5.96312">
        <ele>1664.66</ele>
        <time>2020-09-10T08:16:36Z</time>
      </trkpt>
      <trkpt lat="44.65425" lon="5.96315">
        <ele>1664.66</ele>
        <time>2020-09-10T08:16:41Z</time>
      </trkpt>
      <trkpt lat="44.65438" lon="5.9632">
        <ele>1665.62</ele>
        <time>2020-09-10T08:16:55Z</time>
      </trkpt>
      <trkpt lat="44.65437" lon="5.96325">
        <ele>1665.62</ele>
        <time>2020-09-10T08:17:19Z</time>
      </trkpt>
      <trkpt lat="44.65438" lon="5.96325">
        <ele>1665.62</ele>
        <time>2020-09-10T08:17:37Z</time>
      </trkpt>
      <trkpt lat="44.65437" lon="5.96327">
        <ele>1665.62</ele>
        <time>2020-09-10T08:17:51Z</time>
      </trkpt>
      <trkpt lat="44.65435" lon="5.9633">
        <ele>1665.62</ele>
        <time>2020-09-10T08:17:56Z</time>
      </trkpt>
      <trkpt lat="44.65435" lon="5.96346">
        <ele>1665.62</ele>
        <time>2020-09-10T08:18:06Z</time>
      </trkpt>
      <trkpt lat="44.65432" lon="5.96362">
        <ele>1666.58</ele>
        <time>2020-09-10T08:18:21Z</time>
      </trkpt>
      <trkpt lat="44.6543" lon="5.96374">
        <ele>1668.02</ele>
        <time>2020-09-10T08:18:31Z</time>
      </trkpt>
      <trkpt lat="44.6543" lon="5.96385">
        <ele>1668.51</ele>
        <time>2020-09-10T08:18:38Z</time>
      </trkpt>
      <trkpt lat="44.65425" lon="5.96412">
        <ele>1669.47</ele>
        <time>2020-09-10T08:18:55Z</time>
      </trkpt>
      <trkpt lat="44.65413" lon="5.96432">
        <ele>1670.43</ele>
        <time>2020-09-10T08:19:10Z</time>
      </trkpt>
      <trkpt lat="44.65403" lon="5.96455">
        <ele>1672.83</ele>
        <time>2020-09-10T08:19:26Z</time>
      </trkpt>
      <trkpt lat="44.65404" lon="5.96461">
        <ele>1673.79</ele>
        <time>2020-09-10T08:19:31Z</time>
      </trkpt>
      <trkpt lat="44.65406" lon="5.96467">
        <ele>1673.79</ele>
        <time>2020-09-10T08:19:35Z</time>
      </trkpt>
      <trkpt lat="44.65418" lon="5.96483">
        <ele>1675.23</ele>
        <time>2020-09-10T08:19:50Z</time>
      </trkpt>
      <trkpt lat="44.65424" lon="5.96506">
        <ele>1676.2</ele>
        <time>2020-09-10T08:20:06Z</time>
      </trkpt>
      <trkpt lat="44.65421" lon="5.96533">
        <ele>1678.12</ele>
        <time>2020-09-10T08:20:22Z</time>
      </trkpt>
      <trkpt lat="44.6542" lon="5.96541">
        <ele>1678.6</ele>
        <time>2020-09-10T08:20:26Z</time>
      </trkpt>
      <trkpt lat="44.65409" lon="5.96563">
        <ele>1680.52</ele>
        <time>2020-09-10T08:20:42Z</time>
      </trkpt>
      <trkpt lat="44.65391" lon="5.96571">
        <ele>1682.93</ele>
        <time>2020-09-10T08:20:59Z</time>
      </trkpt>
      <trkpt lat="44.65388" lon="5.96573">
        <ele>1683.41</ele>
        <time>2020-09-10T08:21:02Z</time>
      </trkpt>
      <trkpt lat="44.65378" lon="5.9658">
        <ele>1683.89</ele>
        <time>2020-09-10T08:21:12Z</time>
      </trkpt>
      <trkpt lat="44.65374" lon="5.96586">
        <ele>1684.37</ele>
        <time>2020-09-10T08:21:18Z</time>
      </trkpt>
      <trkpt lat="44.65367" lon="5.96614">
        <ele>1685.81</ele>
        <time>2020-09-10T08:21:36Z</time>
      </trkpt>
      <trkpt lat="44.65368" lon="5.96634">
        <ele>1688.21</ele>
        <time>2020-09-10T08:21:51Z</time>
      </trkpt>
      <trkpt lat="44.65369" lon="5.96646">
        <ele>1688.69</ele>
        <time>2020-09-10T08:21:59Z</time>
      </trkpt>
      <trkpt lat="44.65367" lon="5.96677">
        <ele>1691.1</ele>
        <time>2020-09-10T08:22:18Z</time>
      </trkpt>
      <trkpt lat="44.65366" lon="5.96703">
        <ele>1693.5</ele>
        <time>2020-09-10T08:22:35Z</time>
      </trkpt>
      <trkpt lat="44.65365" lon="5.96707">
        <ele>1694.46</ele>
        <time>2020-09-10T08:22:38Z</time>
      </trkpt>
      <trkpt lat="44.65362" lon="5.96715">
        <ele>1694.46</ele>
        <time>2020-09-10T08:22:42Z</time>
      </trkpt>
      <trkpt lat="44.65351" lon="5.96739">
        <ele>1696.38</ele>
        <time>2020-09-10T08:23:02Z</time>
      </trkpt>
      <trkpt lat="44.65345" lon="5.9675">
        <ele>1697.83</ele>
        <time>2020-09-10T08:23:11Z</time>
      </trkpt>
      <trkpt lat="44.65337" lon="5.9677">
        <ele>1698.79</ele>
        <time>2020-09-10T08:23:26Z</time>
      </trkpt>
      <trkpt lat="44.65331" lon="5.96781">
        <ele>1699.27</ele>
        <time>2020-09-10T08:23:41Z</time>
      </trkpt>
      <trkpt lat="44.65319" lon="5.96789">
        <ele>1699.75</ele>
        <time>2020-09-10T08:23:57Z</time>
      </trkpt>
      <trkpt lat="44.65318" lon="5.96788">
        <ele>1699.75</ele>
        <time>2020-09-10T08:23:58Z</time>
      </trkpt>
      <trkpt lat="44.65301" lon="5.96783">
        <ele>1699.75</ele>
        <time>2020-09-10T08:24:09Z</time>
      </trkpt>
      <trkpt lat="44.65294" lon="5.96794">
        <ele>1701.67</ele>
        <time>2020-09-10T08:24:24Z</time>
      </trkpt>
      <trkpt lat="44.65286" lon="5.96806">
        <ele>1703.59</ele>
        <time>2020-09-10T08:24:37Z</time>
      </trkpt>
      <trkpt lat="44.65276" lon="5.96818">
        <ele>1705.52</ele>
        <time>2020-09-10T08:24:49Z</time>
      </trkpt>
      <trkpt lat="44.65266" lon="5.96836">
        <ele>1706.48</ele>
        <time>2020-09-10T08:25:05Z</time>
      </trkpt>
      <trkpt lat="44.65255" lon="5.96853">
        <ele>1708.4</ele>
        <time>2020-09-10T08:25:20Z</time>
      </trkpt>
      <trkpt lat="44.65242" lon="5.96863">
        <ele>1710.8</ele>
        <time>2020-09-10T08:25:37Z</time>
      </trkpt>
      <trkpt lat="44.6523" lon="5.96881">
        <ele>1711.76</ele>
        <time>2020-09-10T08:25:54Z</time>
      </trkpt>
      <trkpt lat="44.65222" lon="5.96899">
        <ele>1713.21</ele>
        <time>2020-09-10T08:26:07Z</time>
      </trkpt>
      <trkpt lat="44.65214" lon="5.96911">
        <ele>1714.65</ele>
        <time>2020-09-10T08:26:20Z</time>
      </trkpt>
      <trkpt lat="44.65206" lon="5.96919">
        <ele>1715.13</ele>
        <time>2020-09-10T08:26:29Z</time>
      </trkpt>
      <trkpt lat="44.65193" lon="5.96935">
        <ele>1717.53</ele>
        <time>2020-09-10T08:26:46Z</time>
      </trkpt>
      <trkpt lat="44.65183" lon="5.96947">
        <ele>1718.97</ele>
        <time>2020-09-10T08:27:00Z</time>
      </trkpt>
      <trkpt lat="44.65165" lon="5.96953">
        <ele>1720.42</ele>
        <time>2020-09-10T08:27:18Z</time>
      </trkpt>
      <trkpt lat="44.65151" lon="5.96953">
        <ele>1723.3</ele>
        <time>2020-09-10T08:27:34Z</time>
      </trkpt>
      <trkpt lat="44.65144" lon="5.9696">
        <ele>1725.7</ele>
        <time>2020-09-10T08:27:46Z</time>
      </trkpt>
      <trkpt lat="44.65132" lon="5.96964">
        <ele>1728.11</ele>
        <time>2020-09-10T08:27:58Z</time>
      </trkpt>
      <trkpt lat="44.65124" lon="5.96968">
        <ele>1729.07</ele>
        <time>2020-09-10T08:28:07Z</time>
      </trkpt>
      <trkpt lat="44.65113" lon="5.96971">
        <ele>1731.95</ele>
        <time>2020-09-10T08:28:20Z</time>
      </trkpt>
      <trkpt lat="44.65102" lon="5.96974">
        <ele>1733.88</ele>
        <time>2020-09-10T08:28:34Z</time>
      </trkpt>
      <trkpt lat="44.65088" lon="5.96985">
        <ele>1736.76</ele>
        <time>2020-09-10T08:28:51Z</time>
      </trkpt>
      <trkpt lat="44.65071" lon="5.96994">
        <ele>1738.68</ele>
        <time>2020-09-10T08:29:09Z</time>
      </trkpt>
      <trkpt lat="44.65063" lon="5.97004">
        <ele>1739.64</ele>
        <time>2020-09-10T08:29:21Z</time>
      </trkpt>
      <trkpt lat="44.65063" lon="5.97026">
        <ele>1740.6</ele>
        <time>2020-09-10T08:29:38Z</time>
      </trkpt>
      <trkpt lat="44.65061" lon="5.97036">
        <ele>1741.57</ele>
        <time>2020-09-10T08:29:48Z</time>
      </trkpt>
      <trkpt lat="44.65057" lon="5.97043">
        <ele>1740.6</ele>
        <time>2020-09-10T08:29:56Z</time>
      </trkpt>
      <trkpt lat="44.6505" lon="5.97057">
        <ele>1739.16</ele>
        <time>2020-09-10T08:30:10Z</time>
      </trkpt>
      <trkpt lat="44.65048" lon="5.9706">
        <ele>1738.68</ele>
        <time>2020-09-10T08:30:13Z</time>
      </trkpt>
      <trkpt lat="44.65036" lon="5.97075">
        <ele>1736.76</ele>
        <time>2020-09-10T08:30:29Z</time>
      </trkpt>
      <trkpt lat="44.65034" lon="5.97077">
        <ele>1736.28</ele>
        <time>2020-09-10T08:30:31Z</time>
      </trkpt>
      <trkpt lat="44.65031" lon="5.97087">
        <ele>1735.32</ele>
        <time>2020-09-10T08:30:37Z</time>
      </trkpt>
      <trkpt lat="44.65025" lon="5.97096">
        <ele>1735.8</ele>
        <time>2020-09-10T08:30:45Z</time>
      </trkpt>
      <trkpt lat="44.65015" lon="5.97122">
        <ele>1733.39</ele>
        <time>2020-09-10T08:31:02Z</time>
      </trkpt>
      <trkpt lat="44.65009" lon="5.97147">
        <ele>1731.47</ele>
        <time>2020-09-10T08:31:18Z</time>
      </trkpt>
      <trkpt lat="44.65008" lon="5.97152">
        <ele>1731.47</ele>
        <time>2020-09-10T08:31:31Z</time>
      </trkpt>
      <trkpt lat="44.65008" lon="5.97152">
        <ele>1730.99</ele>
        <time>2020-09-10T08:31:47Z</time>
      </trkpt>
      <trkpt lat="44.65005" lon="5.97154">
        <ele>1731.95</ele>
        <time>2020-09-10T08:32:08Z</time>
      </trkpt>
      <trkpt lat="44.65003" lon="5.9715">
        <ele>1731.95</ele>
        <time>2020-09-10T08:32:25Z</time>
      </trkpt>
      <trkpt lat="44.65006" lon="5.9715">
        <ele>1731.95</ele>
        <time>2020-09-10T08:32:45Z</time>
      </trkpt>
      <trkpt lat="44.65007" lon="5.9715">
        <ele>1731.95</ele>
        <time>2020-09-10T08:33:14Z</time>
      </trkpt>
      <trkpt lat="44.65006" lon="5.97151">
        <ele>1731.95</ele>
        <time>2020-09-10T08:33:37Z</time>
      </trkpt>
      <trkpt lat="44.65006" lon="5.97148">
        <ele>1731.95</ele>
        <time>2020-09-10T08:34:04Z</time>
      </trkpt>
      <trkpt lat="44.65006" lon="5.97151">
        <ele>1731.47</ele>
        <time>2020-09-10T08:34:33Z</time>
      </trkpt>
      <trkpt lat="44.65004" lon="5.9715">
        <ele>1730.99</ele>
        <time>2020-09-10T08:34:53Z</time>
      </trkpt>
      <trkpt lat="44.65007" lon="5.97155">
        <ele>1730.51</ele>
        <time>2020-09-10T08:35:10Z</time>
      </trkpt>
      <trkpt lat="44.65005" lon="5.97155">
        <ele>1731.95</ele>
        <time>2020-09-10T08:35:20Z</time>
      </trkpt>
      <trkpt lat="44.65006" lon="5.97155">
        <ele>1730.51</ele>
        <time>2020-09-10T08:35:22Z</time>
      </trkpt>
      <trkpt lat="44.65006" lon="5.97154">
        <ele>1730.51</ele>
        <time>2020-09-10T08:35:55Z</time>
      </trkpt>
      <trkpt lat="44.65006" lon="5.97154">
        <ele>1732.43</ele>
        <time>2020-09-10T08:36:06Z</time>
      </trkpt>
      <trkpt lat="44.65006" lon="5.97152">
        <ele>1730.99</ele>
        <time>2020-09-10T08:36:34Z</time>
      </trkpt>
      <trkpt lat="44.65005" lon="5.97157">
        <ele>1730.51</ele>
        <time>2020-09-10T08:36:50Z</time>
      </trkpt>
      <trkpt lat="44.65008" lon="5.97161">
        <ele>1730.51</ele>
        <time>2020-09-10T08:37:13Z</time>
      </trkpt>
      <trkpt lat="44.65002" lon="5.97175">
        <ele>1730.51</ele>
        <time>2020-09-10T08:37:29Z</time>
      </trkpt>
      <trkpt lat="44.64992" lon="5.97191">
        <ele>1730.51</ele>
        <time>2020-09-10T08:37:43Z</time>
      </trkpt>
      <trkpt lat="44.64983" lon="5.97213">
        <ele>1730.51</ele>
        <time>2020-09-10T08:37:59Z</time>
      </trkpt>
      <trkpt lat="44.64972" lon="5.9724">
        <ele>1731.95</ele>
        <time>2020-09-10T08:38:17Z</time>
      </trkpt>
      <trkpt lat="44.64967" lon="5.97253">
        <ele>1732.91</ele>
        <time>2020-09-10T08:38:26Z</time>
      </trkpt>
      <trkpt lat="44.64958" lon="5.97276">
        <ele>1732.91</ele>
        <time>2020-09-10T08:38:44Z</time>
      </trkpt>
      <trkpt lat="44.64956" lon="5.97279">
        <ele>1733.88</ele>
        <time>2020-09-10T08:38:47Z</time>
      </trkpt>
      <trkpt lat="44.64952" lon="5.97286">
        <ele>1733.88</ele>
        <time>2020-09-10T08:38:54Z</time>
      </trkpt>
      <trkpt lat="44.6494" lon="5.97297">
        <ele>1736.76</ele>
        <time>2020-09-10T08:39:09Z</time>
      </trkpt>
      <trkpt lat="44.64933" lon="5.97308">
        <ele>1739.16</ele>
        <time>2020-09-10T08:39:23Z</time>
      </trkpt>
      <trkpt lat="44.64928" lon="5.97319">
        <ele>1742.05</ele>
        <time>2020-09-10T08:39:37Z</time>
      </trkpt>
      <trkpt lat="44.64926" lon="5.97324">
        <ele>1743.01</ele>
        <time>2020-09-10T08:39:43Z</time>
      </trkpt>
      <trkpt lat="44.64923" lon="5.9733">
        <ele>1744.93</ele>
        <time>2020-09-10T08:40:00Z</time>
      </trkpt>
      <trkpt lat="44.64922" lon="5.97338">
        <ele>1746.37</ele>
        <time>2020-09-10T08:40:08Z</time>
      </trkpt>
      <trkpt lat="44.64915" lon="5.97352">
        <ele>1749.26</ele>
        <time>2020-09-10T08:40:23Z</time>
      </trkpt>
      <trkpt lat="44.64911" lon="5.97359">
        <ele>1750.7</ele>
        <time>2020-09-10T08:40:36Z</time>
      </trkpt>
      <trkpt lat="44.64902" lon="5.97361">
        <ele>1754.06</ele>
        <time>2020-09-10T08:40:51Z</time>
      </trkpt>
      <trkpt lat="44.64901" lon="5.97362">
        <ele>1754.06</ele>
        <time>2020-09-10T08:40:55Z</time>
      </trkpt>
      <trkpt lat="44.64895" lon="5.97371">
        <ele>1755.99</ele>
        <time>2020-09-10T08:41:09Z</time>
      </trkpt>
      <trkpt lat="44.64888" lon="5.9738">
        <ele>1759.35</ele>
        <time>2020-09-10T08:41:23Z</time>
      </trkpt>
      <trkpt lat="44.64877" lon="5.97384">
        <ele>1761.75</ele>
        <time>2020-09-10T08:41:36Z</time>
      </trkpt>
      <trkpt lat="44.64862" lon="5.97392">
        <ele>1764.64</ele>
        <time>2020-09-10T08:41:54Z</time>
      </trkpt>
      <trkpt lat="44.64853" lon="5.9739">
        <ele>1765.6</ele>
        <time>2020-09-10T08:42:03Z</time>
      </trkpt>
      <trkpt lat="44.64838" lon="5.97401">
        <ele>1766.56</ele>
        <time>2020-09-10T08:42:20Z</time>
      </trkpt>
      <trkpt lat="44.64827" lon="5.97413">
        <ele>1768.48</ele>
        <time>2020-09-10T08:42:36Z</time>
      </trkpt>
      <trkpt lat="44.64819" lon="5.97418">
        <ele>1769.44</ele>
        <time>2020-09-10T08:42:45Z</time>
      </trkpt>
      <trkpt lat="44.64808" lon="5.97416">
        <ele>1771.37</ele>
        <time>2020-09-10T08:42:57Z</time>
      </trkpt>
      <trkpt lat="44.64796" lon="5.97424">
        <ele>1772.33</ele>
        <time>2020-09-10T08:43:12Z</time>
      </trkpt>
      <trkpt lat="44.64786" lon="5.97436">
        <ele>1773.77</ele>
        <time>2020-09-10T08:43:27Z</time>
      </trkpt>
      <trkpt lat="44.64773" lon="5.97439">
        <ele>1776.17</ele>
        <time>2020-09-10T08:43:42Z</time>
      </trkpt>
      <trkpt lat="44.6476" lon="5.97442">
        <ele>1777.61</ele>
        <time>2020-09-10T08:43:58Z</time>
      </trkpt>
      <trkpt lat="44.64753" lon="5.97446">
        <ele>1778.1</ele>
        <time>2020-09-10T08:44:06Z</time>
      </trkpt>
      <trkpt lat="44.64742" lon="5.97444">
        <ele>1779.06</ele>
        <time>2020-09-10T08:44:17Z</time>
      </trkpt>
      <trkpt lat="44.64729" lon="5.9745">
        <ele>1780.02</ele>
        <time>2020-09-10T08:44:32Z</time>
      </trkpt>
      <trkpt lat="44.64718" lon="5.97464">
        <ele>1780.98</ele>
        <time>2020-09-10T08:44:48Z</time>
      </trkpt>
      <trkpt lat="44.64714" lon="5.97474">
        <ele>1782.42</ele>
        <time>2020-09-10T08:45:02Z</time>
      </trkpt>
      <trkpt lat="44.64712" lon="5.97476">
        <ele>1782.42</ele>
        <time>2020-09-10T08:45:20Z</time>
      </trkpt>
      <trkpt lat="44.64707" lon="5.97486">
        <ele>1783.38</ele>
        <time>2020-09-10T08:45:38Z</time>
      </trkpt>
      <trkpt lat="44.64702" lon="5.97494">
        <ele>1784.34</ele>
        <time>2020-09-10T08:45:47Z</time>
      </trkpt>
      <trkpt lat="44.64693" lon="5.97504">
        <ele>1787.71</ele>
        <time>2020-09-10T08:46:02Z</time>
      </trkpt>
      <trkpt lat="44.64688" lon="5.9751">
        <ele>1788.67</ele>
        <time>2020-09-10T08:46:10Z</time>
      </trkpt>
      <trkpt lat="44.64683" lon="5.97518">
        <ele>1790.11</ele>
        <time>2020-09-10T08:46:23Z</time>
      </trkpt>
      <trkpt lat="44.64676" lon="5.97531">
        <ele>1793</ele>
        <time>2020-09-10T08:46:39Z</time>
      </trkpt>
      <trkpt lat="44.64668" lon="5.97542">
        <ele>1795.4</ele>
        <time>2020-09-10T08:46:54Z</time>
      </trkpt>
      <trkpt lat="44.64659" lon="5.97561">
        <ele>1797.32</ele>
        <time>2020-09-10T08:47:12Z</time>
      </trkpt>
      <trkpt lat="44.64651" lon="5.97569">
        <ele>1799.24</ele>
        <time>2020-09-10T08:47:25Z</time>
      </trkpt>
      <trkpt lat="44.64636" lon="5.97575">
        <ele>1801.65</ele>
        <time>2020-09-10T08:47:42Z</time>
      </trkpt>
      <trkpt lat="44.64622" lon="5.97579">
        <ele>1804.05</ele>
        <time>2020-09-10T08:47:58Z</time>
      </trkpt>
      <trkpt lat="44.64612" lon="5.97584">
        <ele>1804.53</ele>
        <time>2020-09-10T08:48:14Z</time>
      </trkpt>
      <trkpt lat="44.64608" lon="5.97585">
        <ele>1805.01</ele>
        <time>2020-09-10T08:48:29Z</time>
      </trkpt>
      <trkpt lat="44.64608" lon="5.97585">
        <ele>1805.49</ele>
        <time>2020-09-10T08:48:47Z</time>
      </trkpt>
      <trkpt lat="44.64609" lon="5.97584">
        <ele>1805.97</ele>
        <time>2020-09-10T08:49:11Z</time>
      </trkpt>
      <trkpt lat="44.64609" lon="5.97584">
        <ele>1805.97</ele>
        <time>2020-09-10T08:49:28Z</time>
      </trkpt>
      <trkpt lat="44.64607" lon="5.97585">
        <ele>1805.97</ele>
        <time>2020-09-10T08:49:51Z</time>
      </trkpt>
      <trkpt lat="44.64608" lon="5.97583">
        <ele>1805.97</ele>
        <time>2020-09-10T08:50:16Z</time>
      </trkpt>
      <trkpt lat="44.64608" lon="5.97581">
        <ele>1805.97</ele>
        <time>2020-09-10T08:50:49Z</time>
      </trkpt>
      <trkpt lat="44.64608" lon="5.97581">
        <ele>1805.97</ele>
        <time>2020-09-10T08:51:20Z</time>
      </trkpt>
      <trkpt lat="44.64608" lon="5.97585">
        <ele>1805.97</ele>
        <time>2020-09-10T08:51:45Z</time>
      </trkpt>
      <trkpt lat="44.64608" lon="5.97583">
        <ele>1805.97</ele>
        <time>2020-09-10T08:52:24Z</time>
      </trkpt>
      <trkpt lat="44.64609" lon="5.97583">
        <ele>1805.97</ele>
        <time>2020-09-10T08:52:55Z</time>
      </trkpt>
      <trkpt lat="44.64609" lon="5.97582">
        <ele>1805.97</ele>
        <time>2020-09-10T08:53:23Z</time>
      </trkpt>
      <trkpt lat="44.64602" lon="5.9759">
        <ele>1805.97</ele>
        <time>2020-09-10T08:53:45Z</time>
      </trkpt>
      <trkpt lat="44.6459" lon="5.97595">
        <ele>1808.38</ele>
        <time>2020-09-10T08:53:59Z</time>
      </trkpt>
      <trkpt lat="44.6458" lon="5.976">
        <ele>1811.74</ele>
        <time>2020-09-10T08:54:13Z</time>
      </trkpt>
      <trkpt lat="44.64574" lon="5.97605">
        <ele>1814.63</ele>
        <time>2020-09-10T08:54:25Z</time>
      </trkpt>
      <trkpt lat="44.64568" lon="5.97612">
        <ele>1816.07</ele>
        <time>2020-09-10T08:54:37Z</time>
      </trkpt>
      <trkpt lat="44.64559" lon="5.97629">
        <ele>1817.51</ele>
        <time>2020-09-10T08:54:54Z</time>
      </trkpt>
      <trkpt lat="44.64553" lon="5.97643">
        <ele>1818.47</ele>
        <time>2020-09-10T08:55:09Z</time>
      </trkpt>
      <trkpt lat="44.64546" lon="5.97655">
        <ele>1820.39</ele>
        <time>2020-09-10T08:55:25Z</time>
      </trkpt>
      <trkpt lat="44.64541" lon="5.97666">
        <ele>1822.8</ele>
        <time>2020-09-10T08:55:39Z</time>
      </trkpt>
      <trkpt lat="44.64536" lon="5.97679">
        <ele>1825.2</ele>
        <time>2020-09-10T08:55:55Z</time>
      </trkpt>
      <trkpt lat="44.64532" lon="5.97692">
        <ele>1825.68</ele>
        <time>2020-09-10T08:56:08Z</time>
      </trkpt>
      <trkpt lat="44.64527" lon="5.97707">
        <ele>1828.56</ele>
        <time>2020-09-10T08:56:24Z</time>
      </trkpt>
      <trkpt lat="44.64523" lon="5.97718">
        <ele>1830.49</ele>
        <time>2020-09-10T08:56:38Z</time>
      </trkpt>
      <trkpt lat="44.64518" lon="5.97733">
        <ele>1833.37</ele>
        <time>2020-09-10T08:56:54Z</time>
      </trkpt>
      <trkpt lat="44.64511" lon="5.97745">
        <ele>1836.26</ele>
        <time>2020-09-10T08:57:10Z</time>
      </trkpt>
      <trkpt lat="44.64502" lon="5.97757">
        <ele>1837.22</ele>
        <time>2020-09-10T08:57:25Z</time>
      </trkpt>
      <trkpt lat="44.64491" lon="5.97768">
        <ele>1840.58</ele>
        <time>2020-09-10T08:57:42Z</time>
      </trkpt>
      <trkpt lat="44.64486" lon="5.97769">
        <ele>1842.02</ele>
        <time>2020-09-10T08:57:50Z</time>
      </trkpt>
      <trkpt lat="44.64475" lon="5.97775">
        <ele>1844.91</ele>
        <time>2020-09-10T08:58:06Z</time>
      </trkpt>
      <trkpt lat="44.64464" lon="5.9778">
        <ele>1846.83</ele>
        <time>2020-09-10T08:58:21Z</time>
      </trkpt>
      <trkpt lat="44.64453" lon="5.97789">
        <ele>1849.71</ele>
        <time>2020-09-10T08:58:37Z</time>
      </trkpt>
      <trkpt lat="44.64444" lon="5.97795">
        <ele>1851.16</ele>
        <time>2020-09-10T08:58:54Z</time>
      </trkpt>
      <trkpt lat="44.64442" lon="5.97799">
        <ele>1852.6</ele>
        <time>2020-09-10T08:59:01Z</time>
      </trkpt>
      <trkpt lat="44.6443" lon="5.97806">
        <ele>1855</ele>
        <time>2020-09-10T08:59:16Z</time>
      </trkpt>
      <trkpt lat="44.64417" lon="5.97813">
        <ele>1857.89</ele>
        <time>2020-09-10T08:59:34Z</time>
      </trkpt>
      <trkpt lat="44.64407" lon="5.97825">
        <ele>1860.77</ele>
        <time>2020-09-10T08:59:51Z</time>
      </trkpt>
      <trkpt lat="44.64396" lon="5.97839">
        <ele>1861.25</ele>
        <time>2020-09-10T09:00:05Z</time>
      </trkpt>
      <trkpt lat="44.64383" lon="5.97849">
        <ele>1863.17</ele>
        <time>2020-09-10T09:00:20Z</time>
      </trkpt>
      <trkpt lat="44.64373" lon="5.97857">
        <ele>1864.13</ele>
        <time>2020-09-10T09:00:33Z</time>
      </trkpt>
      <trkpt lat="44.64362" lon="5.97863">
        <ele>1865.58</ele>
        <time>2020-09-10T09:00:46Z</time>
      </trkpt>
      <trkpt lat="44.64354" lon="5.9787">
        <ele>1866.06</ele>
        <time>2020-09-10T09:00:56Z</time>
      </trkpt>
      <trkpt lat="44.64346" lon="5.97876">
        <ele>1866.54</ele>
        <time>2020-09-10T09:01:04Z</time>
      </trkpt>
      <trkpt lat="44.64331" lon="5.97883">
        <ele>1867.5</ele>
        <time>2020-09-10T09:01:18Z</time>
      </trkpt>
      <trkpt lat="44.64313" lon="5.9789">
        <ele>1868.46</ele>
        <time>2020-09-10T09:01:35Z</time>
      </trkpt>
      <trkpt lat="44.64312" lon="5.97891">
        <ele>1868.46</ele>
        <time>2020-09-10T09:01:36Z</time>
      </trkpt>
      <trkpt lat="44.64299" lon="5.97902">
        <ele>1870.38</ele>
        <time>2020-09-10T09:01:51Z</time>
      </trkpt>
      <trkpt lat="44.64287" lon="5.97915">
        <ele>1871.82</ele>
        <time>2020-09-10T09:02:06Z</time>
      </trkpt>
      <trkpt lat="44.64277" lon="5.97929">
        <ele>1873.27</ele>
        <time>2020-09-10T09:02:20Z</time>
      </trkpt>
      <trkpt lat="44.64265" lon="5.97939">
        <ele>1874.23</ele>
        <time>2020-09-10T09:02:34Z</time>
      </trkpt>
      <trkpt lat="44.64253" lon="5.97959">
        <ele>1876.63</ele>
        <time>2020-09-10T09:02:55Z</time>
      </trkpt>
      <trkpt lat="44.64248" lon="5.9797">
        <ele>1877.11</ele>
        <time>2020-09-10T09:03:05Z</time>
      </trkpt>
      <trkpt lat="44.64257" lon="5.97981">
        <ele>1879.03</ele>
        <time>2020-09-10T09:03:19Z</time>
      </trkpt>
      <trkpt lat="44.64257" lon="5.97986">
        <ele>1879.51</ele>
        <time>2020-09-10T09:03:33Z</time>
      </trkpt>
      <trkpt lat="44.64257" lon="5.97988">
        <ele>1880</ele>
        <time>2020-09-10T09:03:35Z</time>
      </trkpt>
      <trkpt lat="44.6425" lon="5.97991">
        <ele>1880</ele>
        <time>2020-09-10T09:03:45Z</time>
      </trkpt>
      <trkpt lat="44.64242" lon="5.98002">
        <ele>1881.44</ele>
        <time>2020-09-10T09:03:56Z</time>
      </trkpt>
      <trkpt lat="44.6423" lon="5.98019">
        <ele>1882.4</ele>
        <time>2020-09-10T09:04:11Z</time>
      </trkpt>
      <trkpt lat="44.6422" lon="5.98038">
        <ele>1883.84</ele>
        <time>2020-09-10T09:04:26Z</time>
      </trkpt>
      <trkpt lat="44.64208" lon="5.9806">
        <ele>1884.8</ele>
        <time>2020-09-10T09:04:42Z</time>
      </trkpt>
      <trkpt lat="44.64202" lon="5.98074">
        <ele>1884.8</ele>
        <time>2020-09-10T09:04:52Z</time>
      </trkpt>
      <trkpt lat="44.64198" lon="5.98075">
        <ele>1884.8</ele>
        <time>2020-09-10T09:04:56Z</time>
      </trkpt>
      <trkpt lat="44.64186" lon="5.98088">
        <ele>1884.8</ele>
        <time>2020-09-10T09:05:10Z</time>
      </trkpt>
      <trkpt lat="44.64184" lon="5.98089">
        <ele>1884.8</ele>
        <time>2020-09-10T09:05:26Z</time>
      </trkpt>
      <trkpt lat="44.64188" lon="5.98089">
        <ele>1884.8</ele>
        <time>2020-09-10T09:05:42Z</time>
      </trkpt>
      <trkpt lat="44.64207" lon="5.98075">
        <ele>1884.8</ele>
        <time>2020-09-10T09:06:02Z</time>
      </trkpt>
      <trkpt lat="44.64213" lon="5.98069">
        <ele>1884.8</ele>
        <time>2020-09-10T09:06:19Z</time>
      </trkpt>
      <trkpt lat="44.64225" lon="5.98061">
        <ele>1884.8</ele>
        <time>2020-09-10T09:06:34Z</time>
      </trkpt>
      <trkpt lat="44.64235" lon="5.98051">
        <ele>1884.8</ele>
        <time>2020-09-10T09:06:49Z</time>
      </trkpt>
      <trkpt lat="44.64244" lon="5.98042">
        <ele>1884.8</ele>
        <time>2020-09-10T09:07:02Z</time>
      </trkpt>
      <trkpt lat="44.64254" lon="5.98038">
        <ele>1884.8</ele>
        <time>2020-09-10T09:07:17Z</time>
      </trkpt>
      <trkpt lat="44.64257" lon="5.98044">
        <ele>1884.8</ele>
        <time>2020-09-10T09:07:30Z</time>
      </trkpt>
      <trkpt lat="44.64262" lon="5.98058">
        <ele>1886.24</ele>
        <time>2020-09-10T09:07:46Z</time>
      </trkpt>
      <trkpt lat="44.64264" lon="5.98068">
        <ele>1887.21</ele>
        <time>2020-09-10T09:08:00Z</time>
      </trkpt>
      <trkpt lat="44.64267" lon="5.98075">
        <ele>1888.17</ele>
        <time>2020-09-10T09:08:18Z</time>
      </trkpt>
      <trkpt lat="44.64275" lon="5.98089">
        <ele>1889.13</ele>
        <time>2020-09-10T09:08:34Z</time>
      </trkpt>
      <trkpt lat="44.64289" lon="5.98092">
        <ele>1891.05</ele>
        <time>2020-09-10T09:08:52Z</time>
      </trkpt>
      <trkpt lat="44.64299" lon="5.9809">
        <ele>1892.49</ele>
        <time>2020-09-10T09:09:09Z</time>
      </trkpt>
      <trkpt lat="44.64306" lon="5.98087">
        <ele>1892.97</ele>
        <time>2020-09-10T09:09:19Z</time>
      </trkpt>
      <trkpt lat="44.64318" lon="5.98091">
        <ele>1894.9</ele>
        <time>2020-09-10T09:09:36Z</time>
      </trkpt>
      <trkpt lat="44.64321" lon="5.98092">
        <ele>1895.38</ele>
        <time>2020-09-10T09:09:39Z</time>
      </trkpt>
      <trkpt lat="44.64332" lon="5.98099">
        <ele>1896.34</ele>
        <time>2020-09-10T09:09:53Z</time>
      </trkpt>
      <trkpt lat="44.64343" lon="5.98097">
        <ele>1896.82</ele>
        <time>2020-09-10T09:10:04Z</time>
      </trkpt>
      <trkpt lat="44.64347" lon="5.9811">
        <ele>1898.74</ele>
        <time>2020-09-10T09:10:19Z</time>
      </trkpt>
      <trkpt lat="44.64346" lon="5.98113">
        <ele>1899.22</ele>
        <time>2020-09-10T09:10:21Z</time>
      </trkpt>
      <trkpt lat="44.64349" lon="5.98128">
        <ele>1902.59</ele>
        <time>2020-09-10T09:10:37Z</time>
      </trkpt>
      <trkpt lat="44.64354" lon="5.98136">
        <ele>1903.07</ele>
        <time>2020-09-10T09:10:51Z</time>
      </trkpt>
      <trkpt lat="44.64354" lon="5.98136">
        <ele>1903.55</ele>
        <time>2020-09-10T09:11:16Z</time>
      </trkpt>
      <trkpt lat="44.64359" lon="5.98137">
        <ele>1903.55</ele>
        <time>2020-09-10T09:11:38Z</time>
      </trkpt>
      <trkpt lat="44.64361" lon="5.98137">
        <ele>1903.55</ele>
        <time>2020-09-10T09:11:40Z</time>
      </trkpt>
      <trkpt lat="44.6437" lon="5.98133">
        <ele>1903.55</ele>
        <time>2020-09-10T09:11:49Z</time>
      </trkpt>
      <trkpt lat="44.64383" lon="5.98137">
        <ele>1904.51</ele>
        <time>2020-09-10T09:12:03Z</time>
      </trkpt>
      <trkpt lat="44.64394" lon="5.98148">
        <ele>1905.47</ele>
        <time>2020-09-10T09:12:19Z</time>
      </trkpt>
      <trkpt lat="44.644" lon="5.98152">
        <ele>1905.47</ele>
        <time>2020-09-10T09:12:26Z</time>
      </trkpt>
      <trkpt lat="44.64411" lon="5.98167">
        <ele>1906.91</ele>
        <time>2020-09-10T09:12:44Z</time>
      </trkpt>
      <trkpt lat="44.64414" lon="5.98181">
        <ele>1908.83</ele>
        <time>2020-09-10T09:12:57Z</time>
      </trkpt>
      <trkpt lat="44.64411" lon="5.9819">
        <ele>1909.8</ele>
        <time>2020-09-10T09:13:06Z</time>
      </trkpt>
      <trkpt lat="44.6441" lon="5.98192">
        <ele>1909.8</ele>
        <time>2020-09-10T09:13:08Z</time>
      </trkpt>
      <trkpt lat="44.64408" lon="5.98195">
        <ele>1910.28</ele>
        <time>2020-09-10T09:13:11Z</time>
      </trkpt>
      <trkpt lat="44.64396" lon="5.98203">
        <ele>1912.68</ele>
        <time>2020-09-10T09:13:27Z</time>
      </trkpt>
      <trkpt lat="44.64391" lon="5.98217">
        <ele>1914.12</ele>
        <time>2020-09-10T09:13:42Z</time>
      </trkpt>
      <trkpt lat="44.64386" lon="5.98229">
        <ele>1917.01</ele>
        <time>2020-09-10T09:13:58Z</time>
      </trkpt>
      <trkpt lat="44.64383" lon="5.98239">
        <ele>1917.97</ele>
        <time>2020-09-10T09:14:13Z</time>
      </trkpt>
      <trkpt lat="44.64388" lon="5.98247">
        <ele>1920.37</ele>
        <time>2020-09-10T09:14:29Z</time>
      </trkpt>
      <trkpt lat="44.64388" lon="5.98259">
        <ele>1923.74</ele>
        <time>2020-09-10T09:14:44Z</time>
      </trkpt>
      <trkpt lat="44.64384" lon="5.9827">
        <ele>1926.14</ele>
        <time>2020-09-10T09:15:01Z</time>
      </trkpt>
      <trkpt lat="44.64386" lon="5.98275">
        <ele>1928.54</ele>
        <time>2020-09-10T09:15:15Z</time>
      </trkpt>
      <trkpt lat="44.64391" lon="5.98275">
        <ele>1929.98</ele>
        <time>2020-09-10T09:15:32Z</time>
      </trkpt>
      <trkpt lat="44.64397" lon="5.98276">
        <ele>1931.91</ele>
        <time>2020-09-10T09:15:49Z</time>
      </trkpt>
      <trkpt lat="44.64406" lon="5.98275">
        <ele>1933.83</ele>
        <time>2020-09-10T09:16:05Z</time>
      </trkpt>
      <trkpt lat="44.64406" lon="5.98274">
        <ele>1934.31</ele>
        <time>2020-09-10T09:16:41Z</time>
      </trkpt>
      <trkpt lat="44.64407" lon="5.98274">
        <ele>1934.79</ele>
        <time>2020-09-10T09:17:01Z</time>
      </trkpt>
      <trkpt lat="44.64408" lon="5.98275">
        <ele>1934.79</ele>
        <time>2020-09-10T09:17:20Z</time>
      </trkpt>
      <trkpt lat="44.64409" lon="5.98275">
        <ele>1934.79</ele>
        <time>2020-09-10T09:18:00Z</time>
      </trkpt>
      <trkpt lat="44.64409" lon="5.98277">
        <ele>1934.79</ele>
        <time>2020-09-10T09:18:34Z</time>
      </trkpt>
      <trkpt lat="44.64408" lon="5.98282">
        <ele>1935.75</ele>
        <time>2020-09-10T09:19:01Z</time>
      </trkpt>
      <trkpt lat="44.64408" lon="5.98293">
        <ele>1937.67</ele>
        <time>2020-09-10T09:19:17Z</time>
      </trkpt>
      <trkpt lat="44.64408" lon="5.98304">
        <ele>1939.12</ele>
        <time>2020-09-10T09:19:33Z</time>
      </trkpt>
      <trkpt lat="44.64413" lon="5.98313">
        <ele>1942.48</ele>
        <time>2020-09-10T09:19:46Z</time>
      </trkpt>
      <trkpt lat="44.64422" lon="5.98316">
        <ele>1943.44</ele>
        <time>2020-09-10T09:20:01Z</time>
      </trkpt>
      <trkpt lat="44.64423" lon="5.98317">
        <ele>1943.44</ele>
        <time>2020-09-10T09:20:02Z</time>
      </trkpt>
      <trkpt lat="44.64433" lon="5.98315">
        <ele>1945.36</ele>
        <time>2020-09-10T09:20:16Z</time>
      </trkpt>
      <trkpt lat="44.64446" lon="5.9831">
        <ele>1946.33</ele>
        <time>2020-09-10T09:20:32Z</time>
      </trkpt>
      <trkpt lat="44.64455" lon="5.98307">
        <ele>1949.21</ele>
        <time>2020-09-10T09:20:48Z</time>
      </trkpt>
      <trkpt lat="44.64463" lon="5.98303">
        <ele>1952.09</ele>
        <time>2020-09-10T09:21:04Z</time>
      </trkpt>
      <trkpt lat="44.6447" lon="5.98302">
        <ele>1954.98</ele>
        <time>2020-09-10T09:21:20Z</time>
      </trkpt>
      <trkpt lat="44.64478" lon="5.98302">
        <ele>1957.86</ele>
        <time>2020-09-10T09:21:36Z</time>
      </trkpt>
      <trkpt lat="44.64485" lon="5.98303">
        <ele>1961.23</ele>
        <time>2020-09-10T09:21:53Z</time>
      </trkpt>
      <trkpt lat="44.64493" lon="5.98304">
        <ele>1964.59</ele>
        <time>2020-09-10T09:22:12Z</time>
      </trkpt>
      <trkpt lat="44.64503" lon="5.98305">
        <ele>1967.48</ele>
        <time>2020-09-10T09:22:35Z</time>
      </trkpt>
      <trkpt lat="44.64512" lon="5.9831">
        <ele>1970.84</ele>
        <time>2020-09-10T09:22:57Z</time>
      </trkpt>
      <trkpt lat="44.6452" lon="5.98314">
        <ele>1972.76</ele>
        <time>2020-09-10T09:23:16Z</time>
      </trkpt>
      <trkpt lat="44.64529" lon="5.98317">
        <ele>1975.17</ele>
        <time>2020-09-10T09:23:37Z</time>
      </trkpt>
      <trkpt lat="44.64535" lon="5.98321">
        <ele>1977.09</ele>
        <time>2020-09-10T09:23:55Z</time>
      </trkpt>
      <trkpt lat="44.6454" lon="5.98322">
        <ele>1979.01</ele>
        <time>2020-09-10T09:24:11Z</time>
      </trkpt>
      <trkpt lat="44.64548" lon="5.98321">
        <ele>1980.93</ele>
        <time>2020-09-10T09:24:27Z</time>
      </trkpt>
      <trkpt lat="44.64554" lon="5.98322">
        <ele>1982.86</ele>
        <time>2020-09-10T09:24:46Z</time>
      </trkpt>
      <trkpt lat="44.64562" lon="5.9832">
        <ele>1985.26</ele>
        <time>2020-09-10T09:25:06Z</time>
      </trkpt>
      <trkpt lat="44.64569" lon="5.98321">
        <ele>1988.62</ele>
        <time>2020-09-10T09:25:24Z</time>
      </trkpt>
      <trkpt lat="44.64576" lon="5.98321">
        <ele>1990.55</ele>
        <time>2020-09-10T09:25:41Z</time>
      </trkpt>
      <trkpt lat="44.64581" lon="5.9832">
        <ele>1991.03</ele>
        <time>2020-09-10T09:25:57Z</time>
      </trkpt>
      <trkpt lat="44.64589" lon="5.98321">
        <ele>1993.43</ele>
        <time>2020-09-10T09:26:16Z</time>
      </trkpt>
      <trkpt lat="44.64595" lon="5.98326">
        <ele>1996.8</ele>
        <time>2020-09-10T09:26:31Z</time>
      </trkpt>
      <trkpt lat="44.646" lon="5.9833">
        <ele>1999.68</ele>
        <time>2020-09-10T09:26:46Z</time>
      </trkpt>
      <trkpt lat="44.64606" lon="5.98328">
        <ele>2002.08</ele>
        <time>2020-09-10T09:27:03Z</time>
      </trkpt>
      <trkpt lat="44.64612" lon="5.98328">
        <ele>2004.97</ele>
        <time>2020-09-10T09:27:19Z</time>
      </trkpt>
      <trkpt lat="44.64617" lon="5.98332">
        <ele>2007.85</ele>
        <time>2020-09-10T09:27:35Z</time>
      </trkpt>
      <trkpt lat="44.64624" lon="5.9833">
        <ele>2010.73</ele>
        <time>2020-09-10T09:27:51Z</time>
      </trkpt>
      <trkpt lat="44.64633" lon="5.98324">
        <ele>2012.66</ele>
        <time>2020-09-10T09:28:05Z</time>
      </trkpt>
      <trkpt lat="44.6464" lon="5.98316">
        <ele>2014.58</ele>
        <time>2020-09-10T09:28:20Z</time>
      </trkpt>
      <trkpt lat="44.6465" lon="5.98308">
        <ele>2016.5</ele>
        <time>2020-09-10T09:28:36Z</time>
      </trkpt>
      <trkpt lat="44.64654" lon="5.98305">
        <ele>2016.98</ele>
        <time>2020-09-10T09:28:41Z</time>
      </trkpt>
      <trkpt lat="44.64655" lon="5.98304">
        <ele>2016.98</ele>
        <time>2020-09-10T09:28:43Z</time>
      </trkpt>
      <trkpt lat="44.64665" lon="5.98296">
        <ele>2018.91</ele>
        <time>2020-09-10T09:28:59Z</time>
      </trkpt>
      <trkpt lat="44.64673" lon="5.98287">
        <ele>2020.83</ele>
        <time>2020-09-10T09:29:16Z</time>
      </trkpt>
      <trkpt lat="44.64685" lon="5.98285">
        <ele>2023.71</ele>
        <time>2020-09-10T09:29:32Z</time>
      </trkpt>
      <trkpt lat="44.64694" lon="5.98288">
        <ele>2027.08</ele>
        <time>2020-09-10T09:29:46Z</time>
      </trkpt>
      <trkpt lat="44.64705" lon="5.98286">
        <ele>2029.48</ele>
        <time>2020-09-10T09:30:03Z</time>
      </trkpt>
      <trkpt lat="44.64714" lon="5.98284">
        <ele>2031.88</ele>
        <time>2020-09-10T09:30:19Z</time>
      </trkpt>
      <trkpt lat="44.64726" lon="5.98282">
        <ele>2033.33</ele>
        <time>2020-09-10T09:30:36Z</time>
      </trkpt>
      <trkpt lat="44.64738" lon="5.98284">
        <ele>2035.73</ele>
        <time>2020-09-10T09:30:53Z</time>
      </trkpt>
      <trkpt lat="44.64749" lon="5.98286">
        <ele>2038.13</ele>
        <time>2020-09-10T09:31:09Z</time>
      </trkpt>
      <trkpt lat="44.64759" lon="5.98289">
        <ele>2040.54</ele>
        <time>2020-09-10T09:31:25Z</time>
      </trkpt>
      <trkpt lat="44.64769" lon="5.98294">
        <ele>2042.94</ele>
        <time>2020-09-10T09:31:42Z</time>
      </trkpt>
      <trkpt lat="44.64778" lon="5.98295">
        <ele>2044.86</ele>
        <time>2020-09-10T09:31:58Z</time>
      </trkpt>
      <trkpt lat="44.64786" lon="5.98296">
        <ele>2047.26</ele>
        <time>2020-09-10T09:32:11Z</time>
      </trkpt>
      <trkpt lat="44.64794" lon="5.98298">
        <ele>2049.19</ele>
        <time>2020-09-10T09:32:26Z</time>
      </trkpt>
      <trkpt lat="44.64803" lon="5.983">
        <ele>2050.63</ele>
        <time>2020-09-10T09:32:41Z</time>
      </trkpt>
      <trkpt lat="44.64802" lon="5.983">
        <ele>2051.59</ele>
        <time>2020-09-10T09:33:01Z</time>
      </trkpt>
      <trkpt lat="44.64803" lon="5.98308">
        <ele>2052.55</ele>
        <time>2020-09-10T09:33:15Z</time>
      </trkpt>
      <trkpt lat="44.64803" lon="5.98319">
        <ele>2055.92</ele>
        <time>2020-09-10T09:33:30Z</time>
      </trkpt>
      <trkpt lat="44.64806" lon="5.98331">
        <ele>2058.32</ele>
        <time>2020-09-10T09:33:45Z</time>
      </trkpt>
      <trkpt lat="44.64809" lon="5.98343">
        <ele>2061.68</ele>
        <time>2020-09-10T09:34:03Z</time>
      </trkpt>
      <trkpt lat="44.64814" lon="5.98355">
        <ele>2064.57</ele>
        <time>2020-09-10T09:34:21Z</time>
      </trkpt>
      <trkpt lat="44.64817" lon="5.98361">
        <ele>2067.45</ele>
        <time>2020-09-10T09:34:34Z</time>
      </trkpt>
      <trkpt lat="44.64822" lon="5.98374">
        <ele>2069.86</ele>
        <time>2020-09-10T09:34:53Z</time>
      </trkpt>
      <trkpt lat="44.64824" lon="5.98379">
        <ele>2071.3</ele>
        <time>2020-09-10T09:35:13Z</time>
      </trkpt>
      <trkpt lat="44.64824" lon="5.98379">
        <ele>2072.26</ele>
        <time>2020-09-10T09:35:30Z</time>
      </trkpt>
      <trkpt lat="44.64824" lon="5.98379">
        <ele>2072.26</ele>
        <time>2020-09-10T09:35:48Z</time>
      </trkpt>
      <trkpt lat="44.64826" lon="5.9838">
        <ele>2072.26</ele>
        <time>2020-09-10T09:36:08Z</time>
      </trkpt>
      <trkpt lat="44.6483" lon="5.98383">
        <ele>2074.18</ele>
        <time>2020-09-10T09:36:22Z</time>
      </trkpt>
      <trkpt lat="44.6483" lon="5.98384">
        <ele>2074.18</ele>
        <time>2020-09-10T09:36:45Z</time>
      </trkpt>
      <trkpt lat="44.64833" lon="5.98384">
        <ele>2074.66</ele>
        <time>2020-09-10T09:36:59Z</time>
      </trkpt>
      <trkpt lat="44.64833" lon="5.98386">
        <ele>2075.62</ele>
        <time>2020-09-10T09:37:25Z</time>
      </trkpt>
      <trkpt lat="44.64833" lon="5.98384">
        <ele>2075.62</ele>
        <time>2020-09-10T09:37:45Z</time>
      </trkpt>
      <trkpt lat="44.64832" lon="5.98386">
        <ele>2074.18</ele>
        <time>2020-09-10T09:38:06Z</time>
      </trkpt>
      <trkpt lat="44.6484" lon="5.98386">
        <ele>2075.62</ele>
        <time>2020-09-10T09:38:26Z</time>
      </trkpt>
      <trkpt lat="44.64844" lon="5.98388">
        <ele>2076.1</ele>
        <time>2020-09-10T09:38:41Z</time>
      </trkpt>
      <trkpt lat="44.64852" lon="5.98401">
        <ele>2079.47</ele>
        <time>2020-09-10T09:38:57Z</time>
      </trkpt>
      <trkpt lat="44.64851" lon="5.98402">
        <ele>2079.95</ele>
        <time>2020-09-10T09:39:15Z</time>
      </trkpt>
      <trkpt lat="44.64851" lon="5.984">
        <ele>2079.95</ele>
        <time>2020-09-10T09:39:34Z</time>
      </trkpt>
      <trkpt lat="44.64853" lon="5.98405">
        <ele>2080.43</ele>
        <time>2020-09-10T09:39:48Z</time>
      </trkpt>
      <trkpt lat="44.64854" lon="5.98407">
        <ele>2081.39</ele>
        <time>2020-09-10T09:40:08Z</time>
      </trkpt>
      <trkpt lat="44.64855" lon="5.98408">
        <ele>2081.39</ele>
        <time>2020-09-10T09:40:43Z</time>
      </trkpt>
      <trkpt lat="44.64852" lon="5.98407">
        <ele>2081.39</ele>
        <time>2020-09-10T09:41:14Z</time>
      </trkpt>
      <trkpt lat="44.64854" lon="5.98408">
        <ele>2081.87</ele>
        <time>2020-09-10T09:41:34Z</time>
      </trkpt>
      <trkpt lat="44.64854" lon="5.98407">
        <ele>2081.87</ele>
        <time>2020-09-10T09:42:06Z</time>
      </trkpt>
      <trkpt lat="44.64854" lon="5.98407">
        <ele>2081.87</ele>
        <time>2020-09-10T09:42:24Z</time>
      </trkpt>
      <trkpt lat="44.64855" lon="5.98408">
        <ele>2081.87</ele>
        <time>2020-09-10T09:42:47Z</time>
      </trkpt>
      <trkpt lat="44.64854" lon="5.9841">
        <ele>2082.83</ele>
        <time>2020-09-10T09:43:14Z</time>
      </trkpt>
      <trkpt lat="44.64856" lon="5.98415">
        <ele>2083.31</ele>
        <time>2020-09-10T09:43:29Z</time>
      </trkpt>
      <trkpt lat="44.64857" lon="5.98425">
        <ele>2086.2</ele>
        <time>2020-09-10T09:43:42Z</time>
      </trkpt>
      <trkpt lat="44.64857" lon="5.98439">
        <ele>2088.6</ele>
        <time>2020-09-10T09:44:00Z</time>
      </trkpt>
      <trkpt lat="44.64857" lon="5.98451">
        <ele>2091.49</ele>
        <time>2020-09-10T09:44:17Z</time>
      </trkpt>
      <trkpt lat="44.64859" lon="5.98466">
        <ele>2092.93</ele>
        <time>2020-09-10T09:44:33Z</time>
      </trkpt>
      <trkpt lat="44.64861" lon="5.9848">
        <ele>2094.85</ele>
        <time>2020-09-10T09:44:50Z</time>
      </trkpt>
      <trkpt lat="44.64868" lon="5.98491">
        <ele>2096.77</ele>
        <time>2020-09-10T09:45:07Z</time>
      </trkpt>
      <trkpt lat="44.64878" lon="5.98502">
        <ele>2099.66</ele>
        <time>2020-09-10T09:45:25Z</time>
      </trkpt>
      <trkpt lat="44.64886" lon="5.98515">
        <ele>2101.58</ele>
        <time>2020-09-10T09:45:42Z</time>
      </trkpt>
      <trkpt lat="44.64892" lon="5.98524">
        <ele>2102.54</ele>
        <time>2020-09-10T09:45:55Z</time>
      </trkpt>
      <trkpt lat="44.64906" lon="5.98534">
        <ele>2104.46</ele>
        <time>2020-09-10T09:46:12Z</time>
      </trkpt>
      <trkpt lat="44.64908" lon="5.98536">
        <ele>2104.94</ele>
        <time>2020-09-10T09:46:15Z</time>
      </trkpt>
      <trkpt lat="44.64918" lon="5.9855">
        <ele>2106.39</ele>
        <time>2020-09-10T09:46:31Z</time>
      </trkpt>
      <trkpt lat="44.64921" lon="5.98552">
        <ele>2106.39</ele>
        <time>2020-09-10T09:46:35Z</time>
      </trkpt>
      <trkpt lat="44.64931" lon="5.98567">
        <ele>2107.83</ele>
        <time>2020-09-10T09:46:53Z</time>
      </trkpt>
      <trkpt lat="44.64939" lon="5.98578">
        <ele>2109.27</ele>
        <time>2020-09-10T09:47:08Z</time>
      </trkpt>
      <trkpt lat="44.6494" lon="5.98582">
        <ele>2109.27</ele>
        <time>2020-09-10T09:47:11Z</time>
      </trkpt>
      <trkpt lat="44.64948" lon="5.98595">
        <ele>2111.67</ele>
        <time>2020-09-10T09:47:28Z</time>
      </trkpt>
      <trkpt lat="44.64956" lon="5.98598">
        <ele>2113.6</ele>
        <time>2020-09-10T09:47:43Z</time>
      </trkpt>
      <trkpt lat="44.64961" lon="5.98598">
        <ele>2114.56</ele>
        <time>2020-09-10T09:47:59Z</time>
      </trkpt>
      <trkpt lat="44.64967" lon="5.98602">
        <ele>2116</ele>
        <time>2020-09-10T09:48:11Z</time>
      </trkpt>
      <trkpt lat="44.64973" lon="5.98601">
        <ele>2116.48</ele>
        <time>2020-09-10T09:48:29Z</time>
      </trkpt>
      <trkpt lat="44.64979" lon="5.986">
        <ele>2116.96</ele>
        <time>2020-09-10T09:48:39Z</time>
      </trkpt>
      <trkpt lat="44.64992" lon="5.98593">
        <ele>2118.88</ele>
        <time>2020-09-10T09:48:57Z</time>
      </trkpt>
      <trkpt lat="44.65004" lon="5.9859">
        <ele>2121.29</ele>
        <time>2020-09-10T09:49:14Z</time>
      </trkpt>
      <trkpt lat="44.65017" lon="5.98586">
        <ele>2123.69</ele>
        <time>2020-09-10T09:49:32Z</time>
      </trkpt>
      <trkpt lat="44.65029" lon="5.98587">
        <ele>2125.61</ele>
        <time>2020-09-10T09:49:48Z</time>
      </trkpt>
      <trkpt lat="44.6504" lon="5.98588">
        <ele>2127.53</ele>
        <time>2020-09-10T09:50:02Z</time>
      </trkpt>
      <trkpt lat="44.65048" lon="5.98587">
        <ele>2128.98</ele>
        <time>2020-09-10T09:50:18Z</time>
      </trkpt>
      <trkpt lat="44.65059" lon="5.98588">
        <ele>2131.38</ele>
        <time>2020-09-10T09:50:35Z</time>
      </trkpt>
      <trkpt lat="44.65061" lon="5.98588">
        <ele>2131.38</ele>
        <time>2020-09-10T09:50:39Z</time>
      </trkpt>
      <trkpt lat="44.65072" lon="5.98586">
        <ele>2132.34</ele>
        <time>2020-09-10T09:50:54Z</time>
      </trkpt>
      <trkpt lat="44.65076" lon="5.98585">
        <ele>2132.82</ele>
        <time>2020-09-10T09:51:00Z</time>
      </trkpt>
      <trkpt lat="44.65085" lon="5.98583">
        <ele>2134.26</ele>
        <time>2020-09-10T09:51:16Z</time>
      </trkpt>
      <trkpt lat="44.65101" lon="5.9858">
        <ele>2135.23</ele>
        <time>2020-09-10T09:51:33Z</time>
      </trkpt>
      <trkpt lat="44.65105" lon="5.98585">
        <ele>2138.11</ele>
        <time>2020-09-10T09:51:47Z</time>
      </trkpt>
      <trkpt lat="44.65112" lon="5.98594">
        <ele>2140.51</ele>
        <time>2020-09-10T09:52:05Z</time>
      </trkpt>
      <trkpt lat="44.65107" lon="5.98604">
        <ele>2140.99</ele>
        <time>2020-09-10T09:52:24Z</time>
      </trkpt>
      <trkpt lat="44.65104" lon="5.98607">
        <ele>2142.44</ele>
        <time>2020-09-10T09:52:44Z</time>
      </trkpt>
      <trkpt lat="44.65103" lon="5.98611">
        <ele>2143.88</ele>
        <time>2020-09-10T09:52:56Z</time>
      </trkpt>
      <trkpt lat="44.65098" lon="5.9862">
        <ele>2144.84</ele>
        <time>2020-09-10T09:53:09Z</time>
      </trkpt>
      <trkpt lat="44.65092" lon="5.98633">
        <ele>2147.24</ele>
        <time>2020-09-10T09:53:27Z</time>
      </trkpt>
      <trkpt lat="44.65088" lon="5.98639">
        <ele>2149.16</ele>
        <time>2020-09-10T09:53:43Z</time>
      </trkpt>
      <trkpt lat="44.6508" lon="5.98646">
        <ele>2150.13</ele>
        <time>2020-09-10T09:53:57Z</time>
      </trkpt>
      <trkpt lat="44.65071" lon="5.98658">
        <ele>2152.05</ele>
        <time>2020-09-10T09:54:15Z</time>
      </trkpt>
      <trkpt lat="44.65061" lon="5.98669">
        <ele>2153.97</ele>
        <time>2020-09-10T09:54:35Z</time>
      </trkpt>
      <trkpt lat="44.65055" lon="5.98679">
        <ele>2155.89</ele>
        <time>2020-09-10T09:54:51Z</time>
      </trkpt>
      <trkpt lat="44.65047" lon="5.98687">
        <ele>2157.34</ele>
        <time>2020-09-10T09:55:05Z</time>
      </trkpt>
      <trkpt lat="44.65046" lon="5.98692">
        <ele>2159.74</ele>
        <time>2020-09-10T09:55:20Z</time>
      </trkpt>
      <trkpt lat="44.6505" lon="5.98697">
        <ele>2162.62</ele>
        <time>2020-09-10T09:55:35Z</time>
      </trkpt>
      <trkpt lat="44.65055" lon="5.98702">
        <ele>2165.99</ele>
        <time>2020-09-10T09:55:52Z</time>
      </trkpt>
      <trkpt lat="44.65062" lon="5.98708">
        <ele>2168.87</ele>
        <time>2020-09-10T09:56:09Z</time>
      </trkpt>
      <trkpt lat="44.65067" lon="5.98711">
        <ele>2172.24</ele>
        <time>2020-09-10T09:56:26Z</time>
      </trkpt>
      <trkpt lat="44.65076" lon="5.98713">
        <ele>2175.12</ele>
        <time>2020-09-10T09:56:45Z</time>
      </trkpt>
      <trkpt lat="44.65082" lon="5.98719">
        <ele>2178</ele>
        <time>2020-09-10T09:57:03Z</time>
      </trkpt>
      <trkpt lat="44.65081" lon="5.98729">
        <ele>2180.41</ele>
        <time>2020-09-10T09:57:17Z</time>
      </trkpt>
      <trkpt lat="44.65078" lon="5.98737">
        <ele>2183.29</ele>
        <time>2020-09-10T09:57:34Z</time>
      </trkpt>
      <trkpt lat="44.65074" lon="5.98745">
        <ele>2185.69</ele>
        <time>2020-09-10T09:57:51Z</time>
      </trkpt>
      <trkpt lat="44.65074" lon="5.98752">
        <ele>2189.06</ele>
        <time>2020-09-10T09:58:07Z</time>
      </trkpt>
      <trkpt lat="44.65076" lon="5.98754">
        <ele>2190.98</ele>
        <time>2020-09-10T09:58:22Z</time>
      </trkpt>
      <trkpt lat="44.65075" lon="5.9876">
        <ele>2192.9</ele>
        <time>2020-09-10T09:58:36Z</time>
      </trkpt>
      <trkpt lat="44.65072" lon="5.98769">
        <ele>2195.31</ele>
        <time>2020-09-10T09:58:54Z</time>
      </trkpt>
      <trkpt lat="44.65071" lon="5.98778">
        <ele>2198.19</ele>
        <time>2020-09-10T09:59:11Z</time>
      </trkpt>
      <trkpt lat="44.65074" lon="5.9878">
        <ele>2198.67</ele>
        <time>2020-09-10T09:59:28Z</time>
      </trkpt>
      <trkpt lat="44.65076" lon="5.98782">
        <ele>2200.11</ele>
        <time>2020-09-10T09:59:43Z</time>
      </trkpt>
      <trkpt lat="44.65076" lon="5.98783">
        <ele>2200.59</ele>
        <time>2020-09-10T10:00:00Z</time>
      </trkpt>
      <trkpt lat="44.65075" lon="5.98783">
        <ele>2200.11</ele>
        <time>2020-09-10T10:00:28Z</time>
      </trkpt>
      <trkpt lat="44.65075" lon="5.98783">
        <ele>2201.56</ele>
        <time>2020-09-10T10:00:44Z</time>
      </trkpt>
      <trkpt lat="44.65073" lon="5.98781">
        <ele>2200.59</ele>
        <time>2020-09-10T10:01:09Z</time>
      </trkpt>
      <trkpt lat="44.65075" lon="5.98782">
        <ele>2200.59</ele>
        <time>2020-09-10T10:01:35Z</time>
      </trkpt>
      <trkpt lat="44.65075" lon="5.98782">
        <ele>2200.59</ele>
        <time>2020-09-10T10:01:57Z</time>
      </trkpt>
      <trkpt lat="44.65076" lon="5.98782">
        <ele>2201.08</ele>
        <time>2020-09-10T10:02:34Z</time>
      </trkpt>
      <trkpt lat="44.65076" lon="5.98784">
        <ele>2201.08</ele>
        <time>2020-09-10T10:03:03Z</time>
      </trkpt>
      <trkpt lat="44.65075" lon="5.98783">
        <ele>2201.08</ele>
        <time>2020-09-10T10:03:36Z</time>
      </trkpt>
      <trkpt lat="44.65077" lon="5.98783">
        <ele>2201.08</ele>
        <time>2020-09-10T10:03:58Z</time>
      </trkpt>
      <trkpt lat="44.6508" lon="5.98786">
        <ele>2202.52</ele>
        <time>2020-09-10T10:04:03Z</time>
      </trkpt>
      <trkpt lat="44.65085" lon="5.98792">
        <ele>2204.44</ele>
        <time>2020-09-10T10:04:20Z</time>
      </trkpt>
      <trkpt lat="44.65091" lon="5.98795">
        <ele>2206.36</ele>
        <time>2020-09-10T10:04:37Z</time>
      </trkpt>
      <trkpt lat="44.65095" lon="5.98798">
        <ele>2208.29</ele>
        <time>2020-09-10T10:04:54Z</time>
      </trkpt>
      <trkpt lat="44.65097" lon="5.988">
        <ele>2209.73</ele>
        <time>2020-09-10T10:05:11Z</time>
      </trkpt>
      <trkpt lat="44.65101" lon="5.98801">
        <ele>2212.13</ele>
        <time>2020-09-10T10:05:28Z</time>
      </trkpt>
      <trkpt lat="44.65104" lon="5.98804">
        <ele>2214.05</ele>
        <time>2020-09-10T10:05:44Z</time>
      </trkpt>
      <trkpt lat="44.65107" lon="5.98804">
        <ele>2215.98</ele>
        <time>2020-09-10T10:05:58Z</time>
      </trkpt>
      <trkpt lat="44.6511" lon="5.98808">
        <ele>2217.9</ele>
        <time>2020-09-10T10:06:15Z</time>
      </trkpt>
      <trkpt lat="44.65114" lon="5.98809">
        <ele>2220.3</ele>
        <time>2020-09-10T10:06:32Z</time>
      </trkpt>
      <trkpt lat="44.65117" lon="5.98809">
        <ele>2221.26</ele>
        <time>2020-09-10T10:06:53Z</time>
      </trkpt>
      <trkpt lat="44.65123" lon="5.98812">
        <ele>2223.19</ele>
        <time>2020-09-10T10:07:10Z</time>
      </trkpt>
      <trkpt lat="44.6513" lon="5.98808">
        <ele>2225.11</ele>
        <time>2020-09-10T10:07:25Z</time>
      </trkpt>
      <trkpt lat="44.65136" lon="5.98804">
        <ele>2227.51</ele>
        <time>2020-09-10T10:07:43Z</time>
      </trkpt>
      <trkpt lat="44.65137" lon="5.98803">
        <ele>2227.99</ele>
        <time>2020-09-10T10:07:58Z</time>
      </trkpt>
      <trkpt lat="44.65139" lon="5.98804">
        <ele>2228.47</ele>
        <time>2020-09-10T10:08:14Z</time>
      </trkpt>
      <trkpt lat="44.65142" lon="5.98803">
        <ele>2229.92</ele>
        <time>2020-09-10T10:08:33Z</time>
      </trkpt>
      <trkpt lat="44.65142" lon="5.98806">
        <ele>2229.92</ele>
        <time>2020-09-10T10:08:56Z</time>
      </trkpt>
      <trkpt lat="44.65144" lon="5.98805">
        <ele>2229.92</ele>
        <time>2020-09-10T10:09:21Z</time>
      </trkpt>
      <trkpt lat="44.65144" lon="5.98801">
        <ele>2230.88</ele>
        <time>2020-09-10T10:09:40Z</time>
      </trkpt>
      <trkpt lat="44.6515" lon="5.98796">
        <ele>2232.32</ele>
        <time>2020-09-10T10:09:56Z</time>
      </trkpt>
      <trkpt lat="44.65156" lon="5.98795">
        <ele>2235.2</ele>
        <time>2020-09-10T10:10:11Z</time>
      </trkpt>
      <trkpt lat="44.65161" lon="5.98796">
        <ele>2235.2</ele>
        <time>2020-09-10T10:10:24Z</time>
      </trkpt>
      <trkpt lat="44.65164" lon="5.98792">
        <ele>2236.16</ele>
        <time>2020-09-10T10:10:38Z</time>
      </trkpt>
      <trkpt lat="44.65168" lon="5.98794">
        <ele>2236.64</ele>
        <time>2020-09-10T10:10:54Z</time>
      </trkpt>
      <trkpt lat="44.65172" lon="5.98794">
        <ele>2238.09</ele>
        <time>2020-09-10T10:11:10Z</time>
      </trkpt>
      <trkpt lat="44.65175" lon="5.98791">
        <ele>2240.01</ele>
        <time>2020-09-10T10:11:24Z</time>
      </trkpt>
      <trkpt lat="44.65179" lon="5.98789">
        <ele>2240.97</ele>
        <time>2020-09-10T10:11:43Z</time>
      </trkpt>
      <trkpt lat="44.65182" lon="5.98785">
        <ele>2242.41</ele>
        <time>2020-09-10T10:11:57Z</time>
      </trkpt>
      <trkpt lat="44.65185" lon="5.98784">
        <ele>2242.89</ele>
        <time>2020-09-10T10:12:16Z</time>
      </trkpt>
      <trkpt lat="44.65188" lon="5.98785">
        <ele>2242.89</ele>
        <time>2020-09-10T10:12:23Z</time>
      </trkpt>
      <trkpt lat="44.65196" lon="5.98783">
        <ele>2243.85</ele>
        <time>2020-09-10T10:12:38Z</time>
      </trkpt>
      <trkpt lat="44.652" lon="5.98787">
        <ele>2245.3</ele>
        <time>2020-09-10T10:12:53Z</time>
      </trkpt>
      <trkpt lat="44.65204" lon="5.98786">
        <ele>2246.74</ele>
        <time>2020-09-10T10:13:05Z</time>
      </trkpt>
      <trkpt lat="44.65209" lon="5.98785">
        <ele>2248.18</ele>
        <time>2020-09-10T10:13:19Z</time>
      </trkpt>
      <trkpt lat="44.65212" lon="5.98784">
        <ele>2249.62</ele>
        <time>2020-09-10T10:13:25Z</time>
      </trkpt>
      <trkpt lat="44.65215" lon="5.9878">
        <ele>2250.1</ele>
        <time>2020-09-10T10:13:40Z</time>
      </trkpt>
      <trkpt lat="44.65217" lon="5.98781">
        <ele>2250.58</ele>
        <time>2020-09-10T10:14:09Z</time>
      </trkpt>
      <trkpt lat="44.65229" lon="5.98783">
        <ele>2252.03</ele>
        <time>2020-09-10T10:14:23Z</time>
      </trkpt>
      <trkpt lat="44.65242" lon="5.98784">
        <ele>2254.43</ele>
        <time>2020-09-10T10:14:40Z</time>
      </trkpt>
      <trkpt lat="44.65251" lon="5.98786">
        <ele>2257.79</ele>
        <time>2020-09-10T10:14:57Z</time>
      </trkpt>
      <trkpt lat="44.65255" lon="5.98788">
        <ele>2258.75</ele>
        <time>2020-09-10T10:15:11Z</time>
      </trkpt>
      <trkpt lat="44.65261" lon="5.98789">
        <ele>2259.72</ele>
        <time>2020-09-10T10:15:28Z</time>
      </trkpt>
      <trkpt lat="44.65264" lon="5.98789">
        <ele>2260.2</ele>
        <time>2020-09-10T10:15:43Z</time>
      </trkpt>
      <trkpt lat="44.65272" lon="5.98791">
        <ele>2261.16</ele>
        <time>2020-09-10T10:15:59Z</time>
      </trkpt>
      <trkpt lat="44.65277" lon="5.98792">
        <ele>2262.6</ele>
        <time>2020-09-10T10:16:12Z</time>
      </trkpt>
      <trkpt lat="44.65282" lon="5.98795">
        <ele>2264.04</ele>
        <time>2020-09-10T10:16:25Z</time>
      </trkpt>
      <trkpt lat="44.65282" lon="5.98796">
        <ele>2265</ele>
        <time>2020-09-10T10:16:45Z</time>
      </trkpt>
      <trkpt lat="44.65286" lon="5.98798">
        <ele>2266.45</ele>
        <time>2020-09-10T10:17:02Z</time>
      </trkpt>
      <trkpt lat="44.65292" lon="5.98802">
        <ele>2267.41</ele>
        <time>2020-09-10T10:17:14Z</time>
      </trkpt>
      <trkpt lat="44.65299" lon="5.98803">
        <ele>2267.89</ele>
        <time>2020-09-10T10:17:32Z</time>
      </trkpt>
      <trkpt lat="44.65304" lon="5.98806">
        <ele>2267.89</ele>
        <time>2020-09-10T10:17:47Z</time>
      </trkpt>
      <trkpt lat="44.65306" lon="5.98807">
        <ele>2269.33</ele>
        <time>2020-09-10T10:17:51Z</time>
      </trkpt>
      <trkpt lat="44.65314" lon="5.98808">
        <ele>2269.81</ele>
        <time>2020-09-10T10:18:05Z</time>
      </trkpt>
      <trkpt lat="44.65325" lon="5.98807">
        <ele>2270.77</ele>
        <time>2020-09-10T10:18:20Z</time>
      </trkpt>
      <trkpt lat="44.65338" lon="5.98808">
        <ele>2272.21</ele>
        <time>2020-09-10T10:18:36Z</time>
      </trkpt>
      <trkpt lat="44.65348" lon="5.98811">
        <ele>2273.17</ele>
        <time>2020-09-10T10:18:50Z</time>
      </trkpt>
      <trkpt lat="44.65352" lon="5.9881">
        <ele>2272.21</ele>
        <time>2020-09-10T10:18:54Z</time>
      </trkpt>
      <trkpt lat="44.65369" lon="5.98818">
        <ele>2272.21</ele>
        <time>2020-09-10T10:19:12Z</time>
      </trkpt>
      <trkpt lat="44.65376" lon="5.98823">
        <ele>2273.66</ele>
        <time>2020-09-10T10:19:21Z</time>
      </trkpt>
      <trkpt lat="44.65388" lon="5.98833">
        <ele>2274.14</ele>
        <time>2020-09-10T10:19:37Z</time>
      </trkpt>
      <trkpt lat="44.65395" lon="5.98836">
        <ele>2275.58</ele>
        <time>2020-09-10T10:19:51Z</time>
      </trkpt>
      <trkpt lat="44.65399" lon="5.98837">
        <ele>2277.5</ele>
        <time>2020-09-10T10:20:07Z</time>
      </trkpt>
      <trkpt lat="44.65404" lon="5.98836">
        <ele>2279.9</ele>
        <time>2020-09-10T10:20:17Z</time>
      </trkpt>
      <trkpt lat="44.65412" lon="5.98836">
        <ele>2282.31</ele>
        <time>2020-09-10T10:20:35Z</time>
      </trkpt>
      <trkpt lat="44.65419" lon="5.98838">
        <ele>2284.71</ele>
        <time>2020-09-10T10:20:52Z</time>
      </trkpt>
      <trkpt lat="44.65427" lon="5.98841">
        <ele>2286.15</ele>
        <time>2020-09-10T10:21:07Z</time>
      </trkpt>
      <trkpt lat="44.65427" lon="5.98842">
        <ele>2286.63</ele>
        <time>2020-09-10T10:21:27Z</time>
      </trkpt>
      <trkpt lat="44.65429" lon="5.98843">
        <ele>2286.63</ele>
        <time>2020-09-10T10:21:50Z</time>
      </trkpt>
      <trkpt lat="44.65432" lon="5.98845">
        <ele>2286.63</ele>
        <time>2020-09-10T10:22:13Z</time>
      </trkpt>
      <trkpt lat="44.65436" lon="5.98844">
        <ele>2286.63</ele>
        <time>2020-09-10T10:22:27Z</time>
      </trkpt>
      <trkpt lat="44.65446" lon="5.98849">
        <ele>2286.63</ele>
        <time>2020-09-10T10:22:40Z</time>
      </trkpt>
      <trkpt lat="44.65457" lon="5.98855">
        <ele>2287.11</ele>
        <time>2020-09-10T10:22:54Z</time>
      </trkpt>
      <trkpt lat="44.6546" lon="5.98855">
        <ele>2285.67</ele>
        <time>2020-09-10T10:22:58Z</time>
      </trkpt>
      <trkpt lat="44.65469" lon="5.98857">
        <ele>2283.75</ele>
        <time>2020-09-10T10:23:11Z</time>
      </trkpt>
      <trkpt lat="44.65479" lon="5.9886">
        <ele>2283.27</ele>
        <time>2020-09-10T10:23:25Z</time>
      </trkpt>
      <trkpt lat="44.65483" lon="5.9886">
        <ele>2281.83</ele>
        <time>2020-09-10T10:23:43Z</time>
      </trkpt>
      <trkpt lat="44.6549" lon="5.9886">
        <ele>2280.38</ele>
        <time>2020-09-10T10:23:59Z</time>
      </trkpt>
      <trkpt lat="44.65498" lon="5.98862">
        <ele>2277.02</ele>
        <time>2020-09-10T10:24:12Z</time>
      </trkpt>
      <trkpt lat="44.65506" lon="5.98862">
        <ele>2276.06</ele>
        <time>2020-09-10T10:24:26Z</time>
      </trkpt>
      <trkpt lat="44.65522" lon="5.98869">
        <ele>2273.66</ele>
        <time>2020-09-10T10:24:43Z</time>
      </trkpt>
      <trkpt lat="44.65535" lon="5.98872">
        <ele>2270.77</ele>
        <time>2020-09-10T10:24:58Z</time>
      </trkpt>
      <trkpt lat="44.65542" lon="5.98876">
        <ele>2268.37</ele>
        <time>2020-09-10T10:25:05Z</time>
      </trkpt>
      <trkpt lat="44.65552" lon="5.98896">
        <ele>2265.96</ele>
        <time>2020-09-10T10:25:18Z</time>
      </trkpt>
      <trkpt lat="44.65559" lon="5.9891">
        <ele>2265.96</ele>
        <time>2020-09-10T10:25:29Z</time>
      </trkpt>
      <trkpt lat="44.65565" lon="5.98912">
        <ele>2266.45</ele>
        <time>2020-09-10T10:25:34Z</time>
      </trkpt>
      <trkpt lat="44.6557" lon="5.9892">
        <ele>2267.41</ele>
        <time>2020-09-10T10:25:41Z</time>
      </trkpt>
      <trkpt lat="44.65581" lon="5.98928">
        <ele>2270.29</ele>
        <time>2020-09-10T10:25:55Z</time>
      </trkpt>
      <trkpt lat="44.65591" lon="5.98933">
        <ele>2271.73</ele>
        <time>2020-09-10T10:26:11Z</time>
      </trkpt>
      <trkpt lat="44.65603" lon="5.98939">
        <ele>2273.66</ele>
        <time>2020-09-10T10:26:29Z</time>
      </trkpt>
      <trkpt lat="44.65615" lon="5.98945">
        <ele>2275.58</ele>
        <time>2020-09-10T10:26:48Z</time>
      </trkpt>
      <trkpt lat="44.65626" lon="5.98948">
        <ele>2277.98</ele>
        <time>2020-09-10T10:27:04Z</time>
      </trkpt>
      <trkpt lat="44.65638" lon="5.98953">
        <ele>2280.38</ele>
        <time>2020-09-10T10:27:20Z</time>
      </trkpt>
      <trkpt lat="44.6565" lon="5.98956">
        <ele>2283.27</ele>
        <time>2020-09-10T10:27:38Z</time>
      </trkpt>
      <trkpt lat="44.6566" lon="5.98959">
        <ele>2285.67</ele>
        <time>2020-09-10T10:27:54Z</time>
      </trkpt>
      <trkpt lat="44.65672" lon="5.98964">
        <ele>2288.08</ele>
        <time>2020-09-10T10:28:11Z</time>
      </trkpt>
      <trkpt lat="44.65683" lon="5.98966">
        <ele>2289.52</ele>
        <time>2020-09-10T10:28:26Z</time>
      </trkpt>
      <trkpt lat="44.65697" lon="5.9897">
        <ele>2291.44</ele>
        <time>2020-09-10T10:28:44Z</time>
      </trkpt>
      <trkpt lat="44.65708" lon="5.98971">
        <ele>2293.84</ele>
        <time>2020-09-10T10:29:02Z</time>
      </trkpt>
      <trkpt lat="44.65717" lon="5.98979">
        <ele>2295.77</ele>
        <time>2020-09-10T10:29:18Z</time>
      </trkpt>
      <trkpt lat="44.65727" lon="5.98984">
        <ele>2298.65</ele>
        <time>2020-09-10T10:29:36Z</time>
      </trkpt>
      <trkpt lat="44.65737" lon="5.98991">
        <ele>2301.05</ele>
        <time>2020-09-10T10:29:53Z</time>
      </trkpt>
      <trkpt lat="44.65747" lon="5.98995">
        <ele>2303.94</ele>
        <time>2020-09-10T10:30:10Z</time>
      </trkpt>
      <trkpt lat="44.65757" lon="5.98998">
        <ele>2305.86</ele>
        <time>2020-09-10T10:30:26Z</time>
      </trkpt>
      <trkpt lat="44.65754" lon="5.99006">
        <ele>2309.22</ele>
        <time>2020-09-10T10:30:40Z</time>
      </trkpt>
      <trkpt lat="44.65756" lon="5.99018">
        <ele>2311.63</ele>
        <time>2020-09-10T10:30:56Z</time>
      </trkpt>
      <trkpt lat="44.65768" lon="5.99025">
        <ele>2314.51</ele>
        <time>2020-09-10T10:31:12Z</time>
      </trkpt>
      <trkpt lat="44.65768" lon="5.99032">
        <ele>2317.4</ele>
        <time>2020-09-10T10:31:28Z</time>
      </trkpt>
      <trkpt lat="44.65767" lon="5.99038">
        <ele>2318.36</ele>
        <time>2020-09-10T10:31:42Z</time>
      </trkpt>
      <trkpt lat="44.65765" lon="5.99038">
        <ele>2318.84</ele>
        <time>2020-09-10T10:32:03Z</time>
      </trkpt>
      <trkpt lat="44.65764" lon="5.99037">
        <ele>2318.84</ele>
        <time>2020-09-10T10:32:22Z</time>
      </trkpt>
      <trkpt lat="44.65762" lon="5.99037">
        <ele>2318.84</ele>
        <time>2020-09-10T10:32:44Z</time>
      </trkpt>
      <trkpt lat="44.65762" lon="5.99036">
        <ele>2319.32</ele>
        <time>2020-09-10T10:33:21Z</time>
      </trkpt>
      <trkpt lat="44.65761" lon="5.99037">
        <ele>2319.32</ele>
        <time>2020-09-10T10:33:44Z</time>
      </trkpt>
      <trkpt lat="44.65762" lon="5.99037">
        <ele>2319.32</ele>
        <time>2020-09-10T10:33:59Z</time>
      </trkpt>
      <trkpt lat="44.65764" lon="5.99037">
        <ele>2319.32</ele>
        <time>2020-09-10T10:34:17Z</time>
      </trkpt>
      <trkpt lat="44.65765" lon="5.99037">
        <ele>2319.32</ele>
        <time>2020-09-10T10:34:46Z</time>
      </trkpt>
      <trkpt lat="44.65765" lon="5.99037">
        <ele>2319.32</ele>
        <time>2020-09-10T10:35:13Z</time>
      </trkpt>
      <trkpt lat="44.65766" lon="5.99038">
        <ele>2319.8</ele>
        <time>2020-09-10T10:35:32Z</time>
      </trkpt>
      <trkpt lat="44.65769" lon="5.99038">
        <ele>2319.8</ele>
        <time>2020-09-10T10:35:50Z</time>
      </trkpt>
      <trkpt lat="44.65765" lon="5.99035">
        <ele>2319.8</ele>
        <time>2020-09-10T10:36:06Z</time>
      </trkpt>
      <trkpt lat="44.65764" lon="5.99035">
        <ele>2319.8</ele>
        <time>2020-09-10T10:36:12Z</time>
      </trkpt>
      <trkpt lat="44.65762" lon="5.99035">
        <ele>2319.8</ele>
        <time>2020-09-10T10:36:29Z</time>
      </trkpt>
      <trkpt lat="44.6576" lon="5.99035">
        <ele>2318.84</ele>
        <time>2020-09-10T10:36:36Z</time>
      </trkpt>
      <trkpt lat="44.65759" lon="5.99035">
        <ele>2318.36</ele>
        <time>2020-09-10T10:36:54Z</time>
      </trkpt>
      <trkpt lat="44.65759" lon="5.99034">
        <ele>2318.36</ele>
        <time>2020-09-10T10:37:20Z</time>
      </trkpt>
      <trkpt lat="44.6576" lon="5.99035">
        <ele>2318.36</ele>
        <time>2020-09-10T10:37:42Z</time>
      </trkpt>
      <trkpt lat="44.65758" lon="5.99032">
        <ele>2318.36</ele>
        <time>2020-09-10T10:38:02Z</time>
      </trkpt>
      <trkpt lat="44.65757" lon="5.99032">
        <ele>2318.36</ele>
        <time>2020-09-10T10:38:36Z</time>
      </trkpt>
      <trkpt lat="44.65757" lon="5.99033">
        <ele>2318.84</ele>
        <time>2020-09-10T10:39:02Z</time>
      </trkpt>
      <trkpt lat="44.6576" lon="5.99033">
        <ele>2318.84</ele>
        <time>2020-09-10T10:39:23Z</time>
      </trkpt>
      <trkpt lat="44.65769" lon="5.99036">
        <ele>2319.8</ele>
        <time>2020-09-10T10:39:34Z</time>
      </trkpt>
      <trkpt lat="44.6577" lon="5.99037">
        <ele>2319.8</ele>
        <time>2020-09-10T10:39:48Z</time>
      </trkpt>
      <trkpt lat="44.6577" lon="5.99038">
        <ele>2320.28</ele>
        <time>2020-09-10T10:40:10Z</time>
      </trkpt>
      <trkpt lat="44.65771" lon="5.99037">
        <ele>2320.28</ele>
        <time>2020-09-10T10:40:24Z</time>
      </trkpt>
      <trkpt lat="44.6577" lon="5.99038">
        <ele>2320.28</ele>
        <time>2020-09-10T10:40:50Z</time>
      </trkpt>
      <trkpt lat="44.6577" lon="5.99036">
        <ele>2320.76</ele>
        <time>2020-09-10T10:40:55Z</time>
      </trkpt>
      <trkpt lat="44.65767" lon="5.99037">
        <ele>2320.76</ele>
        <time>2020-09-10T10:41:09Z</time>
      </trkpt>
      <trkpt lat="44.65766" lon="5.99036">
        <ele>2320.76</ele>
        <time>2020-09-10T10:41:21Z</time>
      </trkpt>
      <trkpt lat="44.65757" lon="5.99033">
        <ele>2319.32</ele>
        <time>2020-09-10T10:41:33Z</time>
      </trkpt>
      <trkpt lat="44.65751" lon="5.9903">
        <ele>2317.4</ele>
        <time>2020-09-10T10:41:48Z</time>
      </trkpt>
      <trkpt lat="44.6575" lon="5.99023">
        <ele>2314.99</ele>
        <time>2020-09-10T10:42:04Z</time>
      </trkpt>
      <trkpt lat="44.6575" lon="5.99025">
        <ele>2315.95</ele>
        <time>2020-09-10T10:42:15Z</time>
      </trkpt>
      <trkpt lat="44.6575" lon="5.99025">
        <ele>2314.51</ele>
        <time>2020-09-10T10:42:18Z</time>
      </trkpt>
      <trkpt lat="44.65749" lon="5.99024">
        <ele>2314.51</ele>
        <time>2020-09-10T10:42:42Z</time>
      </trkpt>
      <trkpt lat="44.65748" lon="5.99024">
        <ele>2314.51</ele>
        <time>2020-09-10T10:43:22Z</time>
      </trkpt>
      <trkpt lat="44.65749" lon="5.99024">
        <ele>2314.51</ele>
        <time>2020-09-10T10:43:55Z</time>
      </trkpt>
      <trkpt lat="44.65749" lon="5.99023">
        <ele>2314.51</ele>
        <time>2020-09-10T10:44:42Z</time>
      </trkpt>
      <trkpt lat="44.65749" lon="5.99024">
        <ele>2314.51</ele>
        <time>2020-09-10T10:45:26Z</time>
      </trkpt>
      <trkpt lat="44.65749" lon="5.99024">
        <ele>2314.51</ele>
        <time>2020-09-10T10:46:08Z</time>
      </trkpt>
      <trkpt lat="44.65749" lon="5.99023">
        <ele>2314.51</ele>
        <time>2020-09-10T10:46:59Z</time>
      </trkpt>
      <trkpt lat="44.65748" lon="5.99024">
        <ele>2314.51</ele>
        <time>2020-09-10T10:47:40Z</time>
      </trkpt>
      <trkpt lat="44.65748" lon="5.99024">
        <ele>2314.51</ele>
        <time>2020-09-10T10:48:24Z</time>
      </trkpt>
      <trkpt lat="44.65748" lon="5.99025">
        <ele>2314.51</ele>
        <time>2020-09-10T10:49:00Z</time>
      </trkpt>
      <trkpt lat="44.65747" lon="5.99024">
        <ele>2314.51</ele>
        <time>2020-09-10T10:49:47Z</time>
      </trkpt>
      <trkpt lat="44.65748" lon="5.99023">
        <ele>2314.51</ele>
        <time>2020-09-10T10:50:33Z</time>
      </trkpt>
      <trkpt lat="44.65747" lon="5.99024">
        <ele>2314.51</ele>
        <time>2020-09-10T10:51:10Z</time>
      </trkpt>
      <trkpt lat="44.65748" lon="5.99024">
        <ele>2314.51</ele>
        <time>2020-09-10T10:51:57Z</time>
      </trkpt>
      <trkpt lat="44.65748" lon="5.99024">
        <ele>2314.51</ele>
        <time>2020-09-10T10:52:42Z</time>
      </trkpt>
      <trkpt lat="44.65748" lon="5.99024">
        <ele>2314.03</ele>
        <time>2020-09-10T10:53:19Z</time>
      </trkpt>
      <trkpt lat="44.65748" lon="5.99024">
        <ele>2314.03</ele>
        <time>2020-09-10T10:54:11Z</time>
      </trkpt>
      <trkpt lat="44.65748" lon="5.99023">
        <ele>2314.03</ele>
        <time>2020-09-10T10:55:07Z</time>
      </trkpt>
      <trkpt lat="44.65748" lon="5.99024">
        <ele>2314.03</ele>
        <time>2020-09-10T10:55:51Z</time>
      </trkpt>
      <trkpt lat="44.65749" lon="5.99024">
        <ele>2314.03</ele>
        <time>2020-09-10T10:56:34Z</time>
      </trkpt>
      <trkpt lat="44.65748" lon="5.99025">
        <ele>2314.03</ele>
        <time>2020-09-10T10:57:25Z</time>
      </trkpt>
      <trkpt lat="44.65748" lon="5.99024">
        <ele>2315.47</ele>
        <time>2020-09-10T10:57:46Z</time>
      </trkpt>
      <trkpt lat="44.65749" lon="5.99024">
        <ele>2315.47</ele>
        <time>2020-09-10T10:58:14Z</time>
      </trkpt>
      <trkpt lat="44.65749" lon="5.99023">
        <ele>2314.03</ele>
        <time>2020-09-10T10:58:49Z</time>
      </trkpt>
      <trkpt lat="44.65749" lon="5.99023">
        <ele>2315.47</ele>
        <time>2020-09-10T10:58:54Z</time>
      </trkpt>
      <trkpt lat="44.65748" lon="5.99023">
        <ele>2314.99</ele>
        <time>2020-09-10T10:59:31Z</time>
      </trkpt>
      <trkpt lat="44.65748" lon="5.99023">
        <ele>2314.99</ele>
        <time>2020-09-10T11:00:07Z</time>
      </trkpt>
      <trkpt lat="44.65747" lon="5.99023">
        <ele>2314.99</ele>
        <time>2020-09-10T11:00:39Z</time>
      </trkpt>
      <trkpt lat="44.65747" lon="5.99023">
        <ele>2314.99</ele>
        <time>2020-09-10T11:01:12Z</time>
      </trkpt>
      <trkpt lat="44.65748" lon="5.99025">
        <ele>2314.99</ele>
        <time>2020-09-10T11:01:42Z</time>
      </trkpt>
      <trkpt lat="44.65747" lon="5.99025">
        <ele>2314.99</ele>
        <time>2020-09-10T11:02:20Z</time>
      </trkpt>
      <trkpt lat="44.65747" lon="5.99023">
        <ele>2314.99</ele>
        <time>2020-09-10T11:02:58Z</time>
      </trkpt>
      <trkpt lat="44.65746" lon="5.99024">
        <ele>2314.99</ele>
        <time>2020-09-10T11:03:37Z</time>
      </trkpt>
      <trkpt lat="44.65749" lon="5.99025">
        <ele>2316.43</ele>
        <time>2020-09-10T11:04:09Z</time>
      </trkpt>
      <trkpt lat="44.65749" lon="5.99025">
        <ele>2316.43</ele>
        <time>2020-09-10T11:04:42Z</time>
      </trkpt>
      <trkpt lat="44.6575" lon="5.99026">
        <ele>2316.43</ele>
        <time>2020-09-10T11:05:20Z</time>
      </trkpt>
      <trkpt lat="44.6575" lon="5.99026">
        <ele>2316.43</ele>
        <time>2020-09-10T11:05:57Z</time>
      </trkpt>
      <trkpt lat="44.65749" lon="5.99027">
        <ele>2316.43</ele>
        <time>2020-09-10T11:06:28Z</time>
      </trkpt>
      <trkpt lat="44.6575" lon="5.99027">
        <ele>2316.43</ele>
        <time>2020-09-10T11:07:09Z</time>
      </trkpt>
      <trkpt lat="44.6575" lon="5.99025">
        <ele>2316.43</ele>
        <time>2020-09-10T11:07:48Z</time>
      </trkpt>
      <trkpt lat="44.65748" lon="5.99024">
        <ele>2315.95</ele>
        <time>2020-09-10T11:08:24Z</time>
      </trkpt>
      <trkpt lat="44.65746" lon="5.99023">
        <ele>2315.95</ele>
        <time>2020-09-10T11:09:08Z</time>
      </trkpt>
      <trkpt lat="44.65745" lon="5.99024">
        <ele>2315.95</ele>
        <time>2020-09-10T11:09:41Z</time>
      </trkpt>
      <trkpt lat="44.65745" lon="5.99023">
        <ele>2315.95</ele>
        <time>2020-09-10T11:10:25Z</time>
      </trkpt>
      <trkpt lat="44.65745" lon="5.99023">
        <ele>2315.95</ele>
        <time>2020-09-10T11:11:00Z</time>
      </trkpt>
      <trkpt lat="44.65746" lon="5.99023">
        <ele>2315.95</ele>
        <time>2020-09-10T11:11:37Z</time>
      </trkpt>
      <trkpt lat="44.65747" lon="5.99023">
        <ele>2315.95</ele>
        <time>2020-09-10T11:12:15Z</time>
      </trkpt>
      <trkpt lat="44.65747" lon="5.99023">
        <ele>2315.95</ele>
        <time>2020-09-10T11:12:58Z</time>
      </trkpt>
      <trkpt lat="44.65747" lon="5.99024">
        <ele>2315.95</ele>
        <time>2020-09-10T11:13:40Z</time>
      </trkpt>
      <trkpt lat="44.65746" lon="5.99024">
        <ele>2315.95</ele>
        <time>2020-09-10T11:14:26Z</time>
      </trkpt>
      <trkpt lat="44.65746" lon="5.99024">
        <ele>2315.47</ele>
        <time>2020-09-10T11:15:04Z</time>
      </trkpt>
      <trkpt lat="44.65746" lon="5.99024">
        <ele>2315.47</ele>
        <time>2020-09-10T11:15:40Z</time>
      </trkpt>
      <trkpt lat="44.65747" lon="5.99023">
        <ele>2316.91</ele>
        <time>2020-09-10T11:16:17Z</time>
      </trkpt>
      <trkpt lat="44.65748" lon="5.99025">
        <ele>2316.91</ele>
        <time>2020-09-10T11:17:00Z</time>
      </trkpt>
      <trkpt lat="44.65748" lon="5.99024">
        <ele>2316.91</ele>
        <time>2020-09-10T11:17:28Z</time>
      </trkpt>
      <trkpt lat="44.65748" lon="5.99023">
        <ele>2315.47</ele>
        <time>2020-09-10T11:17:48Z</time>
      </trkpt>
      <trkpt lat="44.65748" lon="5.99023">
        <ele>2316.91</ele>
        <time>2020-09-10T11:17:50Z</time>
      </trkpt>
      <trkpt lat="44.65747" lon="5.99023">
        <ele>2316.43</ele>
        <time>2020-09-10T11:18:24Z</time>
      </trkpt>
      <trkpt lat="44.65746" lon="5.99023">
        <ele>2315.95</ele>
        <time>2020-09-10T11:19:05Z</time>
      </trkpt>
      <trkpt lat="44.65748" lon="5.99027">
        <ele>2316.91</ele>
        <time>2020-09-10T11:19:36Z</time>
      </trkpt>
      <trkpt lat="44.65748" lon="5.99024">
        <ele>2315.95</ele>
        <time>2020-09-10T11:20:11Z</time>
      </trkpt>
      <trkpt lat="44.65747" lon="5.99025">
        <ele>2315.95</ele>
        <time>2020-09-10T11:20:46Z</time>
      </trkpt>
      <trkpt lat="44.65747" lon="5.99024">
        <ele>2316.43</ele>
        <time>2020-09-10T11:21:24Z</time>
      </trkpt>
      <trkpt lat="44.65746" lon="5.99023">
        <ele>2316.43</ele>
        <time>2020-09-10T11:21:53Z</time>
      </trkpt>
      <trkpt lat="44.65748" lon="5.99023">
        <ele>2316.91</ele>
        <time>2020-09-10T11:22:12Z</time>
      </trkpt>
      <trkpt lat="44.65748" lon="5.99024">
        <ele>2316.43</ele>
        <time>2020-09-10T11:22:47Z</time>
      </trkpt>
      <trkpt lat="44.65749" lon="5.99024">
        <ele>2317.88</ele>
        <time>2020-09-10T11:23:04Z</time>
      </trkpt>
      <trkpt lat="44.65748" lon="5.99025">
        <ele>2317.88</ele>
        <time>2020-09-10T11:23:25Z</time>
      </trkpt>
      <trkpt lat="44.65747" lon="5.99023">
        <ele>2317.88</ele>
        <time>2020-09-10T11:23:45Z</time>
      </trkpt>
      <trkpt lat="44.65739" lon="5.99024">
        <ele>2316.43</ele>
        <time>2020-09-10T11:23:59Z</time>
      </trkpt>
      <trkpt lat="44.65731" lon="5.99026">
        <ele>2314.99</ele>
        <time>2020-09-10T11:24:14Z</time>
      </trkpt>
      <trkpt lat="44.65718" lon="5.99026">
        <ele>2313.55</ele>
        <time>2020-09-10T11:24:28Z</time>
      </trkpt>
      <trkpt lat="44.6571" lon="5.99024">
        <ele>2312.11</ele>
        <time>2020-09-10T11:24:41Z</time>
      </trkpt>
      <trkpt lat="44.65701" lon="5.99021">
        <ele>2310.67</ele>
        <time>2020-09-10T11:24:56Z</time>
      </trkpt>
      <trkpt lat="44.6569" lon="5.99018">
        <ele>2309.22</ele>
        <time>2020-09-10T11:25:10Z</time>
      </trkpt>
      <trkpt lat="44.65685" lon="5.99015">
        <ele>2307.78</ele>
        <time>2020-09-10T11:25:17Z</time>
      </trkpt>
      <trkpt lat="44.65669" lon="5.99011">
        <ele>2305.38</ele>
        <time>2020-09-10T11:25:34Z</time>
      </trkpt>
      <trkpt lat="44.65655" lon="5.99008">
        <ele>2303.46</ele>
        <time>2020-09-10T11:25:49Z</time>
      </trkpt>
      <trkpt lat="44.65641" lon="5.99003">
        <ele>2301.05</ele>
        <time>2020-09-10T11:26:04Z</time>
      </trkpt>
      <trkpt lat="44.65628" lon="5.99">
        <ele>2298.65</ele>
        <time>2020-09-10T11:26:20Z</time>
      </trkpt>
      <trkpt lat="44.65615" lon="5.98993">
        <ele>2295.28</ele>
        <time>2020-09-10T11:26:36Z</time>
      </trkpt>
      <trkpt lat="44.65611" lon="5.98989">
        <ele>2294.32</ele>
        <time>2020-09-10T11:26:49Z</time>
      </trkpt>
      <trkpt lat="44.65601" lon="5.98982">
        <ele>2291.44</ele>
        <time>2020-09-10T11:27:06Z</time>
      </trkpt>
      <trkpt lat="44.65593" lon="5.98976">
        <ele>2288.08</ele>
        <time>2020-09-10T11:27:18Z</time>
      </trkpt>
      <trkpt lat="44.65589" lon="5.98968">
        <ele>2285.67</ele>
        <time>2020-09-10T11:27:32Z</time>
      </trkpt>
      <trkpt lat="44.65581" lon="5.98962">
        <ele>2283.27</ele>
        <time>2020-09-10T11:27:47Z</time>
      </trkpt>
      <trkpt lat="44.65576" lon="5.98952">
        <ele>2279.9</ele>
        <time>2020-09-10T11:28:00Z</time>
      </trkpt>
      <trkpt lat="44.65571" lon="5.98941">
        <ele>2276.06</ele>
        <time>2020-09-10T11:28:14Z</time>
      </trkpt>
      <trkpt lat="44.65568" lon="5.98937">
        <ele>2275.1</ele>
        <time>2020-09-10T11:28:19Z</time>
      </trkpt>
      <trkpt lat="44.65563" lon="5.98929">
        <ele>2273.17</ele>
        <time>2020-09-10T11:28:27Z</time>
      </trkpt>
      <trkpt lat="44.65554" lon="5.98909">
        <ele>2271.73</ele>
        <time>2020-09-10T11:28:42Z</time>
      </trkpt>
      <trkpt lat="44.65544" lon="5.98895">
        <ele>2272.69</ele>
        <time>2020-09-10T11:28:57Z</time>
      </trkpt>
      <trkpt lat="44.65535" lon="5.98881">
        <ele>2273.66</ele>
        <time>2020-09-10T11:29:11Z</time>
      </trkpt>
      <trkpt lat="44.65528" lon="5.98873">
        <ele>2277.02</ele>
        <time>2020-09-10T11:29:26Z</time>
      </trkpt>
      <trkpt lat="44.65521" lon="5.98869">
        <ele>2278.94</ele>
        <time>2020-09-10T11:29:41Z</time>
      </trkpt>
      <trkpt lat="44.65514" lon="5.98864">
        <ele>2280.38</ele>
        <time>2020-09-10T11:29:57Z</time>
      </trkpt>
      <trkpt lat="44.65514" lon="5.98865">
        <ele>2280.87</ele>
        <time>2020-09-10T11:30:24Z</time>
      </trkpt>
      <trkpt lat="44.65514" lon="5.98864">
        <ele>2280.87</ele>
        <time>2020-09-10T11:30:43Z</time>
      </trkpt>
      <trkpt lat="44.65513" lon="5.98864">
        <ele>2280.87</ele>
        <time>2020-09-10T11:31:16Z</time>
      </trkpt>
      <trkpt lat="44.65513" lon="5.98865">
        <ele>2280.38</ele>
        <time>2020-09-10T11:31:53Z</time>
      </trkpt>
      <trkpt lat="44.65512" lon="5.98865">
        <ele>2280.38</ele>
        <time>2020-09-10T11:32:19Z</time>
      </trkpt>
      <trkpt lat="44.655" lon="5.98864">
        <ele>2281.35</ele>
        <time>2020-09-10T11:32:35Z</time>
      </trkpt>
      <trkpt lat="44.65491" lon="5.98861">
        <ele>2283.75</ele>
        <time>2020-09-10T11:32:50Z</time>
      </trkpt>
      <trkpt lat="44.65483" lon="5.9886">
        <ele>2286.63</ele>
        <time>2020-09-10T11:33:03Z</time>
      </trkpt>
      <trkpt lat="44.65472" lon="5.98858">
        <ele>2288.56</ele>
        <time>2020-09-10T11:33:20Z</time>
      </trkpt>
      <trkpt lat="44.65465" lon="5.98858">
        <ele>2289.52</ele>
        <time>2020-09-10T11:33:31Z</time>
      </trkpt>
      <trkpt lat="44.65455" lon="5.98857">
        <ele>2291.92</ele>
        <time>2020-09-10T11:33:46Z</time>
      </trkpt>
      <trkpt lat="44.65448" lon="5.98854">
        <ele>2291.92</ele>
        <time>2020-09-10T11:33:59Z</time>
      </trkpt>
      <trkpt lat="44.65438" lon="5.98852">
        <ele>2291.92</ele>
        <time>2020-09-10T11:34:12Z</time>
      </trkpt>
      <trkpt lat="44.6543" lon="5.98848">
        <ele>2291.92</ele>
        <time>2020-09-10T11:34:24Z</time>
      </trkpt>
      <trkpt lat="44.65421" lon="5.98844">
        <ele>2291.92</ele>
        <time>2020-09-10T11:34:40Z</time>
      </trkpt>
      <trkpt lat="44.65419" lon="5.9884">
        <ele>2291.92</ele>
        <time>2020-09-10T11:35:10Z</time>
      </trkpt>
      <trkpt lat="44.65419" lon="5.98841">
        <ele>2290.48</ele>
        <time>2020-09-10T11:35:37Z</time>
      </trkpt>
      <trkpt lat="44.65419" lon="5.98841">
        <ele>2290.48</ele>
        <time>2020-09-10T11:35:38Z</time>
      </trkpt>
      <trkpt lat="44.65419" lon="5.98841">
        <ele>2290.48</ele>
        <time>2020-09-10T11:36:05Z</time>
      </trkpt>
      <trkpt lat="44.65417" lon="5.98843">
        <ele>2290.48</ele>
        <time>2020-09-10T11:36:32Z</time>
      </trkpt>
      <trkpt lat="44.65407" lon="5.98842">
        <ele>2287.11</ele>
        <time>2020-09-10T11:36:49Z</time>
      </trkpt>
      <trkpt lat="44.65401" lon="5.98842">
        <ele>2284.71</ele>
        <time>2020-09-10T11:37:03Z</time>
      </trkpt>
      <trkpt lat="44.65394" lon="5.98839">
        <ele>2282.31</ele>
        <time>2020-09-10T11:37:18Z</time>
      </trkpt>
      <trkpt lat="44.65393" lon="5.9884">
        <ele>2282.31</ele>
        <time>2020-09-10T11:37:20Z</time>
      </trkpt>
      <trkpt lat="44.65388" lon="5.98836">
        <ele>2280.38</ele>
        <time>2020-09-10T11:37:24Z</time>
      </trkpt>
      <trkpt lat="44.65384" lon="5.98833">
        <ele>2281.83</ele>
        <time>2020-09-10T11:37:29Z</time>
      </trkpt>
      <trkpt lat="44.65371" lon="5.98826">
        <ele>2279.9</ele>
        <time>2020-09-10T11:37:43Z</time>
      </trkpt>
      <trkpt lat="44.65351" lon="5.98818">
        <ele>2278.46</ele>
        <time>2020-09-10T11:38:02Z</time>
      </trkpt>
      <trkpt lat="44.65343" lon="5.98816">
        <ele>2279.9</ele>
        <time>2020-09-10T11:38:20Z</time>
      </trkpt>
      <trkpt lat="44.65334" lon="5.98813">
        <ele>2278.46</ele>
        <time>2020-09-10T11:38:37Z</time>
      </trkpt>
      <trkpt lat="44.65333" lon="5.98813">
        <ele>2277.98</ele>
        <time>2020-09-10T11:38:39Z</time>
      </trkpt>
      <trkpt lat="44.65325" lon="5.98811">
        <ele>2276.54</ele>
        <time>2020-09-10T11:38:48Z</time>
      </trkpt>
      <trkpt lat="44.65311" lon="5.98814">
        <ele>2276.54</ele>
        <time>2020-09-10T11:39:05Z</time>
      </trkpt>
      <trkpt lat="44.65301" lon="5.98809">
        <ele>2275.1</ele>
        <time>2020-09-10T11:39:23Z</time>
      </trkpt>
      <trkpt lat="44.65295" lon="5.98808">
        <ele>2276.54</ele>
        <time>2020-09-10T11:39:31Z</time>
      </trkpt>
      <trkpt lat="44.65294" lon="5.98808">
        <ele>2275.58</ele>
        <time>2020-09-10T11:39:33Z</time>
      </trkpt>
      <trkpt lat="44.65286" lon="5.98804">
        <ele>2273.66</ele>
        <time>2020-09-10T11:39:47Z</time>
      </trkpt>
      <trkpt lat="44.65277" lon="5.988">
        <ele>2269.81</ele>
        <time>2020-09-10T11:40:02Z</time>
      </trkpt>
      <trkpt lat="44.6527" lon="5.98797">
        <ele>2268.37</ele>
        <time>2020-09-10T11:40:11Z</time>
      </trkpt>
      <trkpt lat="44.65261" lon="5.98796">
        <ele>2267.41</ele>
        <time>2020-09-10T11:40:21Z</time>
      </trkpt>
      <trkpt lat="44.6525" lon="5.98792">
        <ele>2265.96</ele>
        <time>2020-09-10T11:40:37Z</time>
      </trkpt>
      <trkpt lat="44.65247" lon="5.9879">
        <ele>2264.52</ele>
        <time>2020-09-10T11:40:44Z</time>
      </trkpt>
      <trkpt lat="44.65237" lon="5.98788">
        <ele>2261.64</ele>
        <time>2020-09-10T11:41:00Z</time>
      </trkpt>
      <trkpt lat="44.65228" lon="5.98789">
        <ele>2259.72</ele>
        <time>2020-09-10T11:41:16Z</time>
      </trkpt>
      <trkpt lat="44.65216" lon="5.98787">
        <ele>2257.79</ele>
        <time>2020-09-10T11:41:34Z</time>
      </trkpt>
      <trkpt lat="44.65208" lon="5.98791">
        <ele>2254.91</ele>
        <time>2020-09-10T11:41:46Z</time>
      </trkpt>
      <trkpt lat="44.65199" lon="5.98796">
        <ele>2252.51</ele>
        <time>2020-09-10T11:42:00Z</time>
      </trkpt>
      <trkpt lat="44.65198" lon="5.98798">
        <ele>2253.95</ele>
        <time>2020-09-10T11:42:03Z</time>
      </trkpt>
      <trkpt lat="44.65196" lon="5.98798">
        <ele>2252.51</ele>
        <time>2020-09-10T11:42:05Z</time>
      </trkpt>
      <trkpt lat="44.65195" lon="5.98799">
        <ele>2251.54</ele>
        <time>2020-09-10T11:42:07Z</time>
      </trkpt>
      <trkpt lat="44.65192" lon="5.988">
        <ele>2250.58</ele>
        <time>2020-09-10T11:42:22Z</time>
      </trkpt>
      <trkpt lat="44.65188" lon="5.98799">
        <ele>2250.1</ele>
        <time>2020-09-10T11:42:42Z</time>
      </trkpt>
      <trkpt lat="44.65183" lon="5.98803">
        <ele>2250.1</ele>
        <time>2020-09-10T11:42:58Z</time>
      </trkpt>
      <trkpt lat="44.65181" lon="5.98804">
        <ele>2249.14</ele>
        <time>2020-09-10T11:43:11Z</time>
      </trkpt>
      <trkpt lat="44.65177" lon="5.98804">
        <ele>2249.14</ele>
        <time>2020-09-10T11:43:32Z</time>
      </trkpt>
      <trkpt lat="44.65173" lon="5.98804">
        <ele>2249.14</ele>
        <time>2020-09-10T11:43:39Z</time>
      </trkpt>
      <trkpt lat="44.65162" lon="5.98805">
        <ele>2248.66</ele>
        <time>2020-09-10T11:43:56Z</time>
      </trkpt>
      <trkpt lat="44.65156" lon="5.98808">
        <ele>2246.26</ele>
        <time>2020-09-10T11:44:10Z</time>
      </trkpt>
      <trkpt lat="44.65151" lon="5.98812">
        <ele>2243.37</ele>
        <time>2020-09-10T11:44:24Z</time>
      </trkpt>
      <trkpt lat="44.65144" lon="5.98813">
        <ele>2240.49</ele>
        <time>2020-09-10T11:44:41Z</time>
      </trkpt>
      <trkpt lat="44.65138" lon="5.98812">
        <ele>2238.09</ele>
        <time>2020-09-10T11:44:54Z</time>
      </trkpt>
      <trkpt lat="44.65137" lon="5.98812">
        <ele>2237.61</ele>
        <time>2020-09-10T11:45:13Z</time>
      </trkpt>
      <trkpt lat="44.65136" lon="5.98814">
        <ele>2236.64</ele>
        <time>2020-09-10T11:45:37Z</time>
      </trkpt>
      <trkpt lat="44.65133" lon="5.98814">
        <ele>2235.2</ele>
        <time>2020-09-10T11:45:53Z</time>
      </trkpt>
      <trkpt lat="44.65128" lon="5.98812">
        <ele>2233.28</ele>
        <time>2020-09-10T11:46:06Z</time>
      </trkpt>
      <trkpt lat="44.65123" lon="5.98817">
        <ele>2231.84</ele>
        <time>2020-09-10T11:46:21Z</time>
      </trkpt>
      <trkpt lat="44.65117" lon="5.98818">
        <ele>2229.43</ele>
        <time>2020-09-10T11:46:34Z</time>
      </trkpt>
      <trkpt lat="44.65115" lon="5.98816">
        <ele>2228.95</ele>
        <time>2020-09-10T11:46:55Z</time>
      </trkpt>
      <trkpt lat="44.6511" lon="5.98817">
        <ele>2227.51</ele>
        <time>2020-09-10T11:47:10Z</time>
      </trkpt>
      <trkpt lat="44.65108" lon="5.98817">
        <ele>2226.07</ele>
        <time>2020-09-10T11:47:24Z</time>
      </trkpt>
      <trkpt lat="44.65107" lon="5.98819">
        <ele>2225.59</ele>
        <time>2020-09-10T11:47:44Z</time>
      </trkpt>
      <trkpt lat="44.65107" lon="5.9882">
        <ele>2226.07</ele>
        <time>2020-09-10T11:48:06Z</time>
      </trkpt>
      <trkpt lat="44.65107" lon="5.98818">
        <ele>2226.07</ele>
        <time>2020-09-10T11:48:38Z</time>
      </trkpt>
      <trkpt lat="44.65105" lon="5.98814">
        <ele>2224.15</ele>
        <time>2020-09-10T11:48:51Z</time>
      </trkpt>
      <trkpt lat="44.651" lon="5.98813">
        <ele>2222.71</ele>
        <time>2020-09-10T11:49:07Z</time>
      </trkpt>
      <trkpt lat="44.65097" lon="5.98811">
        <ele>2220.3</ele>
        <time>2020-09-10T11:49:21Z</time>
      </trkpt>
      <trkpt lat="44.65093" lon="5.9881">
        <ele>2217.9</ele>
        <time>2020-09-10T11:49:34Z</time>
      </trkpt>
      <trkpt lat="44.6509" lon="5.98805">
        <ele>2214.53</ele>
        <time>2020-09-10T11:49:47Z</time>
      </trkpt>
      <trkpt lat="44.65083" lon="5.988">
        <ele>2211.65</ele>
        <time>2020-09-10T11:49:56Z</time>
      </trkpt>
      <trkpt lat="44.65074" lon="5.9879">
        <ele>2209.73</ele>
        <time>2020-09-10T11:50:09Z</time>
      </trkpt>
      <trkpt lat="44.65067" lon="5.98783">
        <ele>2206.84</ele>
        <time>2020-09-10T11:50:25Z</time>
      </trkpt>
      <trkpt lat="44.65064" lon="5.98774">
        <ele>2203.96</ele>
        <time>2020-09-10T11:50:40Z</time>
      </trkpt>
      <trkpt lat="44.65063" lon="5.98764">
        <ele>2201.08</ele>
        <time>2020-09-10T11:50:55Z</time>
      </trkpt>
      <trkpt lat="44.65066" lon="5.98754">
        <ele>2198.19</ele>
        <time>2020-09-10T11:51:08Z</time>
      </trkpt>
      <trkpt lat="44.65069" lon="5.9875">
        <ele>2196.27</ele>
        <time>2020-09-10T11:51:21Z</time>
      </trkpt>
      <trkpt lat="44.6507" lon="5.98744">
        <ele>2193.87</ele>
        <time>2020-09-10T11:51:34Z</time>
      </trkpt>
      <trkpt lat="44.65076" lon="5.98736">
        <ele>2191.46</ele>
        <time>2020-09-10T11:51:54Z</time>
      </trkpt>
      <trkpt lat="44.65078" lon="5.98733">
        <ele>2190.5</ele>
        <time>2020-09-10T11:52:05Z</time>
      </trkpt>
      <trkpt lat="44.65078" lon="5.98727">
        <ele>2187.14</ele>
        <time>2020-09-10T11:52:16Z</time>
      </trkpt>
      <trkpt lat="44.65074" lon="5.98725">
        <ele>2184.25</ele>
        <time>2020-09-10T11:52:31Z</time>
      </trkpt>
      <trkpt lat="44.65069" lon="5.98725">
        <ele>2181.85</ele>
        <time>2020-09-10T11:52:44Z</time>
      </trkpt>
      <trkpt lat="44.65063" lon="5.98718">
        <ele>2178.48</ele>
        <time>2020-09-10T11:52:56Z</time>
      </trkpt>
      <trkpt lat="44.65057" lon="5.98712">
        <ele>2175.12</ele>
        <time>2020-09-10T11:53:11Z</time>
      </trkpt>
      <trkpt lat="44.6505" lon="5.98709">
        <ele>2172.24</ele>
        <time>2020-09-10T11:53:26Z</time>
      </trkpt>
      <trkpt lat="44.65045" lon="5.98706">
        <ele>2170.31</ele>
        <time>2020-09-10T11:53:38Z</time>
      </trkpt>
      <trkpt lat="44.6504" lon="5.98702">
        <ele>2168.39</ele>
        <time>2020-09-10T11:53:51Z</time>
      </trkpt>
      <trkpt lat="44.65039" lon="5.98697">
        <ele>2165.03</ele>
        <time>2020-09-10T11:54:02Z</time>
      </trkpt>
      <trkpt lat="44.65039" lon="5.98691">
        <ele>2162.62</ele>
        <time>2020-09-10T11:54:15Z</time>
      </trkpt>
      <trkpt lat="44.65037" lon="5.98689">
        <ele>2163.58</ele>
        <time>2020-09-10T11:54:23Z</time>
      </trkpt>
      <trkpt lat="44.65035" lon="5.98683">
        <ele>2160.7</ele>
        <time>2020-09-10T11:54:28Z</time>
      </trkpt>
      <trkpt lat="44.65032" lon="5.98676">
        <ele>2157.82</ele>
        <time>2020-09-10T11:54:36Z</time>
      </trkpt>
      <trkpt lat="44.65029" lon="5.98665">
        <ele>2154.45</ele>
        <time>2020-09-10T11:54:50Z</time>
      </trkpt>
      <trkpt lat="44.65025" lon="5.98658">
        <ele>2151.09</ele>
        <time>2020-09-10T11:55:00Z</time>
      </trkpt>
      <trkpt lat="44.65024" lon="5.98651">
        <ele>2147.72</ele>
        <time>2020-09-10T11:55:12Z</time>
      </trkpt>
      <trkpt lat="44.65022" lon="5.98645">
        <ele>2145.8</ele>
        <time>2020-09-10T11:55:25Z</time>
      </trkpt>
      <trkpt lat="44.65021" lon="5.98646">
        <ele>2144.84</ele>
        <time>2020-09-10T11:55:49Z</time>
      </trkpt>
      <trkpt lat="44.6502" lon="5.98642">
        <ele>2143.88</ele>
        <time>2020-09-10T11:56:25Z</time>
      </trkpt>
      <trkpt lat="44.65018" lon="5.98637">
        <ele>2145.32</ele>
        <time>2020-09-10T11:56:47Z</time>
      </trkpt>
      <trkpt lat="44.65017" lon="5.98636">
        <ele>2145.32</ele>
        <time>2020-09-10T11:57:03Z</time>
      </trkpt>
      <trkpt lat="44.65017" lon="5.98637">
        <ele>2145.32</ele>
        <time>2020-09-10T11:57:09Z</time>
      </trkpt>
      <trkpt lat="44.65017" lon="5.98634">
        <ele>2143.88</ele>
        <time>2020-09-10T11:57:12Z</time>
      </trkpt>
      <trkpt lat="44.65015" lon="5.98628">
        <ele>2141.95</ele>
        <time>2020-09-10T11:57:17Z</time>
      </trkpt>
      <trkpt lat="44.65012" lon="5.98628">
        <ele>2140.51</ele>
        <time>2020-09-10T11:57:20Z</time>
      </trkpt>
      <trkpt lat="44.65006" lon="5.98624">
        <ele>2136.67</ele>
        <time>2020-09-10T11:57:31Z</time>
      </trkpt>
      <trkpt lat="44.65003" lon="5.98623">
        <ele>2135.71</ele>
        <time>2020-09-10T11:57:35Z</time>
      </trkpt>
      <trkpt lat="44.65002" lon="5.98619">
        <ele>2134.26</ele>
        <time>2020-09-10T11:57:40Z</time>
      </trkpt>
      <trkpt lat="44.64997" lon="5.98613">
        <ele>2131.86</ele>
        <time>2020-09-10T11:57:48Z</time>
      </trkpt>
      <trkpt lat="44.64992" lon="5.98609">
        <ele>2128.98</ele>
        <time>2020-09-10T11:57:54Z</time>
      </trkpt>
      <trkpt lat="44.6499" lon="5.98601">
        <ele>2127.53</ele>
        <time>2020-09-10T11:58:00Z</time>
      </trkpt>
      <trkpt lat="44.64987" lon="5.98592">
        <ele>2124.65</ele>
        <time>2020-09-10T11:58:08Z</time>
      </trkpt>
      <trkpt lat="44.64982" lon="5.98585">
        <ele>2123.69</ele>
        <time>2020-09-10T11:58:15Z</time>
      </trkpt>
      <trkpt lat="44.6497" lon="5.98573">
        <ele>2119.84</ele>
        <time>2020-09-10T11:58:28Z</time>
      </trkpt>
      <trkpt lat="44.64969" lon="5.9857">
        <ele>2119.36</ele>
        <time>2020-09-10T11:58:30Z</time>
      </trkpt>
      <trkpt lat="44.64953" lon="5.98549">
        <ele>2116.48</ele>
        <time>2020-09-10T11:58:46Z</time>
      </trkpt>
      <trkpt lat="44.6494" lon="5.98529">
        <ele>2114.08</ele>
        <time>2020-09-10T11:59:01Z</time>
      </trkpt>
      <trkpt lat="44.64927" lon="5.9851">
        <ele>2112.63</ele>
        <time>2020-09-10T11:59:17Z</time>
      </trkpt>
      <trkpt lat="44.64925" lon="5.98508">
        <ele>2112.63</ele>
        <time>2020-09-10T11:59:19Z</time>
      </trkpt>
      <trkpt lat="44.64922" lon="5.98506">
        <ele>2112.63</ele>
        <time>2020-09-10T11:59:22Z</time>
      </trkpt>
      <trkpt lat="44.6492" lon="5.98504">
        <ele>2112.15</ele>
        <time>2020-09-10T11:59:25Z</time>
      </trkpt>
      <trkpt lat="44.64901" lon="5.9849">
        <ele>2112.15</ele>
        <time>2020-09-10T11:59:41Z</time>
      </trkpt>
      <trkpt lat="44.64888" lon="5.98476">
        <ele>2109.75</ele>
        <time>2020-09-10T11:59:55Z</time>
      </trkpt>
      <trkpt lat="44.64875" lon="5.98464">
        <ele>2106.87</ele>
        <time>2020-09-10T12:00:10Z</time>
      </trkpt>
      <trkpt lat="44.64869" lon="5.98454">
        <ele>2104.94</ele>
        <time>2020-09-10T12:00:21Z</time>
      </trkpt>
      <trkpt lat="44.64861" lon="5.98447">
        <ele>2101.1</ele>
        <time>2020-09-10T12:00:33Z</time>
      </trkpt>
      <trkpt lat="44.64856" lon="5.98443">
        <ele>2099.66</ele>
        <time>2020-09-10T12:00:41Z</time>
      </trkpt>
      <trkpt lat="44.64849" lon="5.98433">
        <ele>2097.25</ele>
        <time>2020-09-10T12:00:56Z</time>
      </trkpt>
      <trkpt lat="44.64845" lon="5.98422">
        <ele>2093.41</ele>
        <time>2020-09-10T12:01:10Z</time>
      </trkpt>
      <trkpt lat="44.64844" lon="5.98418">
        <ele>2092.45</ele>
        <time>2020-09-10T12:01:17Z</time>
      </trkpt>
      <trkpt lat="44.64841" lon="5.98416">
        <ele>2091</ele>
        <time>2020-09-10T12:01:20Z</time>
      </trkpt>
      <trkpt lat="44.6483" lon="5.98406">
        <ele>2088.6</ele>
        <time>2020-09-10T12:01:36Z</time>
      </trkpt>
      <trkpt lat="44.64827" lon="5.984">
        <ele>2088.12</ele>
        <time>2020-09-10T12:01:41Z</time>
      </trkpt>
      <trkpt lat="44.64824" lon="5.98394">
        <ele>2086.2</ele>
        <time>2020-09-10T12:01:47Z</time>
      </trkpt>
      <trkpt lat="44.64824" lon="5.98393">
        <ele>2086.2</ele>
        <time>2020-09-10T12:01:48Z</time>
      </trkpt>
      <trkpt lat="44.64817" lon="5.98383">
        <ele>2083.31</ele>
        <time>2020-09-10T12:02:04Z</time>
      </trkpt>
      <trkpt lat="44.64809" lon="5.98368">
        <ele>2079.47</ele>
        <time>2020-09-10T12:02:21Z</time>
      </trkpt>
      <trkpt lat="44.64807" lon="5.98363">
        <ele>2078.51</ele>
        <time>2020-09-10T12:02:32Z</time>
      </trkpt>
      <trkpt lat="44.64802" lon="5.98352">
        <ele>2074.66</ele>
        <time>2020-09-10T12:02:47Z</time>
      </trkpt>
      <trkpt lat="44.648" lon="5.98342">
        <ele>2071.78</ele>
        <time>2020-09-10T12:02:59Z</time>
      </trkpt>
      <trkpt lat="44.64795" lon="5.98333">
        <ele>2068.89</ele>
        <time>2020-09-10T12:03:11Z</time>
      </trkpt>
      <trkpt lat="44.64783" lon="5.98319">
        <ele>2065.53</ele>
        <time>2020-09-10T12:03:30Z</time>
      </trkpt>
      <trkpt lat="44.64775" lon="5.98312">
        <ele>2061.68</ele>
        <time>2020-09-10T12:03:44Z</time>
      </trkpt>
      <trkpt lat="44.64774" lon="5.98312">
        <ele>2061.68</ele>
        <time>2020-09-10T12:03:45Z</time>
      </trkpt>
      <trkpt lat="44.64773" lon="5.98309">
        <ele>2060.24</ele>
        <time>2020-09-10T12:03:49Z</time>
      </trkpt>
      <trkpt lat="44.64765" lon="5.98306">
        <ele>2058.32</ele>
        <time>2020-09-10T12:04:03Z</time>
      </trkpt>
      <trkpt lat="44.64754" lon="5.98301">
        <ele>2054.96</ele>
        <time>2020-09-10T12:04:18Z</time>
      </trkpt>
      <trkpt lat="44.64748" lon="5.98293">
        <ele>2052.55</ele>
        <time>2020-09-10T12:04:31Z</time>
      </trkpt>
      <trkpt lat="44.64742" lon="5.98289">
        <ele>2050.63</ele>
        <time>2020-09-10T12:04:42Z</time>
      </trkpt>
      <trkpt lat="44.64734" lon="5.98288">
        <ele>2048.23</ele>
        <time>2020-09-10T12:04:56Z</time>
      </trkpt>
      <trkpt lat="44.64721" lon="5.98287">
        <ele>2045.34</ele>
        <time>2020-09-10T12:05:11Z</time>
      </trkpt>
      <trkpt lat="44.64715" lon="5.98287">
        <ele>2044.86</ele>
        <time>2020-09-10T12:05:17Z</time>
      </trkpt>
      <trkpt lat="44.647" lon="5.98288">
        <ele>2041.98</ele>
        <time>2020-09-10T12:05:34Z</time>
      </trkpt>
      <trkpt lat="44.6469" lon="5.98285">
        <ele>2038.61</ele>
        <time>2020-09-10T12:05:48Z</time>
      </trkpt>
      <trkpt lat="44.6468" lon="5.98289">
        <ele>2036.21</ele>
        <time>2020-09-10T12:06:01Z</time>
      </trkpt>
      <trkpt lat="44.64675" lon="5.9829">
        <ele>2035.25</ele>
        <time>2020-09-10T12:06:08Z</time>
      </trkpt>
      <trkpt lat="44.64667" lon="5.98295">
        <ele>2033.81</ele>
        <time>2020-09-10T12:06:18Z</time>
      </trkpt>
      <trkpt lat="44.64657" lon="5.98304">
        <ele>2030.44</ele>
        <time>2020-09-10T12:06:32Z</time>
      </trkpt>
      <trkpt lat="44.64648" lon="5.98305">
        <ele>2027.56</ele>
        <time>2020-09-10T12:06:44Z</time>
      </trkpt>
      <trkpt lat="44.64643" lon="5.98305">
        <ele>2025.64</ele>
        <time>2020-09-10T12:06:57Z</time>
      </trkpt>
      <trkpt lat="44.64644" lon="5.98306">
        <ele>2025.64</ele>
        <time>2020-09-10T12:07:13Z</time>
      </trkpt>
      <trkpt lat="44.64641" lon="5.98309">
        <ele>2024.67</ele>
        <time>2020-09-10T12:07:33Z</time>
      </trkpt>
      <trkpt lat="44.64633" lon="5.98309">
        <ele>2022.75</ele>
        <time>2020-09-10T12:07:50Z</time>
      </trkpt>
      <trkpt lat="44.6463" lon="5.98313">
        <ele>2021.79</ele>
        <time>2020-09-10T12:08:05Z</time>
      </trkpt>
      <trkpt lat="44.64623" lon="5.98318">
        <ele>2018.91</ele>
        <time>2020-09-10T12:08:19Z</time>
      </trkpt>
      <trkpt lat="44.64616" lon="5.98318">
        <ele>2016.98</ele>
        <time>2020-09-10T12:08:31Z</time>
      </trkpt>
      <trkpt lat="44.64609" lon="5.9832">
        <ele>2014.58</ele>
        <time>2020-09-10T12:08:44Z</time>
      </trkpt>
      <trkpt lat="44.64601" lon="5.98322">
        <ele>2011.7</ele>
        <time>2020-09-10T12:08:58Z</time>
      </trkpt>
      <trkpt lat="44.64594" lon="5.98324">
        <ele>2009.29</ele>
        <time>2020-09-10T12:09:13Z</time>
      </trkpt>
      <trkpt lat="44.64585" lon="5.98324">
        <ele>2006.41</ele>
        <time>2020-09-10T12:09:27Z</time>
      </trkpt>
      <trkpt lat="44.64577" lon="5.98323">
        <ele>2004.01</ele>
        <time>2020-09-10T12:09:41Z</time>
      </trkpt>
      <trkpt lat="44.64567" lon="5.98324">
        <ele>2001.12</ele>
        <time>2020-09-10T12:09:55Z</time>
      </trkpt>
      <trkpt lat="44.64558" lon="5.98325">
        <ele>1998.24</ele>
        <time>2020-09-10T12:10:11Z</time>
      </trkpt>
      <trkpt lat="44.64553" lon="5.98327">
        <ele>1996.32</ele>
        <time>2020-09-10T12:10:24Z</time>
      </trkpt>
      <trkpt lat="44.64542" lon="5.98328">
        <ele>1993.43</ele>
        <time>2020-09-10T12:10:39Z</time>
      </trkpt>
      <trkpt lat="44.64533" lon="5.98327">
        <ele>1991.51</ele>
        <time>2020-09-10T12:10:55Z</time>
      </trkpt>
      <trkpt lat="44.64524" lon="5.98324">
        <ele>1988.62</ele>
        <time>2020-09-10T12:11:08Z</time>
      </trkpt>
      <trkpt lat="44.64516" lon="5.9832">
        <ele>1985.26</ele>
        <time>2020-09-10T12:11:23Z</time>
      </trkpt>
      <trkpt lat="44.64507" lon="5.98315">
        <ele>1981.9</ele>
        <time>2020-09-10T12:11:39Z</time>
      </trkpt>
      <trkpt lat="44.64499" lon="5.98313">
        <ele>1979.97</ele>
        <time>2020-09-10T12:11:52Z</time>
      </trkpt>
      <trkpt lat="44.64488" lon="5.98311">
        <ele>1977.09</ele>
        <time>2020-09-10T12:12:08Z</time>
      </trkpt>
      <trkpt lat="44.64482" lon="5.98309">
        <ele>1973.72</ele>
        <time>2020-09-10T12:12:19Z</time>
      </trkpt>
      <trkpt lat="44.64474" lon="5.98306">
        <ele>1970.36</ele>
        <time>2020-09-10T12:12:32Z</time>
      </trkpt>
      <trkpt lat="44.64466" lon="5.98307">
        <ele>1967.96</ele>
        <time>2020-09-10T12:12:46Z</time>
      </trkpt>
      <trkpt lat="44.64458" lon="5.98304">
        <ele>1964.11</ele>
        <time>2020-09-10T12:12:59Z</time>
      </trkpt>
      <trkpt lat="44.64454" lon="5.98303">
        <ele>1963.63</ele>
        <time>2020-09-10T12:13:05Z</time>
      </trkpt>
      <trkpt lat="44.64444" lon="5.98303">
        <ele>1959.78</ele>
        <time>2020-09-10T12:13:18Z</time>
      </trkpt>
      <trkpt lat="44.64431" lon="5.98301">
        <ele>1956.42</ele>
        <time>2020-09-10T12:13:34Z</time>
      </trkpt>
      <trkpt lat="44.64417" lon="5.98299">
        <ele>1954.5</ele>
        <time>2020-09-10T12:13:47Z</time>
      </trkpt>
      <trkpt lat="44.64403" lon="5.98299">
        <ele>1952.09</ele>
        <time>2020-09-10T12:14:03Z</time>
      </trkpt>
      <trkpt lat="44.64391" lon="5.98293">
        <ele>1949.69</ele>
        <time>2020-09-10T12:14:20Z</time>
      </trkpt>
      <trkpt lat="44.64383" lon="5.98288">
        <ele>1946.33</ele>
        <time>2020-09-10T12:14:32Z</time>
      </trkpt>
      <trkpt lat="44.64373" lon="5.98284">
        <ele>1942.48</ele>
        <time>2020-09-10T12:14:47Z</time>
      </trkpt>
      <trkpt lat="44.64364" lon="5.98275">
        <ele>1939.6</ele>
        <time>2020-09-10T12:15:02Z</time>
      </trkpt>
      <trkpt lat="44.64363" lon="5.98273">
        <ele>1939.12</ele>
        <time>2020-09-10T12:15:04Z</time>
      </trkpt>
      <trkpt lat="44.64361" lon="5.98258">
        <ele>1935.27</ele>
        <time>2020-09-10T12:15:19Z</time>
      </trkpt>
      <trkpt lat="44.64361" lon="5.98257">
        <ele>1935.27</ele>
        <time>2020-09-10T12:15:20Z</time>
      </trkpt>
      <trkpt lat="44.64356" lon="5.98241">
        <ele>1931.91</ele>
        <time>2020-09-10T12:15:34Z</time>
      </trkpt>
      <trkpt lat="44.64349" lon="5.98223">
        <ele>1928.54</ele>
        <time>2020-09-10T12:15:50Z</time>
      </trkpt>
      <trkpt lat="44.64339" lon="5.98201">
        <ele>1926.14</ele>
        <time>2020-09-10T12:16:09Z</time>
      </trkpt>
      <trkpt lat="44.64337" lon="5.98197">
        <ele>1925.18</ele>
        <time>2020-09-10T12:16:14Z</time>
      </trkpt>
      <trkpt lat="44.64336" lon="5.98194">
        <ele>1924.22</ele>
        <time>2020-09-10T12:16:29Z</time>
      </trkpt>
      <trkpt lat="44.64332" lon="5.98183">
        <ele>1922.77</ele>
        <time>2020-09-10T12:16:52Z</time>
      </trkpt>
      <trkpt lat="44.64328" lon="5.98169">
        <ele>1920.85</ele>
        <time>2020-09-10T12:17:07Z</time>
      </trkpt>
      <trkpt lat="44.64327" lon="5.98168">
        <ele>1920.85</ele>
        <time>2020-09-10T12:17:08Z</time>
      </trkpt>
      <trkpt lat="44.64323" lon="5.98156">
        <ele>1918.93</ele>
        <time>2020-09-10T12:17:22Z</time>
      </trkpt>
      <trkpt lat="44.6432" lon="5.98141">
        <ele>1917.01</ele>
        <time>2020-09-10T12:17:36Z</time>
      </trkpt>
      <trkpt lat="44.64316" lon="5.98124">
        <ele>1913.16</ele>
        <time>2020-09-10T12:17:50Z</time>
      </trkpt>
      <trkpt lat="44.64315" lon="5.98109">
        <ele>1910.76</ele>
        <time>2020-09-10T12:18:02Z</time>
      </trkpt>
      <trkpt lat="44.64311" lon="5.98088">
        <ele>1909.32</ele>
        <time>2020-09-10T12:18:17Z</time>
      </trkpt>
      <trkpt lat="44.6431" lon="5.98063">
        <ele>1906.43</ele>
        <time>2020-09-10T12:18:34Z</time>
      </trkpt>
      <trkpt lat="44.64311" lon="5.98054">
        <ele>1905.47</ele>
        <time>2020-09-10T12:18:40Z</time>
      </trkpt>
      <trkpt lat="44.64315" lon="5.98029">
        <ele>1902.59</ele>
        <time>2020-09-10T12:18:57Z</time>
      </trkpt>
      <trkpt lat="44.64319" lon="5.98006">
        <ele>1900.18</ele>
        <time>2020-09-10T12:19:13Z</time>
      </trkpt>
      <trkpt lat="44.64322" lon="5.97982">
        <ele>1897.3</ele>
        <time>2020-09-10T12:19:29Z</time>
      </trkpt>
      <trkpt lat="44.64325" lon="5.97961">
        <ele>1894.9</ele>
        <time>2020-09-10T12:19:44Z</time>
      </trkpt>
      <trkpt lat="44.64328" lon="5.97951">
        <ele>1892.97</ele>
        <time>2020-09-10T12:19:52Z</time>
      </trkpt>
      <trkpt lat="44.64326" lon="5.97931">
        <ele>1890.09</ele>
        <time>2020-09-10T12:20:06Z</time>
      </trkpt>
      <trkpt lat="44.64327" lon="5.97914">
        <ele>1888.65</ele>
        <time>2020-09-10T12:20:19Z</time>
      </trkpt>
      <trkpt lat="44.64331" lon="5.97899">
        <ele>1886.24</ele>
        <time>2020-09-10T12:20:32Z</time>
      </trkpt>
      <trkpt lat="44.64334" lon="5.97896">
        <ele>1885.76</ele>
        <time>2020-09-10T12:20:55Z</time>
      </trkpt>
      <trkpt lat="44.64334" lon="5.97893">
        <ele>1885.28</ele>
        <time>2020-09-10T12:21:21Z</time>
      </trkpt>
      <trkpt lat="44.64337" lon="5.9788">
        <ele>1881.92</ele>
        <time>2020-09-10T12:21:35Z</time>
      </trkpt>
      <trkpt lat="44.64343" lon="5.97873">
        <ele>1880.96</ele>
        <time>2020-09-10T12:21:47Z</time>
      </trkpt>
      <trkpt lat="44.64346" lon="5.97872">
        <ele>1880.96</ele>
        <time>2020-09-10T12:21:51Z</time>
      </trkpt>
      <trkpt lat="44.64359" lon="5.97871">
        <ele>1879.51</ele>
        <time>2020-09-10T12:22:06Z</time>
      </trkpt>
      <trkpt lat="44.64372" lon="5.97863">
        <ele>1877.59</ele>
        <time>2020-09-10T12:22:22Z</time>
      </trkpt>
      <trkpt lat="44.64382" lon="5.9786">
        <ele>1876.15</ele>
        <time>2020-09-10T12:22:33Z</time>
      </trkpt>
      <trkpt lat="44.64386" lon="5.97859">
        <ele>1875.67</ele>
        <time>2020-09-10T12:22:37Z</time>
      </trkpt>
      <trkpt lat="44.64388" lon="5.97856">
        <ele>1875.19</ele>
        <time>2020-09-10T12:22:39Z</time>
      </trkpt>
      <trkpt lat="44.64402" lon="5.97844">
        <ele>1873.75</ele>
        <time>2020-09-10T12:22:56Z</time>
      </trkpt>
      <trkpt lat="44.64409" lon="5.97836">
        <ele>1872.3</ele>
        <time>2020-09-10T12:23:10Z</time>
      </trkpt>
      <trkpt lat="44.6441" lon="5.97835">
        <ele>1871.82</ele>
        <time>2020-09-10T12:23:27Z</time>
      </trkpt>
      <trkpt lat="44.64414" lon="5.97827">
        <ele>1870.86</ele>
        <time>2020-09-10T12:23:45Z</time>
      </trkpt>
      <trkpt lat="44.64423" lon="5.97817">
        <ele>1869.9</ele>
        <time>2020-09-10T12:24:00Z</time>
      </trkpt>
      <trkpt lat="44.64427" lon="5.97809">
        <ele>1868.94</ele>
        <time>2020-09-10T12:24:13Z</time>
      </trkpt>
      <trkpt lat="44.64427" lon="5.97805">
        <ele>1868.94</ele>
        <time>2020-09-10T12:24:41Z</time>
      </trkpt>
      <trkpt lat="44.64427" lon="5.97801">
        <ele>1867.98</ele>
        <time>2020-09-10T12:25:14Z</time>
      </trkpt>
      <trkpt lat="44.64428" lon="5.97805">
        <ele>1867.98</ele>
        <time>2020-09-10T12:25:45Z</time>
      </trkpt>
      <trkpt lat="44.64426" lon="5.97801">
        <ele>1867.98</ele>
        <time>2020-09-10T12:25:58Z</time>
      </trkpt>
      <trkpt lat="44.64425" lon="5.97799">
        <ele>1867.98</ele>
        <time>2020-09-10T12:26:21Z</time>
      </trkpt>
      <trkpt lat="44.64423" lon="5.97797">
        <ele>1868.46</ele>
        <time>2020-09-10T12:26:40Z</time>
      </trkpt>
      <trkpt lat="44.64417" lon="5.97795">
        <ele>1867.98</ele>
        <time>2020-09-10T12:27:06Z</time>
      </trkpt>
      <trkpt lat="44.64417" lon="5.97795">
        <ele>1867.98</ele>
        <time>2020-09-10T12:27:07Z</time>
      </trkpt>
      <trkpt lat="44.64421" lon="5.97796">
        <ele>1867.98</ele>
        <time>2020-09-10T12:27:38Z</time>
      </trkpt>
      <trkpt lat="44.64421" lon="5.97795">
        <ele>1867.98</ele>
        <time>2020-09-10T12:28:07Z</time>
      </trkpt>
      <trkpt lat="44.64424" lon="5.97799">
        <ele>1868.94</ele>
        <time>2020-09-10T12:28:34Z</time>
      </trkpt>
      <trkpt lat="44.64422" lon="5.97794">
        <ele>1868.46</ele>
        <time>2020-09-10T12:29:07Z</time>
      </trkpt>
      <trkpt lat="44.64421" lon="5.97792">
        <ele>1868.46</ele>
        <time>2020-09-10T12:29:46Z</time>
      </trkpt>
      <trkpt lat="44.64424" lon="5.978">
        <ele>1868.46</ele>
        <time>2020-09-10T12:30:21Z</time>
      </trkpt>
      <trkpt lat="44.64421" lon="5.97793">
        <ele>1868.46</ele>
        <time>2020-09-10T12:30:53Z</time>
      </trkpt>
      <trkpt lat="44.6442" lon="5.97792">
        <ele>1868.46</ele>
        <time>2020-09-10T12:31:25Z</time>
      </trkpt>
      <trkpt lat="44.6442" lon="5.97794">
        <ele>1868.46</ele>
        <time>2020-09-10T12:31:58Z</time>
      </trkpt>
      <trkpt lat="44.64422" lon="5.97796">
        <ele>1868.46</ele>
        <time>2020-09-10T12:32:25Z</time>
      </trkpt>
      <trkpt lat="44.6442" lon="5.97795">
        <ele>1868.46</ele>
        <time>2020-09-10T12:32:58Z</time>
      </trkpt>
      <trkpt lat="44.6442" lon="5.97792">
        <ele>1867.98</ele>
        <time>2020-09-10T12:33:30Z</time>
      </trkpt>
      <trkpt lat="44.64422" lon="5.97796">
        <ele>1867.98</ele>
        <time>2020-09-10T12:34:06Z</time>
      </trkpt>
      <trkpt lat="44.6442" lon="5.97792">
        <ele>1867.98</ele>
        <time>2020-09-10T12:34:38Z</time>
      </trkpt>
      <trkpt lat="44.64422" lon="5.97797">
        <ele>1868.46</ele>
        <time>2020-09-10T12:35:07Z</time>
      </trkpt>
      <trkpt lat="44.64424" lon="5.97801">
        <ele>1868.46</ele>
        <time>2020-09-10T12:35:39Z</time>
      </trkpt>
      <trkpt lat="44.64423" lon="5.97798">
        <ele>1867.98</ele>
        <time>2020-09-10T12:36:05Z</time>
      </trkpt>
      <trkpt lat="44.64423" lon="5.97799">
        <ele>1867.98</ele>
        <time>2020-09-10T12:36:35Z</time>
      </trkpt>
      <trkpt lat="44.64423" lon="5.97799">
        <ele>1867.98</ele>
        <time>2020-09-10T12:37:11Z</time>
      </trkpt>
      <trkpt lat="44.64423" lon="5.97799">
        <ele>1867.98</ele>
        <time>2020-09-10T12:37:38Z</time>
      </trkpt>
      <trkpt lat="44.64423" lon="5.97799">
        <ele>1867.5</ele>
        <time>2020-09-10T12:38:10Z</time>
      </trkpt>
      <trkpt lat="44.64423" lon="5.97799">
        <ele>1867.5</ele>
        <time>2020-09-10T12:38:36Z</time>
      </trkpt>
      <trkpt lat="44.64422" lon="5.97799">
        <ele>1867.5</ele>
        <time>2020-09-10T12:39:08Z</time>
      </trkpt>
      <trkpt lat="44.64423" lon="5.97798">
        <ele>1867.02</ele>
        <time>2020-09-10T12:39:38Z</time>
      </trkpt>
      <trkpt lat="44.64423" lon="5.97798">
        <ele>1867.02</ele>
        <time>2020-09-10T12:40:07Z</time>
      </trkpt>
      <trkpt lat="44.64423" lon="5.97798">
        <ele>1867.02</ele>
        <time>2020-09-10T12:40:45Z</time>
      </trkpt>
      <trkpt lat="44.64423" lon="5.97798">
        <ele>1866.54</ele>
        <time>2020-09-10T12:41:23Z</time>
      </trkpt>
      <trkpt lat="44.64423" lon="5.97798">
        <ele>1866.54</ele>
        <time>2020-09-10T12:41:59Z</time>
      </trkpt>
      <trkpt lat="44.64422" lon="5.97798">
        <ele>1866.06</ele>
        <time>2020-09-10T12:42:40Z</time>
      </trkpt>
      <trkpt lat="44.64421" lon="5.97797">
        <ele>1866.06</ele>
        <time>2020-09-10T12:43:15Z</time>
      </trkpt>
      <trkpt lat="44.64421" lon="5.97796">
        <ele>1865.58</ele>
        <time>2020-09-10T12:43:52Z</time>
      </trkpt>
      <trkpt lat="44.64423" lon="5.97797">
        <ele>1865.58</ele>
        <time>2020-09-10T12:44:22Z</time>
      </trkpt>
      <trkpt lat="44.64424" lon="5.97797">
        <ele>1865.58</ele>
        <time>2020-09-10T12:44:53Z</time>
      </trkpt>
      <trkpt lat="44.64424" lon="5.97798">
        <ele>1865.58</ele>
        <time>2020-09-10T12:45:22Z</time>
      </trkpt>
      <trkpt lat="44.64424" lon="5.97796">
        <ele>1866.54</ele>
        <time>2020-09-10T12:45:59Z</time>
      </trkpt>
      <trkpt lat="44.64423" lon="5.97797">
        <ele>1866.06</ele>
        <time>2020-09-10T12:46:27Z</time>
      </trkpt>
      <trkpt lat="44.64421" lon="5.97798">
        <ele>1865.58</ele>
        <time>2020-09-10T12:47:02Z</time>
      </trkpt>
      <trkpt lat="44.64422" lon="5.97798">
        <ele>1865.58</ele>
        <time>2020-09-10T12:47:36Z</time>
      </trkpt>
      <trkpt lat="44.64422" lon="5.97799">
        <ele>1865.09</ele>
        <time>2020-09-10T12:48:22Z</time>
      </trkpt>
      <trkpt lat="44.64422" lon="5.97799">
        <ele>1865.09</ele>
        <time>2020-09-10T12:49:03Z</time>
      </trkpt>
      <trkpt lat="44.64422" lon="5.97798">
        <ele>1865.09</ele>
        <time>2020-09-10T12:49:46Z</time>
      </trkpt>
      <trkpt lat="44.64423" lon="5.97797">
        <ele>1865.09</ele>
        <time>2020-09-10T12:50:25Z</time>
      </trkpt>
      <trkpt lat="44.64422" lon="5.97797">
        <ele>1864.61</ele>
        <time>2020-09-10T12:50:55Z</time>
      </trkpt>
      <trkpt lat="44.64422" lon="5.97798">
        <ele>1864.61</ele>
        <time>2020-09-10T12:51:26Z</time>
      </trkpt>
      <trkpt lat="44.64422" lon="5.97798">
        <ele>1864.61</ele>
        <time>2020-09-10T12:51:54Z</time>
      </trkpt>
      <trkpt lat="44.64421" lon="5.97797">
        <ele>1864.61</ele>
        <time>2020-09-10T12:52:32Z</time>
      </trkpt>
      <trkpt lat="44.64422" lon="5.97796">
        <ele>1864.61</ele>
        <time>2020-09-10T12:52:58Z</time>
      </trkpt>
      <trkpt lat="44.64422" lon="5.97796">
        <ele>1864.13</ele>
        <time>2020-09-10T12:53:40Z</time>
      </trkpt>
      <trkpt lat="44.64422" lon="5.97797">
        <ele>1864.13</ele>
        <time>2020-09-10T12:54:15Z</time>
      </trkpt>
      <trkpt lat="44.64423" lon="5.97797">
        <ele>1864.13</ele>
        <time>2020-09-10T12:54:48Z</time>
      </trkpt>
      <trkpt lat="44.64422" lon="5.97797">
        <ele>1863.65</ele>
        <time>2020-09-10T12:55:32Z</time>
      </trkpt>
      <trkpt lat="44.64423" lon="5.97798">
        <ele>1863.65</ele>
        <time>2020-09-10T12:56:00Z</time>
      </trkpt>
      <trkpt lat="44.64423" lon="5.97795">
        <ele>1863.65</ele>
        <time>2020-09-10T12:56:30Z</time>
      </trkpt>
      <trkpt lat="44.64425" lon="5.97799">
        <ele>1863.65</ele>
        <time>2020-09-10T12:56:53Z</time>
      </trkpt>
      <trkpt lat="44.64429" lon="5.97799">
        <ele>1863.65</ele>
        <time>2020-09-10T12:57:08Z</time>
      </trkpt>
      <trkpt lat="44.64434" lon="5.97798">
        <ele>1862.69</ele>
        <time>2020-09-10T12:57:21Z</time>
      </trkpt>
      <trkpt lat="44.64441" lon="5.97792">
        <ele>1860.29</ele>
        <time>2020-09-10T12:57:37Z</time>
      </trkpt>
      <trkpt lat="44.64449" lon="5.97781">
        <ele>1858.37</ele>
        <time>2020-09-10T12:57:52Z</time>
      </trkpt>
      <trkpt lat="44.64454" lon="5.97777">
        <ele>1856.92</ele>
        <time>2020-09-10T12:58:03Z</time>
      </trkpt>
      <trkpt lat="44.64457" lon="5.97776">
        <ele>1856.92</ele>
        <time>2020-09-10T12:58:07Z</time>
      </trkpt>
      <trkpt lat="44.64459" lon="5.97774">
        <ele>1855.48</ele>
        <time>2020-09-10T12:58:12Z</time>
      </trkpt>
      <trkpt lat="44.64464" lon="5.97769">
        <ele>1854.52</ele>
        <time>2020-09-10T12:58:19Z</time>
      </trkpt>
      <trkpt lat="44.64467" lon="5.97768">
        <ele>1854.04</ele>
        <time>2020-09-10T12:58:23Z</time>
      </trkpt>
      <trkpt lat="44.64473" lon="5.97755">
        <ele>1852.12</ele>
        <time>2020-09-10T12:58:37Z</time>
      </trkpt>
      <trkpt lat="44.64476" lon="5.97751">
        <ele>1850.68</ele>
        <time>2020-09-10T12:58:41Z</time>
      </trkpt>
      <trkpt lat="44.64484" lon="5.97743">
        <ele>1849.71</ele>
        <time>2020-09-10T12:58:52Z</time>
      </trkpt>
      <trkpt lat="44.64492" lon="5.97733">
        <ele>1846.83</ele>
        <time>2020-09-10T12:59:06Z</time>
      </trkpt>
      <trkpt lat="44.64504" lon="5.97727">
        <ele>1844.43</ele>
        <time>2020-09-10T12:59:22Z</time>
      </trkpt>
      <trkpt lat="44.64508" lon="5.97711">
        <ele>1842.02</ele>
        <time>2020-09-10T12:59:37Z</time>
      </trkpt>
      <trkpt lat="44.64513" lon="5.97698">
        <ele>1839.14</ele>
        <time>2020-09-10T12:59:51Z</time>
      </trkpt>
      <trkpt lat="44.64515" lon="5.97696">
        <ele>1839.14</ele>
        <time>2020-09-10T12:59:54Z</time>
      </trkpt>
      <trkpt lat="44.6452" lon="5.97683">
        <ele>1836.26</ele>
        <time>2020-09-10T13:00:09Z</time>
      </trkpt>
      <trkpt lat="44.64528" lon="5.97671">
        <ele>1834.33</ele>
        <time>2020-09-10T13:00:23Z</time>
      </trkpt>
      <trkpt lat="44.64536" lon="5.9766">
        <ele>1831.93</ele>
        <time>2020-09-10T13:00:38Z</time>
      </trkpt>
      <trkpt lat="44.64541" lon="5.97656">
        <ele>1830.49</ele>
        <time>2020-09-10T13:00:46Z</time>
      </trkpt>
      <trkpt lat="44.64544" lon="5.97647">
        <ele>1828.56</ele>
        <time>2020-09-10T13:00:57Z</time>
      </trkpt>
      <trkpt lat="44.6455" lon="5.97636">
        <ele>1827.6</ele>
        <time>2020-09-10T13:01:11Z</time>
      </trkpt>
      <trkpt lat="44.64555" lon="5.97623">
        <ele>1826.64</ele>
        <time>2020-09-10T13:01:24Z</time>
      </trkpt>
      <trkpt lat="44.64567" lon="5.97604">
        <ele>1825.2</ele>
        <time>2020-09-10T13:01:41Z</time>
      </trkpt>
      <trkpt lat="44.64575" lon="5.97597">
        <ele>1821.84</ele>
        <time>2020-09-10T13:01:51Z</time>
      </trkpt>
      <trkpt lat="44.64587" lon="5.9759">
        <ele>1817.99</ele>
        <time>2020-09-10T13:02:04Z</time>
      </trkpt>
      <trkpt lat="44.64596" lon="5.97589">
        <ele>1815.59</ele>
        <time>2020-09-10T13:02:13Z</time>
      </trkpt>
      <trkpt lat="44.64599" lon="5.97587">
        <ele>1815.59</ele>
        <time>2020-09-10T13:02:16Z</time>
      </trkpt>
      <trkpt lat="44.64604" lon="5.97585">
        <ele>1815.11</ele>
        <time>2020-09-10T13:02:20Z</time>
      </trkpt>
      <trkpt lat="44.6462" lon="5.97576">
        <ele>1813.66</ele>
        <time>2020-09-10T13:02:36Z</time>
      </trkpt>
      <trkpt lat="44.64634" lon="5.97571">
        <ele>1810.78</ele>
        <time>2020-09-10T13:02:51Z</time>
      </trkpt>
      <trkpt lat="44.64639" lon="5.9757">
        <ele>1810.3</ele>
        <time>2020-09-10T13:02:56Z</time>
      </trkpt>
      <trkpt lat="44.64644" lon="5.9757">
        <ele>1808.86</ele>
        <time>2020-09-10T13:03:01Z</time>
      </trkpt>
      <trkpt lat="44.6465" lon="5.97565">
        <ele>1807.9</ele>
        <time>2020-09-10T13:03:08Z</time>
      </trkpt>
      <trkpt lat="44.64658" lon="5.97551">
        <ele>1806.45</ele>
        <time>2020-09-10T13:03:22Z</time>
      </trkpt>
      <trkpt lat="44.64659" lon="5.9755">
        <ele>1805.49</ele>
        <time>2020-09-10T13:03:23Z</time>
      </trkpt>
      <trkpt lat="44.6466" lon="5.97545">
        <ele>1805.49</ele>
        <time>2020-09-10T13:03:27Z</time>
      </trkpt>
      <trkpt lat="44.64669" lon="5.97531">
        <ele>1801.65</ele>
        <time>2020-09-10T13:03:42Z</time>
      </trkpt>
      <trkpt lat="44.64678" lon="5.97519">
        <ele>1799.24</ele>
        <time>2020-09-10T13:03:57Z</time>
      </trkpt>
      <trkpt lat="44.64683" lon="5.97507">
        <ele>1797.32</ele>
        <time>2020-09-10T13:04:10Z</time>
      </trkpt>
      <trkpt lat="44.64693" lon="5.97497">
        <ele>1794.92</ele>
        <time>2020-09-10T13:04:26Z</time>
      </trkpt>
      <trkpt lat="44.64701" lon="5.97487">
        <ele>1792.03</ele>
        <time>2020-09-10T13:04:40Z</time>
      </trkpt>
      <trkpt lat="44.64707" lon="5.97474">
        <ele>1791.55</ele>
        <time>2020-09-10T13:04:54Z</time>
      </trkpt>
      <trkpt lat="44.64717" lon="5.97452">
        <ele>1789.63</ele>
        <time>2020-09-10T13:05:11Z</time>
      </trkpt>
      <trkpt lat="44.64731" lon="5.97437">
        <ele>1787.71</ele>
        <time>2020-09-10T13:05:27Z</time>
      </trkpt>
      <trkpt lat="44.64739" lon="5.97434">
        <ele>1787.71</ele>
        <time>2020-09-10T13:05:35Z</time>
      </trkpt>
      <trkpt lat="44.64752" lon="5.97421">
        <ele>1786.27</ele>
        <time>2020-09-10T13:05:51Z</time>
      </trkpt>
      <trkpt lat="44.64766" lon="5.97414">
        <ele>1785.79</ele>
        <time>2020-09-10T13:06:06Z</time>
      </trkpt>
      <trkpt lat="44.64777" lon="5.97403">
        <ele>1784.82</ele>
        <time>2020-09-10T13:06:21Z</time>
      </trkpt>
      <trkpt lat="44.64789" lon="5.97396">
        <ele>1781.94</ele>
        <time>2020-09-10T13:06:35Z</time>
      </trkpt>
      <trkpt lat="44.64792" lon="5.97395">
        <ele>1781.94</ele>
        <time>2020-09-10T13:06:38Z</time>
      </trkpt>
      <trkpt lat="44.64796" lon="5.97395">
        <ele>1780.98</ele>
        <time>2020-09-10T13:06:41Z</time>
      </trkpt>
      <trkpt lat="44.64804" lon="5.9739">
        <ele>1779.06</ele>
        <time>2020-09-10T13:06:49Z</time>
      </trkpt>
      <trkpt lat="44.64811" lon="5.97388">
        <ele>1778.1</ele>
        <time>2020-09-10T13:06:55Z</time>
      </trkpt>
      <trkpt lat="44.64818" lon="5.97388">
        <ele>1776.65</ele>
        <time>2020-09-10T13:07:09Z</time>
      </trkpt>
      <trkpt lat="44.64819" lon="5.97388">
        <ele>1775.69</ele>
        <time>2020-09-10T13:07:22Z</time>
      </trkpt>
      <trkpt lat="44.64823" lon="5.97387">
        <ele>1775.69</ele>
        <time>2020-09-10T13:07:26Z</time>
      </trkpt>
      <trkpt lat="44.64838" lon="5.97374">
        <ele>1773.29</ele>
        <time>2020-09-10T13:07:42Z</time>
      </trkpt>
      <trkpt lat="44.64852" lon="5.97359">
        <ele>1770.89</ele>
        <time>2020-09-10T13:07:58Z</time>
      </trkpt>
      <trkpt lat="44.64855" lon="5.97357">
        <ele>1770.41</ele>
        <time>2020-09-10T13:08:01Z</time>
      </trkpt>
      <trkpt lat="44.64871" lon="5.97356">
        <ele>1768</ele>
        <time>2020-09-10T13:08:18Z</time>
      </trkpt>
      <trkpt lat="44.6488" lon="5.97354">
        <ele>1766.56</ele>
        <time>2020-09-10T13:08:31Z</time>
      </trkpt>
      <trkpt lat="44.64881" lon="5.97355">
        <ele>1766.08</ele>
        <time>2020-09-10T13:08:52Z</time>
      </trkpt>
      <trkpt lat="44.64881" lon="5.97355">
        <ele>1766.08</ele>
        <time>2020-09-10T13:09:17Z</time>
      </trkpt>
      <trkpt lat="44.64881" lon="5.97357">
        <ele>1767.04</ele>
        <time>2020-09-10T13:09:29Z</time>
      </trkpt>
      <trkpt lat="44.64884" lon="5.97356">
        <ele>1765.6</ele>
        <time>2020-09-10T13:09:48Z</time>
      </trkpt>
      <trkpt lat="44.64891" lon="5.97355">
        <ele>1762.71</ele>
        <time>2020-09-10T13:10:03Z</time>
      </trkpt>
      <trkpt lat="44.64895" lon="5.97354">
        <ele>1761.27</ele>
        <time>2020-09-10T13:10:13Z</time>
      </trkpt>
      <trkpt lat="44.64903" lon="5.97352">
        <ele>1759.35</ele>
        <time>2020-09-10T13:10:26Z</time>
      </trkpt>
      <trkpt lat="44.64907" lon="5.97351">
        <ele>1757.43</ele>
        <time>2020-09-10T13:10:41Z</time>
      </trkpt>
      <trkpt lat="44.64913" lon="5.97342">
        <ele>1755.02</ele>
        <time>2020-09-10T13:10:55Z</time>
      </trkpt>
      <trkpt lat="44.64918" lon="5.97334">
        <ele>1752.14</ele>
        <time>2020-09-10T13:11:06Z</time>
      </trkpt>
      <trkpt lat="44.64922" lon="5.97322">
        <ele>1749.26</ele>
        <time>2020-09-10T13:11:20Z</time>
      </trkpt>
      <trkpt lat="44.64922" lon="5.97321">
        <ele>1749.26</ele>
        <time>2020-09-10T13:11:21Z</time>
      </trkpt>
      <trkpt lat="44.64927" lon="5.97312">
        <ele>1747.33</ele>
        <time>2020-09-10T13:11:34Z</time>
      </trkpt>
      <trkpt lat="44.64933" lon="5.97298">
        <ele>1744.45</ele>
        <time>2020-09-10T13:11:47Z</time>
      </trkpt>
      <trkpt lat="44.64944" lon="5.97286">
        <ele>1741.08</ele>
        <time>2020-09-10T13:12:02Z</time>
      </trkpt>
      <trkpt lat="44.64953" lon="5.9727">
        <ele>1738.68</ele>
        <time>2020-09-10T13:12:16Z</time>
      </trkpt>
      <trkpt lat="44.64958" lon="5.97254">
        <ele>1738.68</ele>
        <time>2020-09-10T13:12:31Z</time>
      </trkpt>
      <trkpt lat="44.64957" lon="5.9725">
        <ele>1738.68</ele>
        <time>2020-09-10T13:12:49Z</time>
      </trkpt>
      <trkpt lat="44.64958" lon="5.97251">
        <ele>1738.2</ele>
        <time>2020-09-10T13:13:20Z</time>
      </trkpt>
      <trkpt lat="44.64955" lon="5.97245">
        <ele>1738.2</ele>
        <time>2020-09-10T13:13:49Z</time>
      </trkpt>
      <trkpt lat="44.64961" lon="5.97246">
        <ele>1737.24</ele>
        <time>2020-09-10T13:14:09Z</time>
      </trkpt>
      <trkpt lat="44.64964" lon="5.97244">
        <ele>1736.76</ele>
        <time>2020-09-10T13:14:22Z</time>
      </trkpt>
      <trkpt lat="44.64962" lon="5.97248">
        <ele>1737.24</ele>
        <time>2020-09-10T13:14:36Z</time>
      </trkpt>
      <trkpt lat="44.64964" lon="5.97242">
        <ele>1737.24</ele>
        <time>2020-09-10T13:14:59Z</time>
      </trkpt>
      <trkpt lat="44.64971" lon="5.97221">
        <ele>1737.24</ele>
        <time>2020-09-10T13:15:16Z</time>
      </trkpt>
      <trkpt lat="44.64978" lon="5.97199">
        <ele>1735.32</ele>
        <time>2020-09-10T13:15:32Z</time>
      </trkpt>
      <trkpt lat="44.64987" lon="5.9718">
        <ele>1734.36</ele>
        <time>2020-09-10T13:15:47Z</time>
      </trkpt>
      <trkpt lat="44.64998" lon="5.97155">
        <ele>1735.32</ele>
        <time>2020-09-10T13:16:05Z</time>
      </trkpt>
      <trkpt lat="44.65005" lon="5.97134">
        <ele>1735.32</ele>
        <time>2020-09-10T13:16:19Z</time>
      </trkpt>
      <trkpt lat="44.65013" lon="5.97111">
        <ele>1736.76</ele>
        <time>2020-09-10T13:16:35Z</time>
      </trkpt>
      <trkpt lat="44.65018" lon="5.97098">
        <ele>1738.2</ele>
        <time>2020-09-10T13:16:46Z</time>
      </trkpt>
      <trkpt lat="44.65028" lon="5.97084">
        <ele>1739.64</ele>
        <time>2020-09-10T13:17:00Z</time>
      </trkpt>
      <trkpt lat="44.65036" lon="5.9707">
        <ele>1741.08</ele>
        <time>2020-09-10T13:17:14Z</time>
      </trkpt>
      <trkpt lat="44.65049" lon="5.97057">
        <ele>1742.53</ele>
        <time>2020-09-10T13:17:32Z</time>
      </trkpt>
      <trkpt lat="44.65055" lon="5.97043">
        <ele>1743.97</ele>
        <time>2020-09-10T13:17:47Z</time>
      </trkpt>
      <trkpt lat="44.6506" lon="5.97033">
        <ele>1744.93</ele>
        <time>2020-09-10T13:17:58Z</time>
      </trkpt>
      <trkpt lat="44.65058" lon="5.97028">
        <ele>1743.49</ele>
        <time>2020-09-10T13:18:02Z</time>
      </trkpt>
      <trkpt lat="44.65063" lon="5.97004">
        <ele>1742.05</ele>
        <time>2020-09-10T13:18:18Z</time>
      </trkpt>
      <trkpt lat="44.65066" lon="5.97">
        <ele>1742.05</ele>
        <time>2020-09-10T13:18:22Z</time>
      </trkpt>
      <trkpt lat="44.65071" lon="5.96996">
        <ele>1741.08</ele>
        <time>2020-09-10T13:18:28Z</time>
      </trkpt>
      <trkpt lat="44.65088" lon="5.96982">
        <ele>1738.68</ele>
        <time>2020-09-10T13:18:45Z</time>
      </trkpt>
      <trkpt lat="44.65089" lon="5.96981">
        <ele>1738.68</ele>
        <time>2020-09-10T13:18:48Z</time>
      </trkpt>
      <trkpt lat="44.65099" lon="5.96978">
        <ele>1737.24</ele>
        <time>2020-09-10T13:18:56Z</time>
      </trkpt>
      <trkpt lat="44.65107" lon="5.96976">
        <ele>1736.28</ele>
        <time>2020-09-10T13:19:03Z</time>
      </trkpt>
      <trkpt lat="44.65112" lon="5.96975">
        <ele>1735.32</ele>
        <time>2020-09-10T13:19:18Z</time>
      </trkpt>
      <trkpt lat="44.65115" lon="5.96972">
        <ele>1734.36</ele>
        <time>2020-09-10T13:19:22Z</time>
      </trkpt>
      <trkpt lat="44.65129" lon="5.96971">
        <ele>1731.47</ele>
        <time>2020-09-10T13:19:37Z</time>
      </trkpt>
      <trkpt lat="44.65134" lon="5.96967">
        <ele>1730.51</ele>
        <time>2020-09-10T13:19:43Z</time>
      </trkpt>
      <trkpt lat="44.65143" lon="5.96964">
        <ele>1728.11</ele>
        <time>2020-09-10T13:19:51Z</time>
      </trkpt>
      <trkpt lat="44.65146" lon="5.96961">
        <ele>1727.15</ele>
        <time>2020-09-10T13:19:55Z</time>
      </trkpt>
      <trkpt lat="44.65148" lon="5.96958">
        <ele>1726.67</ele>
        <time>2020-09-10T13:19:58Z</time>
      </trkpt>
      <trkpt lat="44.65162" lon="5.96955">
        <ele>1723.78</ele>
        <time>2020-09-10T13:20:13Z</time>
      </trkpt>
      <trkpt lat="44.65163" lon="5.96954">
        <ele>1723.3</ele>
        <time>2020-09-10T13:20:14Z</time>
      </trkpt>
      <trkpt lat="44.65165" lon="5.96952">
        <ele>1722.82</ele>
        <time>2020-09-10T13:20:18Z</time>
      </trkpt>
      <trkpt lat="44.65175" lon="5.96946">
        <ele>1721.86</ele>
        <time>2020-09-10T13:20:32Z</time>
      </trkpt>
      <trkpt lat="44.65182" lon="5.96943">
        <ele>1720.42</ele>
        <time>2020-09-10T13:20:40Z</time>
      </trkpt>
      <trkpt lat="44.65185" lon="5.96939">
        <ele>1719.46</ele>
        <time>2020-09-10T13:20:44Z</time>
      </trkpt>
      <trkpt lat="44.65199" lon="5.96925">
        <ele>1718.49</ele>
        <time>2020-09-10T13:21:01Z</time>
      </trkpt>
      <trkpt lat="44.65215" lon="5.96908">
        <ele>1716.57</ele>
        <time>2020-09-10T13:21:21Z</time>
      </trkpt>
      <trkpt lat="44.65223" lon="5.9689">
        <ele>1714.65</ele>
        <time>2020-09-10T13:21:37Z</time>
      </trkpt>
      <trkpt lat="44.65234" lon="5.96876">
        <ele>1713.21</ele>
        <time>2020-09-10T13:21:52Z</time>
      </trkpt>
      <trkpt lat="44.65248" lon="5.96859">
        <ele>1712.25</ele>
        <time>2020-09-10T13:22:09Z</time>
      </trkpt>
      <trkpt lat="44.6526" lon="5.96845">
        <ele>1709.36</ele>
        <time>2020-09-10T13:22:25Z</time>
      </trkpt>
      <trkpt lat="44.65268" lon="5.96833">
        <ele>1708.4</ele>
        <time>2020-09-10T13:22:38Z</time>
      </trkpt>
      <trkpt lat="44.65278" lon="5.96819">
        <ele>1706.96</ele>
        <time>2020-09-10T13:22:52Z</time>
      </trkpt>
      <trkpt lat="44.65281" lon="5.96814">
        <ele>1706.48</ele>
        <time>2020-09-10T13:22:56Z</time>
      </trkpt>
      <trkpt lat="44.65292" lon="5.96804">
        <ele>1703.59</ele>
        <time>2020-09-10T13:23:10Z</time>
      </trkpt>
      <trkpt lat="44.65303" lon="5.96792">
        <ele>1702.15</ele>
        <time>2020-09-10T13:23:26Z</time>
      </trkpt>
      <trkpt lat="44.65306" lon="5.9679">
        <ele>1701.19</ele>
        <time>2020-09-10T13:23:30Z</time>
      </trkpt>
      <trkpt lat="44.65323" lon="5.96791">
        <ele>1700.71</ele>
        <time>2020-09-10T13:23:47Z</time>
      </trkpt>
      <trkpt lat="44.65325" lon="5.9678">
        <ele>1700.23</ele>
        <time>2020-09-10T13:24:02Z</time>
      </trkpt>
      <trkpt lat="44.65328" lon="5.96773">
        <ele>1700.23</ele>
        <time>2020-09-10T13:24:13Z</time>
      </trkpt>
      <trkpt lat="44.6533" lon="5.96768">
        <ele>1699.75</ele>
        <time>2020-09-10T13:24:19Z</time>
      </trkpt>
      <trkpt lat="44.65338" lon="5.96754">
        <ele>1698.79</ele>
        <time>2020-09-10T13:24:32Z</time>
      </trkpt>
      <trkpt lat="44.65349" lon="5.96733">
        <ele>1697.83</ele>
        <time>2020-09-10T13:24:48Z</time>
      </trkpt>
      <trkpt lat="44.65356" lon="5.96718">
        <ele>1696.38</ele>
        <time>2020-09-10T13:25:01Z</time>
      </trkpt>
      <trkpt lat="44.6536" lon="5.96707">
        <ele>1695.42</ele>
        <time>2020-09-10T13:25:13Z</time>
      </trkpt>
      <trkpt lat="44.65362" lon="5.96682">
        <ele>1693.5</ele>
        <time>2020-09-10T13:25:29Z</time>
      </trkpt>
      <trkpt lat="44.65364" lon="5.96654">
        <ele>1690.14</ele>
        <time>2020-09-10T13:25:46Z</time>
      </trkpt>
      <trkpt lat="44.65363" lon="5.96632">
        <ele>1688.21</ele>
        <time>2020-09-10T13:26:01Z</time>
      </trkpt>
      <trkpt lat="44.65363" lon="5.96617">
        <ele>1687.25</ele>
        <time>2020-09-10T13:26:11Z</time>
      </trkpt>
      <trkpt lat="44.6537" lon="5.96594">
        <ele>1685.81</ele>
        <time>2020-09-10T13:26:27Z</time>
      </trkpt>
      <trkpt lat="44.65374" lon="5.96582">
        <ele>1684.85</ele>
        <time>2020-09-10T13:26:36Z</time>
      </trkpt>
      <trkpt lat="44.65386" lon="5.96567">
        <ele>1683.41</ele>
        <time>2020-09-10T13:26:51Z</time>
      </trkpt>
      <trkpt lat="44.65391" lon="5.96566">
        <ele>1682.93</ele>
        <time>2020-09-10T13:26:55Z</time>
      </trkpt>
      <trkpt lat="44.65406" lon="5.96562">
        <ele>1681.48</ele>
        <time>2020-09-10T13:27:10Z</time>
      </trkpt>
      <trkpt lat="44.65415" lon="5.96541">
        <ele>1679.08</ele>
        <time>2020-09-10T13:27:27Z</time>
      </trkpt>
      <trkpt lat="44.65416" lon="5.96523">
        <ele>1678.12</ele>
        <time>2020-09-10T13:27:39Z</time>
      </trkpt>
      <trkpt lat="44.6542" lon="5.96512">
        <ele>1677.16</ele>
        <time>2020-09-10T13:27:46Z</time>
      </trkpt>
      <trkpt lat="44.65421" lon="5.96499">
        <ele>1676.2</ele>
        <time>2020-09-10T13:27:54Z</time>
      </trkpt>
      <trkpt lat="44.65409" lon="5.96483">
        <ele>1674.75</ele>
        <time>2020-09-10T13:28:10Z</time>
      </trkpt>
      <trkpt lat="44.65407" lon="5.96481">
        <ele>1675.23</ele>
        <time>2020-09-10T13:28:12Z</time>
      </trkpt>
      <trkpt lat="44.65402" lon="5.96472">
        <ele>1674.27</ele>
        <time>2020-09-10T13:28:19Z</time>
      </trkpt>
      <trkpt lat="44.65401" lon="5.96466">
        <ele>1673.79</ele>
        <time>2020-09-10T13:28:22Z</time>
      </trkpt>
      <trkpt lat="44.65407" lon="5.96437">
        <ele>1671.39</ele>
        <time>2020-09-10T13:28:39Z</time>
      </trkpt>
      <trkpt lat="44.65419" lon="5.96411">
        <ele>1669.47</ele>
        <time>2020-09-10T13:28:57Z</time>
      </trkpt>
      <trkpt lat="44.65425" lon="5.96388">
        <ele>1668.51</ele>
        <time>2020-09-10T13:29:12Z</time>
      </trkpt>
      <trkpt lat="44.65426" lon="5.96384">
        <ele>1668.02</ele>
        <time>2020-09-10T13:29:15Z</time>
      </trkpt>
      <trkpt lat="44.65428" lon="5.9636">
        <ele>1666.1</ele>
        <time>2020-09-10T13:29:30Z</time>
      </trkpt>
      <trkpt lat="44.65432" lon="5.96329">
        <ele>1664.66</ele>
        <time>2020-09-10T13:29:49Z</time>
      </trkpt>
      <trkpt lat="44.65431" lon="5.96325">
        <ele>1664.66</ele>
        <time>2020-09-10T13:29:53Z</time>
      </trkpt>
      <trkpt lat="44.65427" lon="5.96323">
        <ele>1663.22</ele>
        <time>2020-09-10T13:29:59Z</time>
      </trkpt>
      <trkpt lat="44.65408" lon="5.96311">
        <ele>1662.26</ele>
        <time>2020-09-10T13:30:17Z</time>
      </trkpt>
      <trkpt lat="44.65393" lon="5.96302">
        <ele>1661.3</ele>
        <time>2020-09-10T13:30:32Z</time>
      </trkpt>
      <trkpt lat="44.65376" lon="5.96292">
        <ele>1660.33</ele>
        <time>2020-09-10T13:30:48Z</time>
      </trkpt>
      <trkpt lat="44.65361" lon="5.96271">
        <ele>1658.89</ele>
        <time>2020-09-10T13:31:04Z</time>
      </trkpt>
      <trkpt lat="44.65366" lon="5.96245">
        <ele>1657.45</ele>
        <time>2020-09-10T13:31:19Z</time>
      </trkpt>
      <trkpt lat="44.65366" lon="5.96242">
        <ele>1657.45</ele>
        <time>2020-09-10T13:31:21Z</time>
      </trkpt>
      <trkpt lat="44.65369" lon="5.96224">
        <ele>1656.49</ele>
        <time>2020-09-10T13:31:34Z</time>
      </trkpt>
      <trkpt lat="44.6537" lon="5.96222">
        <ele>1656.49</ele>
        <time>2020-09-10T13:31:36Z</time>
      </trkpt>
      <trkpt lat="44.65364" lon="5.96197">
        <ele>1655.53</ele>
        <time>2020-09-10T13:31:53Z</time>
      </trkpt>
      <trkpt lat="44.65364" lon="5.96182">
        <ele>1654.57</ele>
        <time>2020-09-10T13:32:01Z</time>
      </trkpt>
      <trkpt lat="44.65373" lon="5.96157">
        <ele>1652.64</ele>
        <time>2020-09-10T13:32:18Z</time>
      </trkpt>
      <trkpt lat="44.65381" lon="5.96134">
        <ele>1652.16</ele>
        <time>2020-09-10T13:32:32Z</time>
      </trkpt>
      <trkpt lat="44.65384" lon="5.96126">
        <ele>1652.16</ele>
        <time>2020-09-10T13:32:37Z</time>
      </trkpt>
      <trkpt lat="44.6538" lon="5.96099">
        <ele>1653.6</ele>
        <time>2020-09-10T13:32:55Z</time>
      </trkpt>
      <trkpt lat="44.65378" lon="5.96088">
        <ele>1653.6</ele>
        <time>2020-09-10T13:33:02Z</time>
      </trkpt>
      <trkpt lat="44.6539" lon="5.96059">
        <ele>1653.12</ele>
        <time>2020-09-10T13:33:21Z</time>
      </trkpt>
      <trkpt lat="44.6539" lon="5.96052">
        <ele>1652.16</ele>
        <time>2020-09-10T13:33:25Z</time>
      </trkpt>
      <trkpt lat="44.65391" lon="5.96038">
        <ele>1651.68</ele>
        <time>2020-09-10T13:33:40Z</time>
      </trkpt>
      <trkpt lat="44.654" lon="5.96015">
        <ele>1650.72</ele>
        <time>2020-09-10T13:33:57Z</time>
      </trkpt>
      <trkpt lat="44.65401" lon="5.95991">
        <ele>1650.72</ele>
        <time>2020-09-10T13:34:12Z</time>
      </trkpt>
      <trkpt lat="44.65403" lon="5.95984">
        <ele>1650.72</ele>
        <time>2020-09-10T13:34:17Z</time>
      </trkpt>
      <trkpt lat="44.6541" lon="5.95956">
        <ele>1650.24</ele>
        <time>2020-09-10T13:34:34Z</time>
      </trkpt>
      <trkpt lat="44.65411" lon="5.95952">
        <ele>1651.68</ele>
        <time>2020-09-10T13:34:37Z</time>
      </trkpt>
      <trkpt lat="44.65415" lon="5.95926">
        <ele>1651.68</ele>
        <time>2020-09-10T13:34:52Z</time>
      </trkpt>
      <trkpt lat="44.65424" lon="5.95909">
        <ele>1652.16</ele>
        <time>2020-09-10T13:35:04Z</time>
      </trkpt>
      <trkpt lat="44.65424" lon="5.959">
        <ele>1652.16</ele>
        <time>2020-09-10T13:35:10Z</time>
      </trkpt>
      <trkpt lat="44.65411" lon="5.95883">
        <ele>1652.16</ele>
        <time>2020-09-10T13:35:27Z</time>
      </trkpt>
      <trkpt lat="44.65407" lon="5.95877">
        <ele>1652.64</ele>
        <time>2020-09-10T13:35:32Z</time>
      </trkpt>
      <trkpt lat="44.65403" lon="5.95872">
        <ele>1652.64</ele>
        <time>2020-09-10T13:35:37Z</time>
      </trkpt>
      <trkpt lat="44.654" lon="5.95865">
        <ele>1652.64</ele>
        <time>2020-09-10T13:35:42Z</time>
      </trkpt>
      <trkpt lat="44.65393" lon="5.95849">
        <ele>1653.12</ele>
        <time>2020-09-10T13:35:54Z</time>
      </trkpt>
      <trkpt lat="44.65393" lon="5.95843">
        <ele>1653.12</ele>
        <time>2020-09-10T13:35:59Z</time>
      </trkpt>
      <trkpt lat="44.65393" lon="5.9584">
        <ele>1653.12</ele>
        <time>2020-09-10T13:36:01Z</time>
      </trkpt>
      <trkpt lat="44.65401" lon="5.95819">
        <ele>1653.6</ele>
        <time>2020-09-10T13:36:16Z</time>
      </trkpt>
      <trkpt lat="44.65397" lon="5.95809">
        <ele>1653.6</ele>
        <time>2020-09-10T13:36:24Z</time>
      </trkpt>
      <trkpt lat="44.6539" lon="5.95801">
        <ele>1653.6</ele>
        <time>2020-09-10T13:36:32Z</time>
      </trkpt>
      <trkpt lat="44.65388" lon="5.95796">
        <ele>1653.6</ele>
        <time>2020-09-10T13:36:36Z</time>
      </trkpt>
      <trkpt lat="44.65382" lon="5.95786">
        <ele>1653.6</ele>
        <time>2020-09-10T13:36:44Z</time>
      </trkpt>
      <trkpt lat="44.65374" lon="5.95769">
        <ele>1654.09</ele>
        <time>2020-09-10T13:36:57Z</time>
      </trkpt>
      <trkpt lat="44.65369" lon="5.95753">
        <ele>1654.09</ele>
        <time>2020-09-10T13:37:07Z</time>
      </trkpt>
      <trkpt lat="44.65365" lon="5.95722">
        <ele>1652.16</ele>
        <time>2020-09-10T13:37:25Z</time>
      </trkpt>
      <trkpt lat="44.65374" lon="5.95695">
        <ele>1650.72</ele>
        <time>2020-09-10T13:37:41Z</time>
      </trkpt>
      <trkpt lat="44.65391" lon="5.95679">
        <ele>1649.76</ele>
        <time>2020-09-10T13:37:58Z</time>
      </trkpt>
      <trkpt lat="44.65404" lon="5.95662">
        <ele>1649.28</ele>
        <time>2020-09-10T13:38:13Z</time>
      </trkpt>
      <trkpt lat="44.65405" lon="5.95657">
        <ele>1649.28</ele>
        <time>2020-09-10T13:38:16Z</time>
      </trkpt>
      <trkpt lat="44.65409" lon="5.9563">
        <ele>1648.8</ele>
        <time>2020-09-10T13:38:33Z</time>
      </trkpt>
      <trkpt lat="44.65409" lon="5.9562">
        <ele>1648.32</ele>
        <time>2020-09-10T13:38:39Z</time>
      </trkpt>
      <trkpt lat="44.65406" lon="5.95595">
        <ele>1647.84</ele>
        <time>2020-09-10T13:38:55Z</time>
      </trkpt>
      <trkpt lat="44.65399" lon="5.95573">
        <ele>1646.88</ele>
        <time>2020-09-10T13:39:11Z</time>
      </trkpt>
      <trkpt lat="44.65394" lon="5.95546">
        <ele>1646.4</ele>
        <time>2020-09-10T13:39:27Z</time>
      </trkpt>
      <trkpt lat="44.65395" lon="5.95542">
        <ele>1646.4</ele>
        <time>2020-09-10T13:39:29Z</time>
      </trkpt>
      <trkpt lat="44.65395" lon="5.95512">
        <ele>1645.91</ele>
        <time>2020-09-10T13:39:45Z</time>
      </trkpt>
      <trkpt lat="44.65393" lon="5.95502">
        <ele>1645.91</ele>
        <time>2020-09-10T13:39:51Z</time>
      </trkpt>
      <trkpt lat="44.65393" lon="5.955">
        <ele>1645.91</ele>
        <time>2020-09-10T13:39:53Z</time>
      </trkpt>
      <trkpt lat="44.65387" lon="5.95491">
        <ele>1645.91</ele>
        <time>2020-09-10T13:40:00Z</time>
      </trkpt>
      <trkpt lat="44.65385" lon="5.95488">
        <ele>1645.91</ele>
        <time>2020-09-10T13:40:03Z</time>
      </trkpt>
      <trkpt lat="44.65383" lon="5.95484">
        <ele>1645.91</ele>
        <time>2020-09-10T13:40:06Z</time>
      </trkpt>
      <trkpt lat="44.65383" lon="5.95481">
        <ele>1645.43</ele>
        <time>2020-09-10T13:40:08Z</time>
      </trkpt>
      <trkpt lat="44.65381" lon="5.95467">
        <ele>1644.95</ele>
        <time>2020-09-10T13:40:17Z</time>
      </trkpt>
      <trkpt lat="44.65379" lon="5.95446">
        <ele>1643.51</ele>
        <time>2020-09-10T13:40:31Z</time>
      </trkpt>
      <trkpt lat="44.65374" lon="5.95438">
        <ele>1643.99</ele>
        <time>2020-09-10T13:40:38Z</time>
      </trkpt>
      <trkpt lat="44.6536" lon="5.95426">
        <ele>1643.99</ele>
        <time>2020-09-10T13:40:53Z</time>
      </trkpt>
      <trkpt lat="44.65353" lon="5.95415">
        <ele>1645.43</ele>
        <time>2020-09-10T13:41:03Z</time>
      </trkpt>
      <trkpt lat="44.65346" lon="5.95389">
        <ele>1646.88</ele>
        <time>2020-09-10T13:41:20Z</time>
      </trkpt>
      <trkpt lat="44.6534" lon="5.95377">
        <ele>1647.84</ele>
        <time>2020-09-10T13:41:29Z</time>
      </trkpt>
      <trkpt lat="44.65337" lon="5.95369">
        <ele>1647.84</ele>
        <time>2020-09-10T13:41:34Z</time>
      </trkpt>
      <trkpt lat="44.65334" lon="5.95359">
        <ele>1648.8</ele>
        <time>2020-09-10T13:41:41Z</time>
      </trkpt>
      <trkpt lat="44.65327" lon="5.95335">
        <ele>1649.76</ele>
        <time>2020-09-10T13:41:56Z</time>
      </trkpt>
      <trkpt lat="44.65318" lon="5.95309">
        <ele>1649.76</ele>
        <time>2020-09-10T13:42:12Z</time>
      </trkpt>
      <trkpt lat="44.65312" lon="5.9529">
        <ele>1648.8</ele>
        <time>2020-09-10T13:42:25Z</time>
      </trkpt>
      <trkpt lat="44.6531" lon="5.95286">
        <ele>1648.32</ele>
        <time>2020-09-10T13:42:28Z</time>
      </trkpt>
      <trkpt lat="44.65304" lon="5.95261">
        <ele>1645.91</ele>
        <time>2020-09-10T13:42:43Z</time>
      </trkpt>
      <trkpt lat="44.653" lon="5.9525">
        <ele>1645.43</ele>
        <time>2020-09-10T13:42:51Z</time>
      </trkpt>
      <trkpt lat="44.65299" lon="5.95244">
        <ele>1645.43</ele>
        <time>2020-09-10T13:42:56Z</time>
      </trkpt>
      <trkpt lat="44.65296" lon="5.9523">
        <ele>1643.99</ele>
        <time>2020-09-10T13:43:05Z</time>
      </trkpt>
      <trkpt lat="44.65294" lon="5.95223">
        <ele>1643.51</ele>
        <time>2020-09-10T13:43:09Z</time>
      </trkpt>
      <trkpt lat="44.65285" lon="5.95196">
        <ele>1641.11</ele>
        <time>2020-09-10T13:43:26Z</time>
      </trkpt>
      <trkpt lat="44.6528" lon="5.95177">
        <ele>1640.15</ele>
        <time>2020-09-10T13:43:42Z</time>
      </trkpt>
      <trkpt lat="44.65276" lon="5.95155">
        <ele>1638.7</ele>
        <time>2020-09-10T13:43:57Z</time>
      </trkpt>
      <trkpt lat="44.65275" lon="5.95147">
        <ele>1637.74</ele>
        <time>2020-09-10T13:44:03Z</time>
      </trkpt>
      <trkpt lat="44.65274" lon="5.95123">
        <ele>1636.3</ele>
        <time>2020-09-10T13:44:17Z</time>
      </trkpt>
      <trkpt lat="44.65277" lon="5.95101">
        <ele>1635.34</ele>
        <time>2020-09-10T13:44:33Z</time>
      </trkpt>
      <trkpt lat="44.65276" lon="5.95075">
        <ele>1632.46</ele>
        <time>2020-09-10T13:44:51Z</time>
      </trkpt>
      <trkpt lat="44.65275" lon="5.95069">
        <ele>1632.46</ele>
        <time>2020-09-10T13:44:55Z</time>
      </trkpt>
      <trkpt lat="44.65276" lon="5.95041">
        <ele>1630.53</ele>
        <time>2020-09-10T13:45:12Z</time>
      </trkpt>
      <trkpt lat="44.65275" lon="5.95031">
        <ele>1630.05</ele>
        <time>2020-09-10T13:45:20Z</time>
      </trkpt>
      <trkpt lat="44.65275" lon="5.95005">
        <ele>1628.13</ele>
        <time>2020-09-10T13:45:37Z</time>
      </trkpt>
      <trkpt lat="44.65277" lon="5.94982">
        <ele>1626.69</ele>
        <time>2020-09-10T13:45:51Z</time>
      </trkpt>
      <trkpt lat="44.65275" lon="5.94968">
        <ele>1625.73</ele>
        <time>2020-09-10T13:46:08Z</time>
      </trkpt>
      <trkpt lat="44.65275" lon="5.9497">
        <ele>1625.73</ele>
        <time>2020-09-10T13:46:28Z</time>
      </trkpt>
      <trkpt lat="44.65275" lon="5.94963">
        <ele>1625.25</ele>
        <time>2020-09-10T13:46:54Z</time>
      </trkpt>
      <trkpt lat="44.65279" lon="5.9497">
        <ele>1625.25</ele>
        <time>2020-09-10T13:47:12Z</time>
      </trkpt>
      <trkpt lat="44.65279" lon="5.94967">
        <ele>1625.25</ele>
        <time>2020-09-10T13:47:28Z</time>
      </trkpt>
      <trkpt lat="44.6528" lon="5.94967">
        <ele>1625.25</ele>
        <time>2020-09-10T13:47:43Z</time>
      </trkpt>
      <trkpt lat="44.65276" lon="5.94965">
        <ele>1624.77</ele>
        <time>2020-09-10T13:48:05Z</time>
      </trkpt>
      <trkpt lat="44.65272" lon="5.94956">
        <ele>1624.77</ele>
        <time>2020-09-10T13:48:32Z</time>
      </trkpt>
      <trkpt lat="44.65271" lon="5.94958">
        <ele>1624.77</ele>
        <time>2020-09-10T13:48:56Z</time>
      </trkpt>
      <trkpt lat="44.6527" lon="5.94959">
        <ele>1624.77</ele>
        <time>2020-09-10T13:49:21Z</time>
      </trkpt>
      <trkpt lat="44.65271" lon="5.94962">
        <ele>1624.77</ele>
        <time>2020-09-10T13:49:43Z</time>
      </trkpt>
      <trkpt lat="44.65272" lon="5.94973">
        <ele>1624.77</ele>
        <time>2020-09-10T13:49:58Z</time>
      </trkpt>
      <trkpt lat="44.65277" lon="5.94974">
        <ele>1625.73</ele>
        <time>2020-09-10T13:50:22Z</time>
      </trkpt>
      <trkpt lat="44.65276" lon="5.9497">
        <ele>1625.73</ele>
        <time>2020-09-10T13:50:45Z</time>
      </trkpt>
      <trkpt lat="44.65276" lon="5.94965">
        <ele>1624.77</ele>
        <time>2020-09-10T13:50:48Z</time>
      </trkpt>
      <trkpt lat="44.65271" lon="5.94939">
        <ele>1622.36</ele>
        <time>2020-09-10T13:51:05Z</time>
      </trkpt>
      <trkpt lat="44.65271" lon="5.94919">
        <ele>1621.4</ele>
        <time>2020-09-10T13:51:16Z</time>
      </trkpt>
      <trkpt lat="44.65272" lon="5.9491">
        <ele>1620.92</ele>
        <time>2020-09-10T13:51:20Z</time>
      </trkpt>
      <trkpt lat="44.65273" lon="5.94907">
        <ele>1619.96</ele>
        <time>2020-09-10T13:51:22Z</time>
      </trkpt>
      <trkpt lat="44.65272" lon="5.94899">
        <ele>1619.48</ele>
        <time>2020-09-10T13:51:27Z</time>
      </trkpt>
      <trkpt lat="44.65278" lon="5.9487">
        <ele>1618.04</ele>
        <time>2020-09-10T13:51:44Z</time>
      </trkpt>
      <trkpt lat="44.65279" lon="5.94865">
        <ele>1617.07</ele>
        <time>2020-09-10T13:51:47Z</time>
      </trkpt>
      <trkpt lat="44.65276" lon="5.94837">
        <ele>1615.15</ele>
        <time>2020-09-10T13:52:06Z</time>
      </trkpt>
      <trkpt lat="44.65276" lon="5.94828">
        <ele>1614.67</ele>
        <time>2020-09-10T13:52:11Z</time>
      </trkpt>
      <trkpt lat="44.65278" lon="5.94795">
        <ele>1611.79</ele>
        <time>2020-09-10T13:52:29Z</time>
      </trkpt>
      <trkpt lat="44.65276" lon="5.94786">
        <ele>1610.83</ele>
        <time>2020-09-10T13:52:35Z</time>
      </trkpt>
      <trkpt lat="44.65282" lon="5.94758">
        <ele>1609.38</ele>
        <time>2020-09-10T13:52:51Z</time>
      </trkpt>
      <trkpt lat="44.65281" lon="5.94756">
        <ele>1609.38</ele>
        <time>2020-09-10T13:52:58Z</time>
      </trkpt>
      <trkpt lat="44.65288" lon="5.94741">
        <ele>1607.94</ele>
        <time>2020-09-10T13:53:09Z</time>
      </trkpt>
      <trkpt lat="44.65291" lon="5.94731">
        <ele>1607.94</ele>
        <time>2020-09-10T13:53:16Z</time>
      </trkpt>
      <trkpt lat="44.65292" lon="5.94727">
        <ele>1606.98</ele>
        <time>2020-09-10T13:53:19Z</time>
      </trkpt>
      <trkpt lat="44.65294" lon="5.94723">
        <ele>1606.98</ele>
        <time>2020-09-10T13:53:22Z</time>
      </trkpt>
      <trkpt lat="44.65296" lon="5.94707">
        <ele>1606.02</ele>
        <time>2020-09-10T13:53:36Z</time>
      </trkpt>
      <trkpt lat="44.65295" lon="5.94692">
        <ele>1605.54</ele>
        <time>2020-09-10T13:53:48Z</time>
      </trkpt>
      <trkpt lat="44.65297" lon="5.94677">
        <ele>1604.58</ele>
        <time>2020-09-10T13:54:01Z</time>
      </trkpt>
      <trkpt lat="44.65298" lon="5.94654">
        <ele>1602.17</ele>
        <time>2020-09-10T13:54:18Z</time>
      </trkpt>
      <trkpt lat="44.65299" lon="5.94647">
        <ele>1601.69</ele>
        <time>2020-09-10T13:54:23Z</time>
      </trkpt>
      <trkpt lat="44.65297" lon="5.94628">
        <ele>1600.25</ele>
        <time>2020-09-10T13:54:36Z</time>
      </trkpt>
      <trkpt lat="44.65298" lon="5.94611">
        <ele>1600.73</ele>
        <time>2020-09-10T13:54:49Z</time>
      </trkpt>
      <trkpt lat="44.653" lon="5.94596">
        <ele>1599.77</ele>
        <time>2020-09-10T13:55:04Z</time>
      </trkpt>
      <trkpt lat="44.65303" lon="5.94579">
        <ele>1598.33</ele>
        <time>2020-09-10T13:55:16Z</time>
      </trkpt>
      <trkpt lat="44.65311" lon="5.94554">
        <ele>1597.85</ele>
        <time>2020-09-10T13:55:31Z</time>
      </trkpt>
      <trkpt lat="44.65315" lon="5.94525">
        <ele>1595.45</ele>
        <time>2020-09-10T13:55:51Z</time>
      </trkpt>
      <trkpt lat="44.65318" lon="5.94511">
        <ele>1594.96</ele>
        <time>2020-09-10T13:56:01Z</time>
      </trkpt>
      <trkpt lat="44.65316" lon="5.94504">
        <ele>1594.48</ele>
        <time>2020-09-10T13:56:06Z</time>
      </trkpt>
      <trkpt lat="44.65315" lon="5.94482">
        <ele>1592.56</ele>
        <time>2020-09-10T13:56:23Z</time>
      </trkpt>
      <trkpt lat="44.65318" lon="5.94458">
        <ele>1591.6</ele>
        <time>2020-09-10T13:56:41Z</time>
      </trkpt>
      <trkpt lat="44.65325" lon="5.94432">
        <ele>1590.64</ele>
        <time>2020-09-10T13:56:58Z</time>
      </trkpt>
      <trkpt lat="44.65329" lon="5.94413">
        <ele>1588.72</ele>
        <time>2020-09-10T13:57:13Z</time>
      </trkpt>
      <trkpt lat="44.65334" lon="5.94395">
        <ele>1587.75</ele>
        <time>2020-09-10T13:57:27Z</time>
      </trkpt>
      <trkpt lat="44.65339" lon="5.94377">
        <ele>1585.83</ele>
        <time>2020-09-10T13:57:41Z</time>
      </trkpt>
      <trkpt lat="44.65348" lon="5.94354">
        <ele>1584.39</ele>
        <time>2020-09-10T13:57:57Z</time>
      </trkpt>
      <trkpt lat="44.65352" lon="5.94333">
        <ele>1582.95</ele>
        <time>2020-09-10T13:58:13Z</time>
      </trkpt>
      <trkpt lat="44.65354" lon="5.94324">
        <ele>1581.99</ele>
        <time>2020-09-10T13:58:20Z</time>
      </trkpt>
      <trkpt lat="44.65354" lon="5.94307">
        <ele>1581.03</ele>
        <time>2020-09-10T13:58:34Z</time>
      </trkpt>
      <trkpt lat="44.65365" lon="5.94281">
        <ele>1579.58</ele>
        <time>2020-09-10T13:58:50Z</time>
      </trkpt>
      <trkpt lat="44.65377" lon="5.94255">
        <ele>1577.66</ele>
        <time>2020-09-10T13:59:09Z</time>
      </trkpt>
      <trkpt lat="44.65378" lon="5.94252">
        <ele>1577.66</ele>
        <time>2020-09-10T13:59:12Z</time>
      </trkpt>
      <trkpt lat="44.65379" lon="5.94249">
        <ele>1577.18</ele>
        <time>2020-09-10T13:59:15Z</time>
      </trkpt>
      <trkpt lat="44.65375" lon="5.94229">
        <ele>1574.78</ele>
        <time>2020-09-10T13:59:32Z</time>
      </trkpt>
      <trkpt lat="44.65377" lon="5.94225">
        <ele>1574.3</ele>
        <time>2020-09-10T13:59:35Z</time>
      </trkpt>
      <trkpt lat="44.65379" lon="5.94217">
        <ele>1573.82</ele>
        <time>2020-09-10T13:59:40Z</time>
      </trkpt>
      <trkpt lat="44.65386" lon="5.94193">
        <ele>1571.89</ele>
        <time>2020-09-10T13:59:55Z</time>
      </trkpt>
      <trkpt lat="44.65388" lon="5.94189">
        <ele>1571.89</ele>
        <time>2020-09-10T13:59:58Z</time>
      </trkpt>
      <trkpt lat="44.65391" lon="5.94181">
        <ele>1570.93</ele>
        <time>2020-09-10T14:00:05Z</time>
      </trkpt>
      <trkpt lat="44.65397" lon="5.94156">
        <ele>1569.01</ele>
        <time>2020-09-10T14:00:23Z</time>
      </trkpt>
      <trkpt lat="44.65407" lon="5.94135">
        <ele>1566.61</ele>
        <time>2020-09-10T14:00:42Z</time>
      </trkpt>
      <trkpt lat="44.6542" lon="5.94131">
        <ele>1566.12</ele>
        <time>2020-09-10T14:01:00Z</time>
      </trkpt>
      <trkpt lat="44.65433" lon="5.94124">
        <ele>1565.64</ele>
        <time>2020-09-10T14:01:09Z</time>
      </trkpt>
      <trkpt lat="44.65452" lon="5.94117">
        <ele>1564.68</ele>
        <time>2020-09-10T14:01:24Z</time>
      </trkpt>
      <trkpt lat="44.65457" lon="5.94106">
        <ele>1563.72</ele>
        <time>2020-09-10T14:01:40Z</time>
      </trkpt>
      <trkpt lat="44.65461" lon="5.94093">
        <ele>1563.24</ele>
        <time>2020-09-10T14:01:49Z</time>
      </trkpt>
      <trkpt lat="44.65466" lon="5.94082">
        <ele>1562.28</ele>
        <time>2020-09-10T14:01:58Z</time>
      </trkpt>
      <trkpt lat="44.65475" lon="5.9406">
        <ele>1559.88</ele>
        <time>2020-09-10T14:02:16Z</time>
      </trkpt>
      <trkpt lat="44.65483" lon="5.94043">
        <ele>1559.4</ele>
        <time>2020-09-10T14:02:29Z</time>
      </trkpt>
      <trkpt lat="44.65491" lon="5.94029">
        <ele>1557.47</ele>
        <time>2020-09-10T14:02:44Z</time>
      </trkpt>
      <trkpt lat="44.65499" lon="5.94017">
        <ele>1556.99</ele>
        <time>2020-09-10T14:02:58Z</time>
      </trkpt>
      <trkpt lat="44.65504" lon="5.94005">
        <ele>1556.51</ele>
        <time>2020-09-10T14:03:13Z</time>
      </trkpt>
      <trkpt lat="44.65508" lon="5.93987">
        <ele>1555.07</ele>
        <time>2020-09-10T14:03:28Z</time>
      </trkpt>
      <trkpt lat="44.65513" lon="5.93972">
        <ele>1554.11</ele>
        <time>2020-09-10T14:03:40Z</time>
      </trkpt>
      <trkpt lat="44.65534" lon="5.93946">
        <ele>1551.71</ele>
        <time>2020-09-10T14:04:02Z</time>
      </trkpt>
      <trkpt lat="44.65542" lon="5.93927">
        <ele>1549.3</ele>
        <time>2020-09-10T14:04:20Z</time>
      </trkpt>
      <trkpt lat="44.6554" lon="5.93919">
        <ele>1549.3</ele>
        <time>2020-09-10T14:04:29Z</time>
      </trkpt>
      <trkpt lat="44.65538" lon="5.93909">
        <ele>1548.34</ele>
        <time>2020-09-10T14:04:37Z</time>
      </trkpt>
      <trkpt lat="44.65536" lon="5.93903">
        <ele>1547.86</ele>
        <time>2020-09-10T14:04:42Z</time>
      </trkpt>
      <trkpt lat="44.65531" lon="5.9388">
        <ele>1546.42</ele>
        <time>2020-09-10T14:05:00Z</time>
      </trkpt>
      <trkpt lat="44.65533" lon="5.93865">
        <ele>1545.94</ele>
        <time>2020-09-10T14:05:14Z</time>
      </trkpt>
      <trkpt lat="44.65534" lon="5.93845">
        <ele>1545.46</ele>
        <time>2020-09-10T14:05:28Z</time>
      </trkpt>
      <trkpt lat="44.65536" lon="5.93821">
        <ele>1544.98</ele>
        <time>2020-09-10T14:05:46Z</time>
      </trkpt>
      <trkpt lat="44.65542" lon="5.93802">
        <ele>1544.01</ele>
        <time>2020-09-10T14:06:03Z</time>
      </trkpt>
      <trkpt lat="44.65548" lon="5.93789">
        <ele>1541.61</ele>
        <time>2020-09-10T14:06:18Z</time>
      </trkpt>
      <trkpt lat="44.65564" lon="5.93779">
        <ele>1541.13</ele>
        <time>2020-09-10T14:06:36Z</time>
      </trkpt>
      <trkpt lat="44.65566" lon="5.93777">
        <ele>1541.13</ele>
        <time>2020-09-10T14:06:38Z</time>
      </trkpt>
      <trkpt lat="44.65589" lon="5.93769">
        <ele>1542.57</ele>
        <time>2020-09-10T14:06:53Z</time>
      </trkpt>
      <trkpt lat="44.65596" lon="5.93769">
        <ele>1543.05</ele>
        <time>2020-09-10T14:06:59Z</time>
      </trkpt>
      <trkpt lat="44.65616" lon="5.93765">
        <ele>1544.01</ele>
        <time>2020-09-10T14:07:16Z</time>
      </trkpt>
      <trkpt lat="44.65629" lon="5.93749">
        <ele>1544.5</ele>
        <time>2020-09-10T14:07:33Z</time>
      </trkpt>
      <trkpt lat="44.65631" lon="5.93738">
        <ele>1543.53</ele>
        <time>2020-09-10T14:07:43Z</time>
      </trkpt>
      <trkpt lat="44.65632" lon="5.93719">
        <ele>1541.61</ele>
        <time>2020-09-10T14:07:58Z</time>
      </trkpt>
      <trkpt lat="44.65634" lon="5.93696">
        <ele>1540.65</ele>
        <time>2020-09-10T14:08:15Z</time>
      </trkpt>
      <trkpt lat="44.65641" lon="5.93675">
        <ele>1539.69</ele>
        <time>2020-09-10T14:08:30Z</time>
      </trkpt>
      <trkpt lat="44.65651" lon="5.9365">
        <ele>1538.73</ele>
        <time>2020-09-10T14:08:44Z</time>
      </trkpt>
      <trkpt lat="44.65661" lon="5.93629">
        <ele>1536.32</ele>
        <time>2020-09-10T14:09:01Z</time>
      </trkpt>
      <trkpt lat="44.65662" lon="5.93627">
        <ele>1536.32</ele>
        <time>2020-09-10T14:09:02Z</time>
      </trkpt>
      <trkpt lat="44.6567" lon="5.93607">
        <ele>1535.84</ele>
        <time>2020-09-10T14:09:17Z</time>
      </trkpt>
      <trkpt lat="44.65673" lon="5.93597">
        <ele>1535.84</ele>
        <time>2020-09-10T14:09:25Z</time>
      </trkpt>
      <trkpt lat="44.65674" lon="5.93591">
        <ele>1535.84</ele>
        <time>2020-09-10T14:09:30Z</time>
      </trkpt>
      <trkpt lat="44.65686" lon="5.93579">
        <ele>1538.25</ele>
        <time>2020-09-10T14:09:44Z</time>
      </trkpt>
      <trkpt lat="44.65698" lon="5.93564">
        <ele>1541.13</ele>
        <time>2020-09-10T14:10:01Z</time>
      </trkpt>
      <trkpt lat="44.65712" lon="5.93546">
        <ele>1543.53</ele>
        <time>2020-09-10T14:10:17Z</time>
      </trkpt>
      <trkpt lat="44.65725" lon="5.93527">
        <ele>1545.46</ele>
        <time>2020-09-10T14:10:34Z</time>
      </trkpt>
      <trkpt lat="44.65733" lon="5.93513">
        <ele>1547.38</ele>
        <time>2020-09-10T14:10:50Z</time>
      </trkpt>
      <trkpt lat="44.65745" lon="5.93506">
        <ele>1549.78</ele>
        <time>2020-09-10T14:11:02Z</time>
      </trkpt>
      <trkpt lat="44.65765" lon="5.93499">
        <ele>1549.78</ele>
        <time>2020-09-10T14:11:18Z</time>
      </trkpt>
      <trkpt lat="44.65767" lon="5.93499">
        <ele>1549.78</ele>
        <time>2020-09-10T14:11:21Z</time>
      </trkpt>
      <trkpt lat="44.65781" lon="5.93498">
        <ele>1549.78</ele>
        <time>2020-09-10T14:11:38Z</time>
      </trkpt>
      <trkpt lat="44.65782" lon="5.93499">
        <ele>1549.78</ele>
        <time>2020-09-10T14:11:41Z</time>
      </trkpt>
      <trkpt lat="44.65795" lon="5.935">
        <ele>1549.78</ele>
        <time>2020-09-10T14:11:58Z</time>
      </trkpt>
      <trkpt lat="44.65798" lon="5.935">
        <ele>1549.78</ele>
        <time>2020-09-10T14:12:06Z</time>
      </trkpt>
      <trkpt lat="44.65811" lon="5.93492">
        <ele>1549.3</ele>
        <time>2020-09-10T14:12:21Z</time>
      </trkpt>
      <trkpt lat="44.65818" lon="5.93489">
        <ele>1549.3</ele>
        <time>2020-09-10T14:12:27Z</time>
      </trkpt>
      <trkpt lat="44.6583" lon="5.93488">
        <ele>1549.3</ele>
        <time>2020-09-10T14:12:44Z</time>
      </trkpt>
      <trkpt lat="44.65835" lon="5.9349">
        <ele>1549.3</ele>
        <time>2020-09-10T14:13:04Z</time>
      </trkpt>
      <trkpt lat="44.65845" lon="5.93485">
        <ele>1547.86</ele>
        <time>2020-09-10T14:13:20Z</time>
      </trkpt>
      <trkpt lat="44.65863" lon="5.9348">
        <ele>1546.9</ele>
        <time>2020-09-10T14:13:36Z</time>
      </trkpt>
      <trkpt lat="44.6588" lon="5.93478">
        <ele>1545.94</ele>
        <time>2020-09-10T14:13:50Z</time>
      </trkpt>
      <trkpt lat="44.65897" lon="5.93478">
        <ele>1547.86</ele>
        <time>2020-09-10T14:14:06Z</time>
      </trkpt>
      <trkpt lat="44.6592" lon="5.9348">
        <ele>1547.86</ele>
        <time>2020-09-10T14:14:24Z</time>
      </trkpt>
      <trkpt lat="44.65938" lon="5.93484">
        <ele>1548.34</ele>
        <time>2020-09-10T14:14:45Z</time>
      </trkpt>
      <trkpt lat="44.6596" lon="5.93492">
        <ele>1548.82</ele>
        <time>2020-09-10T14:15:03Z</time>
      </trkpt>
      <trkpt lat="44.65972" lon="5.93497">
        <ele>1548.82</ele>
        <time>2020-09-10T14:15:16Z</time>
      </trkpt>
      <trkpt lat="44.65991" lon="5.935">
        <ele>1549.3</ele>
        <time>2020-09-10T14:15:31Z</time>
      </trkpt>
      <trkpt lat="44.66001" lon="5.93509">
        <ele>1547.86</ele>
        <time>2020-09-10T14:15:41Z</time>
      </trkpt>
      <trkpt lat="44.66013" lon="5.93529">
        <ele>1545.46</ele>
        <time>2020-09-10T14:15:56Z</time>
      </trkpt>
      <trkpt lat="44.66024" lon="5.93542">
        <ele>1542.57</ele>
        <time>2020-09-10T14:16:12Z</time>
      </trkpt>
      <trkpt lat="44.66036" lon="5.93553">
        <ele>1539.21</ele>
        <time>2020-09-10T14:16:27Z</time>
      </trkpt>
      <trkpt lat="44.66046" lon="5.93563">
        <ele>1536.8</ele>
        <time>2020-09-10T14:16:41Z</time>
      </trkpt>
      <trkpt lat="44.66055" lon="5.93576">
        <ele>1533.44</ele>
        <time>2020-09-10T14:16:55Z</time>
      </trkpt>
      <trkpt lat="44.66064" lon="5.93593">
        <ele>1530.08</ele>
        <time>2020-09-10T14:17:13Z</time>
      </trkpt>
      <trkpt lat="44.6607" lon="5.93611">
        <ele>1526.71</ele>
        <time>2020-09-10T14:17:27Z</time>
      </trkpt>
      <trkpt lat="44.66075" lon="5.93635">
        <ele>1522.87</ele>
        <time>2020-09-10T14:17:45Z</time>
      </trkpt>
      <trkpt lat="44.66079" lon="5.93653">
        <ele>1520.94</ele>
        <time>2020-09-10T14:18:00Z</time>
      </trkpt>
      <trkpt lat="44.66083" lon="5.9368">
        <ele>1518.06</ele>
        <time>2020-09-10T14:18:16Z</time>
      </trkpt>
      <trkpt lat="44.6609" lon="5.93703">
        <ele>1514.69</ele>
        <time>2020-09-10T14:18:35Z</time>
      </trkpt>
      <trkpt lat="44.66099" lon="5.93726">
        <ele>1512.77</ele>
        <time>2020-09-10T14:18:52Z</time>
      </trkpt>
      <trkpt lat="44.66107" lon="5.93746">
        <ele>1510.85</ele>
        <time>2020-09-10T14:19:09Z</time>
      </trkpt>
      <trkpt lat="44.66118" lon="5.93768">
        <ele>1508.45</ele>
        <time>2020-09-10T14:19:28Z</time>
      </trkpt>
      <trkpt lat="44.66124" lon="5.93776">
        <ele>1508.45</ele>
        <time>2020-09-10T14:19:32Z</time>
      </trkpt>
      <trkpt lat="44.66137" lon="5.93792">
        <ele>1507.97</ele>
        <time>2020-09-10T14:19:48Z</time>
      </trkpt>
      <trkpt lat="44.6615" lon="5.93804">
        <ele>1508.93</ele>
        <time>2020-09-10T14:20:03Z</time>
      </trkpt>
      <trkpt lat="44.66157" lon="5.93812">
        <ele>1507.48</ele>
        <time>2020-09-10T14:20:13Z</time>
      </trkpt>
      <trkpt lat="44.66162" lon="5.93824">
        <ele>1506.52</ele>
        <time>2020-09-10T14:20:21Z</time>
      </trkpt>
      <trkpt lat="44.66159" lon="5.93841">
        <ele>1506.04</ele>
        <time>2020-09-10T14:20:36Z</time>
      </trkpt>
      <trkpt lat="44.66158" lon="5.93841">
        <ele>1506.04</ele>
        <time>2020-09-10T14:20:47Z</time>
      </trkpt>
      <trkpt lat="44.66155" lon="5.93843">
        <ele>1505.08</ele>
        <time>2020-09-10T14:21:04Z</time>
      </trkpt>
      <trkpt lat="44.66155" lon="5.93841">
        <ele>1505.08</ele>
        <time>2020-09-10T14:21:24Z</time>
      </trkpt>
    </trkseg>
  </trk>
</gpx>